[[{"header":{"parameterUnit":"m.s-1","parameterCategory":1,"la1":31.0,"la2":29.5877,"lo1":-88.7671,"lo2":-86.6584,"dx":0.0162,"dy":0.0185,"nx":115,"ny":88,"refTime":"2022-11-28T18:00:00:Z","depth":0,"parameterNumber":2,"parameterNumberName":"U-component_of_WINDS"},"data":[0.0,0.0,0.0,0.0,0.0,0.0,0.0,0.0,0.0,0.0,0.0,0.0,0.0,0.0,0.0,0.0,0.0,0.0,0.0,0.0,0.0,0.0,0.0,0.0,0.0,0.0,0.0,0.0,0.0,0.0,0.0,0.0,0.0,0.0,0.0,0.0,0.0,0.0,0.0,0.0,0.0,0.0,0.0,0.0,0.0,0.0,0.0,0.0,0.0,0.0,0.0,0.0,0.0,0.0,0.0,0.0,0.0,0.0,0.0,0.0,0.0,0.0,0.0,0.0,0.0,0.0,0.0,0.0,0.0,0.0,0.0,0.0,0.0,0.0,0.0,0.0,0.0,0.0,0.0,0.0,0.0,0.0,0.0,0.0,0.0,0.0,0.0,0.0,0.0,0.0,0.0,0.0,0.0,0.0,0.0,0.0,0.0,0.0,0.0,0.0,0.0,0.0,0.0,0.0,0.0,0.0,0.0,0.0,0.0,0.0,0.0,0.0,0.0,0.0,0.0,0.0,0.0,0.0,0.0,0.0,0.0,0.0,0.0,0.0,0.0,0.0,0.0,0.0,0.0,0.0,0.0,0.0,0.0,0.0,0.0,0.0,0.0,0.0,0.0,0.0,0.0,0.0,0.0,0.0,0.0,0.0,0.0,0.0,0.0,0.0,0.0,0.0,0.0,0.0,0.0,0.0,0.0,0.0,0.0,0.0,0.0,0.0,0.0,0.0,0.0,0.0,0.0,0.0,0.0,0.0,0.0,0.0,0.0,0.0,0.0,0.0,0.0,0.0,0.0,0.0,0.0,0.0,0.0,0.0,0.0,0.0,0.0,0.0,0.0,0.0,0.0,0.0,0.0,0.0,0.0,0.0,0.0,0.0,0.0,0.0,0.0,0.0,0.0,0.0,0.0,0.0,0.0,0.0,0.0,0.0,0.0,0.0,0.0,0.0,0.0,0.0,0.0,0.0,0.0,0.0,0.0,0.0,0.0,0.0,0.0,0.0,0.0,0.0,0.0,0.0,0.0,0.0,0.0,0.0,0.0,0.0,0.0,0.0,0.0,0.0,0.0,0.0,0.0,0.0,0.0,0.0,0.0,0.0,0.0,0.0,0.0,0.0,0.0,0.0,0.0,0.0,0.0,0.0,0.0,0.0,0.0,0.0,0.0,0.0,0.0,0.0,0.0,0.0,0.0,0.0,0.0,0.0,0.0,0.0,0.0,0.0,0.0,0.0,0.0,0.0,0.0,0.0,0.0,0.0,0.0,0.0,0.0,0.0,0.0,0.0,0.0,0.0,0.0,0.0,0.0,0.0,0.0,0.0,0.0,0.0,0.0,0.0,0.0,0.0,0.0,0.0,0.0,0.0,0.0,0.0,0.0,0.0,0.0,0.0,0.0,0.0,0.0,0.0,0.0,0.0,0.0,0.0,0.0,0.0,0.0,0.0,0.0,0.0,0.0,0.0,0.0,0.0,0.0,0.0,0.0,0.0,0.0,0.0,0.0,0.0,0.0,0.0,0.0,0.0,0.0,0.0,0.0,0.0,0.0,0.0,0.0,0.0,0.0,0.0,0.0,0.0,0.0,0.0,0.0,0.0,0.0,0.0,0.0,0.0,0.0,0.0,0.0,0.0,0.0,0.0,0.0,0.0,0.0,0.0,0.0,0.0,0.0,0.0,0.0,0.0,0.0,0.0,0.0,0.0,0.0,0.0,0.0,0.0,0.0,0.0,0.0,0.0,0.0,0.0,0.0,0.0,0.0,0.0,0.0,0.0,0.0,0.0,0.0,0.0,0.0,0.0,0.0,0.0,0.0,0.0,0.0,0.0,0.0,0.0,0.0,0.0,0.0,0.0,0.0,0.0,0.0,0.0,0.0,0.0,0.0,0.0,0.0,0.0,0.0,0.0,0.0,0.0,0.0,0.0,0.0,0.0,0.0,0.0,0.0,0.0,0.0,0.0,0.0,0.0,0.0,0.0,0.0,0.0,0.0,0.0,0.0,0.0,0.0,0.0,0.0,0.0,0.0,0.0,0.0,0.0,0.0,0.0,0.0,0.0,0.0,0.0,0.0,0.0,0.0,0.0,0.0,0.0,0.0,0.0,0.0,0.0,0.0,0.0,0.0,0.0,0.0,0.0,0.0,0.0,0.0,0.0,0.0,0.0,0.0,0.0,0.0,0.0,0.0,0.0,0.0,0.0,0.0,0.0,0.0,0.0,0.0,0.0,0.0,0.0,0.0,0.0,0.0,0.0,0.0,0.0,0.0,0.0,0.0,0.0,0.0,0.0,0.0,0.0,0.0,0.0,0.0,0.0,0.0,0.0,0.0,0.0,0.0,0.0,0.0,0.0,0.0,0.0,0.0,0.0,0.0,0.0,0.0,0.0,0.0,0.0,0.0,0.0,0.0,0.0,0.0,0.0,0.0,0.0,0.0,0.0,0.0,0.0,0.0,0.0,0.0,0.0,0.0,0.0,0.0,0.0,0.0,0.0,0.0,0.0,0.0,0.0,0.0,0.0,0.0,0.0,0.0,0.0,0.0,0.0,0.0,0.0,0.0,0.0,0.0,0.0,0.0,0.0,0.0,0.0,0.0,0.0,0.0,0.0,0.0,0.0,0.0,0.0,0.0,0.0,0.0,0.0,0.0,0.0,0.0,0.0,0.0,0.0,0.0,0.0,0.0,0.0,0.0,0.0,0.0,0.0,0.0,0.0,0.0,0.0,0.0,0.0,0.0,0.0,0.0,0.0,0.0,0.0,0.0,0.0,0.0,0.0,0.0,0.0,0.0,0.0,0.0,0.0,0.0,0.0,0.0,0.0,0.0,0.0,0.0,0.0,0.0,0.0,0.0,0.0,0.0,0.0,0.0,0.0,0.0,0.0,0.0,0.0,0.0,0.0,0.0,0.0,0.0,0.0,0.0,0.0,0.0,0.0,0.0,0.0,0.0,0.0,0.0,0.0,0.0,0.0,0.0,0.0,0.0,0.0,0.0,0.0,0.0,0.0,0.0,0.0,0.0,0.0,0.0,0.0,0.0,0.0,0.0,0.0,0.0,0.0,0.0,0.0,0.0,0.0,0.0,0.0,0.0,0.0,0.0,0.0,0.0,0.0,0.0,0.0,0.0,0.0,0.0,0.0,0.0,0.0,0.0,0.0,0.0,0.0,0.0,0.0,0.0,0.0,0.0,0.0,0.0,0.0,0.0,0.0,0.0,0.0,0.0,0.0,0.0,0.0,0.0,0.0,0.0,0.0,0.0,0.0,0.0,0.0,0.0,0.0,0.0,0.0,0.0,0.0,0.0,0.0,0.0,0.0,0.0,0.0,0.0,0.0,0.0,0.0,0.0,0.0,0.0,0.0,0.0,0.0,0.0,0.0,0.0,0.0,0.0,0.0,0.0,0.0,0.0,0.0,0.0,0.0,0.0,0.0,0.0,0.0,0.0,0.0,0.0,0.0,0.0,0.0,0.0,0.0,0.0,0.0,0.0,0.0,0.0,0.0,0.0,0.0,0.0,0.0,0.0,0.0,0.0,0.0,0.0,0.0,0.0,0.0,0.0,0.0,0.0,0.0,0.0,0.0,0.0,0.0,0.0,0.0,0.0,0.0,0.0,0.0,0.0,0.0,0.0,0.0,0.0,0.0,0.0,0.0,0.0,0.0,0.0,0.0,0.0,0.0,0.0,0.0,0.0,0.0,0.0,0.0,0.0,0.0,0.0,0.0,0.0,0.0,0.0,0.0,0.0,0.0,0.0,0.0,0.0,0.0,0.0,0.0,0.0,0.0,0.0,0.0,0.0,0.0,0.0,0.0,0.0,0.0,0.0,0.0,0.0,0.0,0.0,0.0,0.0,0.0,0.0,0.0,0.0,0.0,0.0,0.0,0.0,0.0,0.0,0.0,0.0,0.0,0.0,0.0,0.0,0.0,0.0,0.0,0.0,0.0,0.0,0.0,0.0,0.0,0.0,0.0,0.0,0.0,0.0,0.0,0.0,0.0,0.0,0.0,0.0,0.0,0.0,0.0,0.0,0.0,0.0,0.0,0.0,0.0,0.0,0.0,0.0,0.0,0.0,0.0,0.0,0.0,0.0,0.0,0.0,0.0,0.0,0.0,0.0,0.0,0.0,0.0,0.0,0.0,0.0,0.0,0.0,0.0,0.0,0.0,0.0,0.0,0.0,0.0,0.0,0.0,0.0,0.0,0.0,0.0,0.0,0.0,0.0,0.0,0.0,0.0,0.0,0.0,0.0,0.0,0.0,0.0,-1.8527,0.0,0.0,0.0,-1.8223,0.0,0.0,0.0,0.0,0.0,0.0,0.0,0.0,0.0,0.0,0.0,0.0,0.0,0.0,0.0,0.0,0.0,0.0,0.0,0.0,0.0,0.0,0.0,0.0,0.0,0.0,0.0,0.0,0.0,0.0,0.0,0.0,0.0,0.0,0.0,0.0,0.0,0.0,0.0,0.0,0.0,0.0,0.0,0.0,0.0,0.0,0.0,0.0,0.0,0.0,0.0,0.0,0.0,0.0,0.0,0.0,0.0,0.0,0.0,0.0,0.0,0.0,0.0,0.0,0.0,0.0,0.0,0.0,0.0,0.0,0.0,0.0,0.0,0.0,0.0,0.0,0.0,0.0,0.0,0.0,0.0,0.0,0.0,0.0,0.0,0.0,0.0,0.0,0.0,0.0,0.0,0.0,0.0,0.0,0.0,0.0,0.0,0.0,0.0,0.0,0.0,0.0,0.0,0.0,0.0,0.0,0.0,0.0,0.0,0.0,-1.8368,-1.7891,-1.8582,-1.8771,-1.8361,0.0,0.0,0.0,0.0,0.0,0.0,0.0,0.0,0.0,0.0,0.0,0.0,0.0,0.0,0.0,0.0,0.0,0.0,0.0,0.0,0.0,0.0,0.0,0.0,0.0,0.0,0.0,0.0,0.0,0.0,0.0,0.0,0.0,0.0,0.0,0.0,0.0,0.0,0.0,0.0,0.0,0.0,0.0,0.0,0.0,0.0,0.0,0.0,0.0,0.0,0.0,0.0,0.0,0.0,0.0,0.0,0.0,0.0,0.0,0.0,0.0,0.0,0.0,0.0,0.0,0.0,0.0,0.0,0.0,0.0,0.0,0.0,0.0,0.0,0.0,0.0,0.0,0.0,0.0,0.0,0.0,0.0,0.0,0.0,0.0,0.0,0.0,0.0,0.0,0.0,0.0,0.0,0.0,0.0,0.0,0.0,0.0,0.0,0.0,0.0,0.0,0.0,0.0,0.0,0.0,0.0,0.0,0.0,0.0,0.0,0.0,0.0,-1.8744,-1.9089,-1.8766,0.0,0.0,0.0,0.0,0.0,0.0,0.0,0.0,0.0,0.0,0.0,0.0,0.0,0.0,0.0,0.0,0.0,0.0,0.0,0.0,0.0,0.0,0.0,0.0,0.0,0.0,0.0,0.0,0.0,0.0,0.0,0.0,0.0,0.0,0.0,0.0,0.0,0.0,0.0,0.0,0.0,0.0,0.0,0.0,0.0,0.0,0.0,0.0,0.0,0.0,0.0,0.0,0.0,0.0,0.0,0.0,0.0,0.0,0.0,0.0,0.0,0.0,0.0,0.0,0.0,0.0,0.0,0.0,0.0,0.0,0.0,0.0,0.0,0.0,0.0,0.0,0.0,0.0,0.0,0.0,0.0,0.0,0.0,0.0,0.0,0.0,0.0,0.0,0.0,0.0,0.0,0.0,0.0,0.0,0.0,0.0,0.0,0.0,0.0,0.0,0.0,0.0,0.0,0.0,0.0,0.0,0.0,0.0,0.0,0.0,-1.8317,-1.8082,-1.8682,0.0,-1.9203,0.0,0.0,0.0,0.0,0.0,0.0,0.0,0.0,0.0,0.0,0.0,0.0,0.0,0.0,0.0,0.0,0.0,0.0,0.0,0.0,0.0,0.0,0.0,0.0,0.0,0.0,0.0,0.0,0.0,0.0,0.0,0.0,0.0,0.0,0.0,0.0,0.0,0.0,0.0,0.0,0.0,0.0,0.0,0.0,0.0,0.0,0.0,0.0,0.0,0.0,0.0,0.0,0.0,0.0,0.0,0.0,0.0,0.0,0.0,0.0,0.0,0.0,0.0,0.0,0.0,0.0,0.0,0.0,0.0,0.0,0.0,0.0,0.0,0.0,0.0,0.0,0.0,0.0,0.0,0.0,0.0,0.0,0.0,0.0,0.0,0.0,0.0,0.0,0.0,0.0,0.0,0.0,0.0,0.0,0.0,0.0,0.0,0.0,0.0,0.0,0.0,0.0,0.0,0.0,0.0,0.0,0.0,0.0,0.0,0.0,-1.8235,-1.8282,-1.8635,-1.886,0.0,0.0,0.0,0.0,0.0,0.0,0.0,0.0,0.0,0.0,0.0,0.0,0.0,0.0,0.0,0.0,0.0,0.0,0.0,0.0,0.0,0.0,0.0,0.0,0.0,0.0,0.0,0.0,0.0,0.0,0.0,0.0,0.0,0.0,0.0,0.0,0.0,0.0,0.0,0.0,0.0,0.0,0.0,0.0,0.0,0.0,0.0,0.0,0.0,0.0,0.0,0.0,0.0,0.0,0.0,0.0,0.0,0.0,0.0,0.0,0.0,0.0,0.0,0.0,0.0,0.0,0.0,0.0,0.0,0.0,0.0,0.0,0.0,0.0,0.0,0.0,0.0,0.0,0.0,0.0,0.0,0.0,0.0,0.0,0.0,0.0,0.0,0.0,0.0,0.0,0.0,0.0,0.0,0.0,0.0,0.0,0.0,0.0,0.0,0.0,0.0,0.0,0.0,0.0,0.0,0.0,0.0,0.0,0.0,0.0,-1.8225,-1.8469,-1.8714,-1.8807,-1.8883,-1.8883,0.0,0.0,0.0,0.0,0.0,0.0,0.0,0.0,0.0,0.0,0.0,0.0,0.0,0.0,0.0,0.0,0.0,0.0,0.0,0.0,0.0,0.0,0.0,0.0,0.0,0.0,0.0,0.0,0.0,0.0,0.0,0.0,0.0,0.0,0.0,0.0,0.0,0.0,0.0,0.0,0.0,0.0,0.0,0.0,0.0,0.0,0.0,0.0,0.0,0.0,0.0,0.0,0.0,0.0,0.0,0.0,0.0,0.0,0.0,0.0,0.0,0.0,0.0,0.0,0.0,0.0,0.0,0.0,0.0,0.0,0.0,0.0,0.0,0.0,0.0,0.0,0.0,0.0,0.0,0.0,0.0,0.0,0.0,0.0,0.0,0.0,0.0,0.0,0.0,0.0,0.0,0.0,0.0,0.0,0.0,0.0,0.0,0.0,0.0,0.0,0.0,0.0,0.0,0.0,0.0,0.0,0.0,0.0,-1.8341,-1.8751,-1.9142,-1.9493,-1.9354,-1.9257,0.0,0.0,0.0,0.0,0.0,0.0,0.0,0.0,0.0,0.0,0.0,0.0,0.0,0.0,0.0,0.0,0.0,0.0,0.0,0.0,0.0,0.0,0.0,0.0,0.0,0.0,0.0,0.0,0.0,0.0,0.0,0.0,0.0,0.0,0.0,0.0,0.0,0.0,0.0,0.0,0.0,0.0,0.0,0.0,0.0,0.0,0.0,0.0,0.0,0.0,0.0,0.0,0.0,0.0,0.0,0.0,0.0,0.0,0.0,0.0,0.0,0.0,0.0,0.0,0.0,0.0,0.0,0.0,0.0,0.0,0.0,0.0,0.0,0.0,0.0,0.0,0.0,0.0,0.0,0.0,0.0,0.0,0.0,0.0,0.0,0.0,0.0,0.0,0.0,0.0,0.0,0.0,0.0,0.0,0.0,0.0,0.0,0.0,0.0,0.0,0.0,0.0,0.0,0.0,0.0,0.0,0.0,0.0,0.0,-1.8193,-1.8857,-1.8988,-1.8616,-1.9054,-1.8926,0.0,0.0,0.0,0.0,0.0,0.0,0.0,0.0,0.0,0.0,0.0,0.0,0.0,0.0,0.0,0.0,0.0,0.0,0.0,0.0,0.0,0.0,0.0,0.0,0.0,0.0,0.0,0.0,0.0,0.0,0.0,0.0,0.0,0.0,0.0,0.0,0.0,0.0,0.0,0.0,0.0,0.0,0.0,0.0,0.0,0.0,0.0,0.0,0.0,0.0,0.0,0.0,0.0,0.0,0.0,0.0,0.0,0.0,0.0,0.0,0.0,0.0,0.0,0.0,0.0,0.0,0.0,0.0,0.0,0.0,0.0,0.0,0.0,0.0,0.0,0.0,0.0,0.0,0.0,0.0,0.0,0.0,0.0,0.0,0.0,0.0,0.0,0.0,0.0,0.0,0.0,0.0,0.0,0.0,0.0,0.0,0.0,0.0,0.0,0.0,0.0,0.0,0.0,0.0,0.0,0.0,0.0,0.0,0.0,-1.8188,-1.8448,-1.8307,-1.7761,-1.8609,-1.8596,0.0,0.0,0.0,0.0,0.0,0.0,0.0,0.0,0.0,0.0,0.0,0.0,0.0,0.0,0.0,0.0,0.0,0.0,0.0,0.0,0.0,0.0,0.0,0.0,0.0,0.0,0.0,0.0,0.0,0.0,0.0,0.0,0.0,0.0,0.0,0.0,0.0,0.0,0.0,0.0,0.0,0.0,0.0,0.0,0.0,0.0,0.0,0.0,0.0,0.0,0.0,0.0,0.0,0.0,0.0,0.0,0.0,0.0,0.0,0.0,0.0,0.0,0.0,0.0,0.0,0.0,0.0,0.0,0.0,0.0,0.0,0.0,0.0,0.0,0.0,0.0,0.0,0.0,0.0,0.0,0.0,0.0,0.0,0.0,0.0,0.0,0.0,0.0,0.0,0.0,0.0,0.0,0.0,0.0,0.0,0.0,0.0,0.0,0.0,0.0,0.0,0.0,0.0,0.0,0.0,0.0,0.0,0.0,-1.8597,-1.8349,-1.7569,-1.7186,-1.7122,-1.8067,-1.8391,0.0,0.0,0.0,0.0,0.0,0.0,0.0,0.0,0.0,0.0,0.0,0.0,0.0,0.0,0.0,0.0,0.0,0.0,0.0,0.0,0.0,0.0,0.0,0.0,0.0,0.0,0.0,0.0,0.0,0.0,0.0,0.0,0.0,0.0,0.0,0.0,0.0,0.0,0.0,0.0,0.0,0.0,0.0,0.0,0.0,0.0,0.0,0.0,0.0,0.0,0.0,0.0,0.0,0.0,0.0,0.0,0.0,0.0,0.0,0.0,0.0,0.0,0.0,0.0,0.0,0.0,0.0,0.0,0.0,0.0,0.0,0.0,0.0,0.0,0.0,0.0,0.0,0.0,0.0,0.0,0.0,0.0,0.0,0.0,0.0,0.0,0.0,0.0,0.0,0.0,0.0,0.0,0.0,0.0,0.0,0.0,0.0,0.0,0.0,0.0,0.0,0.0,0.0,0.0,0.0,0.0,0.0,0.0,0.0,-1.7852,-1.7594,-1.7054,-1.6305,-1.7669,-1.8024,0.0,0.0,0.0,0.0,0.0,0.0,0.0,0.0,0.0,0.0,0.0,0.0,0.0,0.0,0.0,0.0,0.0,0.0,0.0,0.0,0.0,0.0,0.0,0.0,0.0,0.0,0.0,0.0,0.0,0.0,0.0,0.0,0.0,0.0,0.0,0.0,0.0,0.0,0.0,0.0,0.0,0.0,0.0,0.0,0.0,0.0,0.0,0.0,0.0,0.0,0.0,0.0,0.0,0.0,0.0,0.0,0.0,0.0,0.0,0.0,0.0,0.0,0.0,0.0,0.0,0.0,0.0,0.0,0.0,0.0,0.0,0.0,0.0,0.0,0.0,0.0,0.0,0.0,0.0,0.0,0.0,0.0,0.0,0.0,0.0,0.0,0.0,0.0,0.0,0.0,0.0,0.0,0.0,0.0,0.0,0.0,0.0,0.0,0.0,0.0,0.0,0.0,0.0,0.0,0.0,0.0,0.0,0.0,0.0,-1.7263,-1.6959,-1.6411,-1.5671,-1.6795,-1.7111,-1.6412,0.0,0.0,0.0,0.0,0.0,0.0,0.0,0.0,0.0,0.0,0.0,0.0,0.0,0.0,0.0,0.0,0.0,0.0,0.0,0.0,0.0,0.0,0.0,0.0,0.0,0.0,0.0,0.0,0.0,0.0,0.0,0.0,0.0,0.0,0.0,0.0,0.0,0.0,0.0,0.0,0.0,0.0,0.0,0.0,0.0,0.0,0.0,0.0,0.0,0.0,0.0,0.0,0.0,0.0,0.0,0.0,0.0,0.0,0.0,0.0,0.0,0.0,0.0,0.0,0.0,0.0,0.0,0.0,0.0,0.0,0.0,0.0,0.0,0.0,0.0,0.0,0.0,0.0,0.0,0.0,0.0,0.0,0.0,0.0,0.0,0.0,0.0,0.0,0.0,0.0,0.0,0.0,0.0,0.0,0.0,0.0,0.0,0.0,0.0,0.0,0.0,0.0,0.0,0.0,0.0,0.0,0.0,0.0,-1.6775,-1.5922,-1.5481,-1.545,-1.5758,-1.5856,0.0,0.0,0.0,0.0,0.0,0.0,0.0,0.0,0.0,0.0,0.0,0.0,0.0,0.0,0.0,0.0,0.0,0.0,0.0,0.0,0.0,0.0,0.0,0.0,0.0,0.0,0.0,0.0,0.0,0.0,0.0,0.0,0.0,0.0,0.0,0.0,0.0,0.0,0.0,0.0,0.0,0.0,0.0,0.0,0.0,0.0,0.0,0.0,0.0,0.0,0.0,0.0,0.0,0.0,0.0,0.0,0.0,0.0,0.0,0.0,0.0,0.0,0.0,0.0,0.0,0.0,0.0,0.0,0.0,0.0,0.0,0.0,0.0,0.0,0.0,0.0,0.0,0.0,0.0,0.0,0.0,0.0,0.0,0.0,0.0,0.0,0.0,0.0,0.0,0.0,0.0,0.0,0.0,0.0,0.0,0.0,0.0,0.0,0.0,0.0,0.0,0.0,0.0,0.0,0.0,0.0,0.0,0.0,0.0,-1.7768,-1.6843,-1.6128,-1.5738,-1.6373,-1.6459,0.0,0.0,0.0,0.0,0.0,0.0,0.0,0.0,0.0,0.0,0.0,0.0,0.0,0.0,0.0,0.0,0.0,0.0,0.0,0.0,0.0,0.0,0.0,0.0,0.0,0.0,0.0,0.0,0.0,0.0,0.0,0.0,0.0,0.0,0.0,0.0,0.0,0.0,0.0,0.0,0.0,0.0,0.0,0.0,0.0,0.0,0.0,0.0,0.0,0.0,0.0,0.0,0.0,0.0,0.0,0.0,0.0,0.0,0.0,0.0,0.0,0.0,0.0,0.0,0.0,0.0,0.0,0.0,0.0,0.0,0.0,0.0,0.0,0.0,0.0,0.0,0.0,0.0,0.0,0.0,0.0,0.0,0.0,0.0,0.0,0.0,0.0,0.0,0.0,0.0,0.0,0.0,0.0,0.0,0.0,0.0,0.0,0.0,0.0,0.0,0.0,0.0,0.0,0.0,0.0,0.0,0.0,0.0,-1.7896,-1.8112,-1.7707,-1.7181,-1.658,-1.6553,-1.6253,0.0,0.0,0.0,0.0,0.0,0.0,0.0,0.0,0.0,0.0,0.0,0.0,0.0,0.0,0.0,0.0,0.0,0.0,0.0,0.0,0.0,0.0,0.0,0.0,0.0,0.0,0.0,0.0,0.0,0.0,0.0,0.0,0.0,0.0,0.0,0.0,0.0,0.0,0.0,0.0,0.0,0.0,0.0,0.0,0.0,0.0,0.0,0.0,0.0,0.0,0.0,0.0,0.0,0.0,0.0,0.0,0.0,0.0,0.0,0.0,0.0,0.0,0.0,0.0,0.0,0.0,0.0,0.0,0.0,0.0,0.0,0.0,0.0,0.0,0.0,0.0,0.0,0.0,0.0,0.0,0.0,0.0,0.0,0.0,0.0,0.0,0.0,0.0,0.0,0.0,0.0,0.0,0.0,0.0,0.0,0.0,0.0,0.0,0.0,0.0,0.0,0.0,0.0,0.0,0.0,0.0,0.0,0.0,-1.7515,-1.8022,-1.8357,-1.8223,-1.7649,-1.6544,-1.5784,0.0,0.0,0.0,0.0,0.0,0.0,0.0,0.0,0.0,0.0,0.0,0.0,0.0,0.0,0.0,0.0,0.0,0.0,0.0,0.0,0.0,0.0,0.0,0.0,0.0,0.0,0.0,0.0,0.0,0.0,0.0,0.0,0.0,0.0,0.0,0.0,0.0,0.0,0.0,0.0,0.0,0.0,0.0,0.0,0.0,0.0,0.0,0.0,0.0,0.0,0.0,0.0,0.0,0.0,0.0,0.0,0.0,0.0,0.0,0.0,0.0,0.0,0.0,0.0,0.0,0.0,0.0,0.0,0.0,0.0,0.0,0.0,0.0,0.0,0.0,0.0,0.0,0.0,0.0,0.0,0.0,0.0,0.0,0.0,0.0,0.0,0.0,0.0,0.0,0.0,0.0,0.0,0.0,0.0,0.0,0.0,0.0,0.0,0.0,0.0,0.0,0.0,0.0,0.0,0.0,0.0,0.0,0.0,-1.8009,-1.8384,-1.8464,-1.8313,-1.792,-1.7252,-1.6527,0.0,0.0,0.0,0.0,0.0,0.0,0.0,0.0,0.0,0.0,0.0,0.0,0.0,0.0,0.0,0.0,0.0,0.0,0.0,0.0,0.0,0.0,0.0,0.0,0.0,0.0,0.0,0.0,0.0,0.0,0.0,0.0,0.0,0.0,0.0,0.0,0.0,0.0,0.0,0.0,0.0,0.0,0.0,0.0,0.0,0.0,0.0,0.0,-1.9347,0.0,0.0,0.0,0.0,0.0,0.0,0.0,0.0,0.0,0.0,0.0,0.0,0.0,0.0,0.0,0.0,0.0,0.0,0.0,0.0,0.0,0.0,0.0,0.0,0.0,0.0,0.0,0.0,0.0,0.0,0.0,0.0,0.0,0.0,0.0,0.0,0.0,0.0,0.0,0.0,0.0,0.0,0.0,0.0,0.0,0.0,0.0,0.0,0.0,0.0,0.0,0.0,0.0,0.0,0.0,0.0,0.0,0.0,0.0,-1.8086,-1.827,-1.8401,-1.8316,-1.7991,-1.7482,-1.678,0.0,0.0,0.0,0.0,0.0,0.0,0.0,0.0,0.0,0.0,0.0,0.0,0.0,0.0,0.0,0.0,0.0,0.0,0.0,0.0,0.0,0.0,0.0,0.0,0.0,0.0,0.0,0.0,0.0,0.0,0.0,0.0,0.0,0.0,0.0,0.0,0.0,0.0,0.0,0.0,0.0,0.0,0.0,0.0,0.0,0.0,0.0,0.0,0.0,0.0,0.0,0.0,0.0,0.0,0.0,0.0,0.0,0.0,0.0,0.0,0.0,0.0,0.0,0.0,0.0,0.0,0.0,0.0,0.0,0.0,0.0,0.0,0.0,0.0,0.0,0.0,0.0,0.0,0.0,0.0,0.0,0.0,0.0,0.0,0.0,0.0,0.0,0.0,0.0,0.0,0.0,0.0,0.0,0.0,0.0,0.0,0.0,0.0,0.0,0.0,0.0,0.0,0.0,0.0,0.0,0.0,0.0,-1.7637,-1.8072,-1.8056,-1.8348,-1.8331,-1.8027,-1.756,-1.6882,-1.5922,0.0,0.0,0.0,0.0,0.0,0.0,0.0,0.0,0.0,0.0,0.0,0.0,0.0,0.0,0.0,0.0,0.0,0.0,0.0,0.0,0.0,0.0,0.0,0.0,0.0,0.0,0.0,0.0,0.0,0.0,0.0,0.0,0.0,0.0,0.0,0.0,0.0,0.0,-1.8239,-1.8005,0.0,0.0,0.0,0.0,0.0,0.0,0.0,0.0,-1.9207,0.0,0.0,0.0,0.0,0.0,0.0,0.0,0.0,0.0,0.0,0.0,0.0,0.0,0.0,0.0,0.0,0.0,0.0,0.0,0.0,0.0,0.0,0.0,0.0,0.0,0.0,0.0,0.0,0.0,0.0,0.0,0.0,0.0,0.0,0.0,0.0,0.0,0.0,0.0,0.0,0.0,0.0,0.0,0.0,0.0,0.0,0.0,0.0,0.0,0.0,0.0,0.0,0.0,0.0,0.0,0.0,-1.7421,-1.8046,-1.8351,-1.8335,-1.8817,-1.8723,-1.804,-1.7919,-1.7259,-1.5948,0.0,0.0,0.0,0.0,0.0,0.0,0.0,0.0,0.0,0.0,0.0,0.0,0.0,0.0,0.0,0.0,0.0,0.0,0.0,0.0,0.0,0.0,0.0,0.0,0.0,0.0,0.0,0.0,0.0,0.0,0.0,0.0,0.0,0.0,0.0,0.0,0.0,0.0,0.0,-1.8392,-1.8392,0.0,0.0,0.0,0.0,0.0,0.0,0.0,0.0,-1.8441,0.0,0.0,0.0,0.0,0.0,0.0,0.0,0.0,0.0,0.0,0.0,0.0,0.0,0.0,0.0,0.0,0.0,0.0,0.0,0.0,0.0,0.0,0.0,0.0,0.0,0.0,0.0,0.0,0.0,0.0,0.0,0.0,0.0,0.0,0.0,0.0,0.0,0.0,0.0,0.0,0.0,0.0,0.0,0.0,0.0,0.0,0.0,0.0,0.0,0.0,0.0,0.0,0.0,0.0,0.0,-1.7324,-1.7856,-1.8129,-1.8141,-1.8525,-1.8427,-1.7779,-1.7755,-1.7224,0.0,0.0,0.0,0.0,0.0,0.0,0.0,0.0,0.0,0.0,0.0,0.0,0.0,0.0,0.0,0.0,0.0,0.0,0.0,0.0,0.0,0.0,0.0,0.0,0.0,0.0,0.0,0.0,0.0,0.0,0.0,0.0,0.0,0.0,0.0,0.0,0.0,0.0,0.0,0.0,-1.8653,-1.8519,-1.9062,0.0,0.0,0.0,0.0,0.0,0.0,-1.8956,-1.8527,0.0,0.0,0.0,0.0,0.0,0.0,0.0,0.0,0.0,0.0,0.0,0.0,0.0,0.0,0.0,0.0,0.0,0.0,0.0,0.0,0.0,0.0,0.0,0.0,0.0,0.0,0.0,0.0,0.0,0.0,0.0,0.0,0.0,0.0,0.0,0.0,0.0,0.0,0.0,0.0,0.0,0.0,0.0,0.0,0.0,0.0,0.0,0.0,0.0,0.0,0.0,0.0,0.0,0.0,0.0,-1.7092,-1.7689,-1.7992,-1.7992,-1.8227,-1.8143,-1.7689,-1.7617,-1.7207,0.0,0.0,0.0,0.0,0.0,0.0,0.0,0.0,0.0,0.0,0.0,0.0,0.0,0.0,0.0,0.0,0.0,0.0,0.0,0.0,0.0,0.0,0.0,0.0,0.0,0.0,0.0,0.0,0.0,0.0,0.0,0.0,0.0,0.0,0.0,0.0,0.0,0.0,0.0,0.0,0.0,-1.8308,-1.8573,-1.929,0.0,0.0,0.0,0.0,-1.8707,-1.8819,0.0,0.0,0.0,0.0,0.0,0.0,0.0,0.0,0.0,0.0,0.0,0.0,0.0,0.0,0.0,0.0,0.0,0.0,0.0,0.0,0.0,0.0,0.0,0.0,0.0,0.0,0.0,0.0,0.0,0.0,0.0,0.0,0.0,0.0,0.0,0.0,0.0,0.0,0.0,0.0,0.0,0.0,0.0,0.0,0.0,0.0,0.0,0.0,0.0,0.0,0.0,0.0,0.0,0.0,0.0,0.0,-1.7092,-1.7883,-1.8251,-1.8263,-1.8505,-1.8493,-1.8203,-1.7962,-1.7484,0.0,0.0,0.0,0.0,0.0,0.0,0.0,0.0,0.0,0.0,0.0,0.0,0.0,0.0,0.0,0.0,0.0,0.0,0.0,0.0,0.0,0.0,0.0,0.0,0.0,0.0,0.0,0.0,0.0,0.0,0.0,0.0,0.0,0.0,0.0,0.0,0.0,0.0,0.0,0.0,0.0,-1.7335,-1.8429,-1.9243,-1.999,0.0,0.0,-1.9751,-1.9572,-1.8369,0.0,0.0,0.0,0.0,0.0,0.0,0.0,0.0,0.0,0.0,0.0,0.0,0.0,0.0,0.0,0.0,0.0,0.0,0.0,0.0,0.0,0.0,0.0,0.0,0.0,0.0,0.0,0.0,0.0,0.0,0.0,0.0,0.0,0.0,0.0,0.0,0.0,0.0,0.0,0.0,0.0,0.0,0.0,0.0,0.0,0.0,0.0,0.0,0.0,0.0,0.0,0.0,0.0,0.0,0.0,-1.7008,-1.7539,-1.8209,-1.8517,-1.8517,-1.8657,-1.8565,-1.83,-1.8179,-1.7732,0.0,0.0,0.0,0.0,0.0,0.0,0.0,0.0,0.0,0.0,0.0,0.0,0.0,0.0,0.0,0.0,0.0,0.0,0.0,0.0,0.0,0.0,0.0,0.0,0.0,0.0,0.0,0.0,0.0,0.0,0.0,0.0,0.0,0.0,0.0,0.0,0.0,0.0,0.0,0.0,0.0,0.0,-1.8015,-1.9129,0.0,0.0,0.0,-1.9803,-1.9427,0.0,0.0,0.0,0.0,0.0,0.0,0.0,0.0,0.0,0.0,0.0,0.0,0.0,0.0,0.0,0.0,0.0,0.0,0.0,0.0,0.0,0.0,0.0,0.0,0.0,0.0,0.0,0.0,0.0,0.0,0.0,0.0,0.0,0.0,0.0,0.0,0.0,0.0,0.0,0.0,0.0,0.0,0.0,0.0,0.0,0.0,0.0,0.0,0.0,0.0,0.0,0.0,0.0,0.0,0.0,0.0,0.0,-1.8004,-1.8475,-1.8778,-1.8899,-1.8746,-1.8681,-1.8589,-1.8396,0.0,0.0,0.0,0.0,0.0,0.0,0.0,0.0,0.0,0.0,0.0,0.0,0.0,0.0,0.0,0.0,0.0,0.0,0.0,0.0,0.0,0.0,0.0,0.0,0.0,0.0,0.0,-1.2666,0.0,0.0,0.0,0.0,0.0,0.0,0.0,0.0,0.0,0.0,0.0,0.0,0.0,0.0,-1.845,-1.8117,-1.9195,-1.9946,0.0,0.0,-1.9903,-1.9279,-1.9337,-1.8996,0.0,0.0,0.0,0.0,0.0,0.0,0.0,0.0,0.0,0.0,0.0,0.0,0.0,0.0,0.0,0.0,0.0,0.0,0.0,0.0,0.0,0.0,0.0,0.0,0.0,0.0,0.0,0.0,0.0,0.0,0.0,0.0,0.0,0.0,0.0,0.0,0.0,0.0,0.0,0.0,0.0,0.0,0.0,0.0,0.0,0.0,0.0,0.0,0.0,0.0,0.0,0.0,0.0,0.0,-1.772,-1.8282,-1.8572,-1.8947,-1.9406,-1.8971,-1.8947,-1.9394,-1.8705,-1.8384,0.0,0.0,0.0,0.0,0.0,0.0,0.0,0.0,0.0,0.0,0.0,0.0,0.0,0.0,0.0,0.0,0.0,0.0,0.0,0.0,0.0,0.0,0.0,0.0,0.0,0.0,0.0,0.0,0.0,0.0,0.0,0.0,0.0,0.0,0.0,0.0,0.0,0.0,0.0,0.0,0.0,-1.8681,-1.9229,-1.9593,-1.9918,0.0,-2.0154,-1.9996,-1.9477,-1.9396,-1.907,-1.8103,0.0,0.0,0.0,0.0,0.0,0.0,0.0,0.0,0.0,0.0,0.0,0.0,0.0,0.0,0.0,0.0,0.0,0.0,0.0,0.0,0.0,0.0,0.0,0.0,0.0,0.0,0.0,0.0,0.0,0.0,0.0,0.0,0.0,0.0,0.0,0.0,0.0,0.0,0.0,0.0,0.0,0.0,0.0,0.0,0.0,0.0,0.0,0.0,0.0,0.0,0.0,0.0,0.0,-1.8167,-1.8529,-1.8826,-1.9128,-1.9467,-1.8983,-1.9056,-1.9745,-1.8951,-1.8693,0.0,0.0,0.0,0.0,0.0,0.0,0.0,0.0,0.0,0.0,0.0,0.0,0.0,0.0,0.0,0.0,0.0,0.0,0.0,0.0,0.0,0.0,0.0,0.0,0.0,0.0,0.0,0.0,-1.5431,-1.5639,-1.5661,0.0,0.0,0.0,0.0,0.0,0.0,0.0,0.0,0.0,0.0,-1.8971,-1.9575,-1.988,0.0,0.0,-2.021,-2.013,-1.9933,-1.9893,-1.9733,-1.9183,-1.8971,0.0,0.0,0.0,0.0,0.0,0.0,0.0,0.0,0.0,0.0,0.0,0.0,0.0,0.0,0.0,0.0,0.0,0.0,0.0,0.0,0.0,0.0,0.0,0.0,0.0,0.0,0.0,0.0,0.0,0.0,0.0,0.0,0.0,0.0,0.0,0.0,0.0,0.0,0.0,0.0,0.0,0.0,0.0,0.0,0.0,0.0,0.0,0.0,0.0,0.0,0.0,0.0,-1.8662,-1.8947,-1.9096,-1.9394,-1.9733,-1.9277,-1.9314,-1.9845,-1.9338,-1.9096,0.0,0.0,0.0,0.0,0.0,0.0,0.0,0.0,0.0,0.0,0.0,0.0,0.0,0.0,0.0,0.0,0.0,0.0,0.0,0.0,0.0,0.0,0.0,0.0,0.0,0.0,0.0,0.0,-1.6296,-1.6523,-1.6248,0.0,0.0,0.0,0.0,0.0,0.0,0.0,0.0,0.0,0.0,-1.9599,-2.0013,-2.0307,-2.0464,-2.0464,-2.0464,-2.0437,-2.0344,-2.0361,-2.0237,-1.9973,0.0,0.0,0.0,0.0,0.0,0.0,0.0,0.0,0.0,0.0,0.0,0.0,0.0,0.0,0.0,0.0,0.0,0.0,0.0,0.0,0.0,0.0,0.0,0.0,0.0,0.0,0.0,-1.6296,0.0,0.0,-1.6246,0.0,0.0,0.0,0.0,0.0,0.0,0.0,0.0,0.0,0.0,0.0,0.0,0.0,0.0,0.0,0.0,0.0,0.0,0.0,0.0,0.0,0.0,-1.9149,-1.9434,-1.9381,-1.9646,-2.0151,-2.0002,-1.9802,-1.9872,-1.9869,-1.9736,-1.9491,0.0,0.0,0.0,0.0,0.0,0.0,0.0,0.0,0.0,0.0,0.0,0.0,0.0,0.0,0.0,0.0,0.0,0.0,0.0,0.0,0.0,0.0,0.0,0.0,0.0,0.0,-1.5541,-1.6498,-1.7192,0.0,0.0,0.0,0.0,0.0,0.0,0.0,0.0,0.0,-1.9693,-2.0267,-2.0641,-2.0686,-2.0909,-2.1056,-2.1069,-2.1069,-2.0989,-2.0739,-2.0699,-2.0561,0.0,0.0,0.0,0.0,0.0,0.0,0.0,0.0,0.0,0.0,0.0,0.0,0.0,0.0,0.0,0.0,0.0,0.0,0.0,0.0,0.0,0.0,0.0,0.0,0.0,0.0,0.0,-1.4536,-1.469,0.0,0.0,0.0,0.0,0.0,0.0,0.0,0.0,0.0,0.0,0.0,-1.4345,-1.3639,0.0,0.0,0.0,0.0,0.0,0.0,0.0,0.0,0.0,0.0,0.0,0.0,-1.712,-1.8139,-1.7237,-1.695,-1.7426,-1.7196,-1.7675,-1.8984,-1.8684,-1.8924,-1.9748,0.0,0.0,0.0,0.0,0.0,0.0,0.0,0.0,0.0,0.0,0.0,0.0,0.0,0.0,0.0,0.0,0.0,0.0,0.0,0.0,0.0,0.0,0.0,0.0,0.0,-1.699,0.0,0.0,0.0,0.0,0.0,0.0,0.0,0.0,0.0,0.0,-1.9145,-1.972,-2.0307,-2.0561,-2.0779,-2.0935,-2.1042,-2.1109,0.0,0.0,0.0,0.0,0.0,0.0,0.0,0.0,0.0,0.0,0.0,0.0,0.0,0.0,-1.9105,-1.833,-1.821,-1.8103,-1.7769,0.0,0.0,0.0,0.0,0.0,0.0,0.0,0.0,0.0,0.0,0.0,0.0,0.0,0.0,-1.3942,-1.41,-1.4215,0.0,0.0,0.0,0.0,0.0,0.0,0.0,0.0,-1.2455,-1.2655,-1.3537,-1.2925,-1.265,-1.2696,-1.2467,-1.3195,0.0,0.0,0.0,0.0,0.0,0.0,0.0,0.0,-1.6044,-1.6981,-1.6078,-1.5768,-1.6187,-1.6022,-1.6538,-1.7725,-1.7272,-1.7467,-1.8406,-1.8006,-1.7784,0.0,0.0,0.0,0.0,0.0,0.0,0.0,0.0,0.0,0.0,0.0,0.0,0.0,0.0,0.0,0.0,0.0,0.0,0.0,0.0,0.0,0.0,0.0,-1.8442,0.0,0.0,0.0,0.0,0.0,0.0,0.0,0.0,0.0,-1.9423,-1.98,-2.0321,-2.094,-2.1007,-2.1114,-2.1376,0.0,0.0,0.0,0.0,0.0,0.0,0.0,-2.1515,-2.1296,-2.1176,-2.1082,-2.1034,-2.0735,-2.0575,-2.0668,0.0,0.0,-1.9252,-1.9092,-1.9011,-1.8689,-1.8609,-1.8544,-1.8291,-1.8277,-1.8214,0.0,0.0,0.0,0.0,-1.4345,0.0,0.0,0.0,-1.4313,-1.429,0.0,-1.4563,0.0,0.0,0.0,0.0,-1.2609,-1.2836,0.0,0.0,-1.1398,-1.1402,-1.1438,-1.1451,-1.1491,-1.1613,-1.137,-1.2018,-1.3362,-1.273,0.0,0.0,0.0,0.0,0.0,0.0,-1.5886,-1.5957,-1.5851,-1.6045,-1.6388,-1.6407,-1.6351,-1.6147,-1.5838,-1.5737,-1.5734,-1.5581,-1.5179,-1.4786,-1.4782,0.0,0.0,0.0,0.0,0.0,0.0,0.0,0.0,0.0,0.0,0.0,0.0,0.0,0.0,0.0,0.0,0.0,0.0,0.0,0.0,-1.8538,0.0,0.0,0.0,0.0,0.0,0.0,0.0,0.0,0.0,-2.0922,-2.0344,-2.0548,-2.0953,-2.1515,0.0,0.0,0.0,0.0,-2.1977,-2.1964,-2.201,-2.201,-2.201,-2.1783,-2.1622,-2.1628,0.0,0.0,-2.1542,-2.1323,-2.1229,-2.1542,-2.1114,-2.0615,-2.0199,-2.011,-2.0064,-1.9826,-1.9746,-1.9663,-1.9381,-1.8944,-1.8873,-1.1915,0.0,0.0,0.0,0.0,-1.1985,-1.2007,-1.2131,-1.1985,-1.2067,-1.2292,-1.2379,0.0,0.0,0.0,0.0,0.0,0.0,-1.1727,-1.1491,-1.164,-1.1671,-1.1708,-1.1853,-1.1928,-1.1925,-1.1735,-1.184,-1.2265,-1.1988,-1.3169,-1.5726,0.0,0.0,0.0,0.0,-1.372,-1.4655,-1.3757,-1.3311,-1.3529,-1.3529,-1.3987,-1.4968,-1.5839,-1.6244,-1.6059,-1.5899,-1.564,-1.5379,-1.5114,0.0,0.0,0.0,0.0,0.0,0.0,0.0,0.0,0.0,0.0,0.0,0.0,0.0,0.0,0.0,0.0,0.0,0.0,0.0,-1.8482,-1.8827,-1.8982,0.0,0.0,0.0,0.0,0.0,0.0,0.0,0.0,0.0,-2.151,-2.155,-2.1703,0.0,0.0,-2.193,-2.201,-2.2024,-2.2024,-2.2024,-2.2024,0.0,-2.2024,-2.2084,-2.2098,-2.193,-2.179,-2.1764,-2.1877,-2.179,-2.1796,-2.1844,-2.1596,-2.1014,-1.996,-1.9978,-2.015,-2.012,-2.0077,-1.9719,-1.8772,-1.8456,-1.7889,-1.1723,-1.1547,-1.1396,-1.1307,-1.1288,-1.1191,-1.1192,-1.1193,-1.1138,-1.1192,-1.1336,-1.1397,-1.1477,-1.1584,-1.1579,0.0,0.0,0.0,-1.1647,-1.1803,-1.1945,-1.2013,-1.202,-1.2108,-1.222,-1.2223,-1.2026,-1.1952,-1.2013,-1.1864,-1.2692,-1.4451,0.0,-1.3691,-1.4873,-1.3175,-1.2684,-1.3499,-1.2721,-1.2284,-1.2372,-1.2372,-1.2796,-1.3597,-1.4466,-1.4802,-1.4582,-1.4511,-1.4333,-1.4115,-1.3868,-1.3584,0.0,0.0,0.0,0.0,0.0,0.0,0.0,0.0,0.0,0.0,0.0,-1.4462,-1.4858,0.0,0.0,0.0,-1.597,-1.694,-1.8512,-1.8562,0.0,0.0,0.0,0.0,0.0,0.0,0.0,-2.139,-2.197,-2.2378,-2.2498,-2.2619,-2.2639,-2.2398,-2.2432,-2.2565,-2.2672,0.0,-2.2719,-2.2719,-2.2699,-2.2733,-2.2719,-2.2739,-2.2611,-2.2218,-2.2058,-2.1991,-2.2024,-2.2024,-2.2024,-2.1964,-2.1877,-2.1319,-1.9899,-1.9848,-1.9983,-1.9735,-1.9293,-1.8783,-1.8503,-1.8128,-1.7209,-1.2132,-1.2111,-1.1803,-1.1592,-1.1492,-1.1563,-1.1497,-1.1281,-1.1417,-1.1397,-1.1281,-1.1417,-1.1525,-1.166,-1.1753,0.0,-1.1864,-1.1834,-1.1959,-1.2159,-1.2264,-1.2332,-1.2345,-1.2345,-1.2413,-1.2535,-1.2302,-1.2241,-1.2332,-1.2241,-1.2241,-1.2332,-1.2241,-1.2295,-1.2488,-1.2528,-1.2528,-1.2501,-1.2515,-1.2515,-1.2501,-1.2501,-1.244,-1.2349,-1.2311,-1.2281,-1.2159,-1.2176,-1.2033,-1.1874,-1.1705,-1.1599,-1.1492,0.0,0.0,0.0,0.0,0.0,0.0,0.0,0.0,0.0,0.0,0.0,0.0,0.0,0.0,-1.4451,-1.5076,0.0,-1.7396,-1.797,0.0,0.0,0.0,-2.053,-2.1771,-2.1798,-2.1812,-2.2041,0.0,0.0,-2.3117,-2.3444,-2.3501,-2.3108,-2.3207,-2.346,-2.3728,-2.3763,-2.3817,-2.3736,-2.379,-2.379,-2.3683,-2.3487,-2.3166,-2.2672,-2.2298,-2.2238,-2.2224,-2.2151,-2.2111,-2.1905,-2.1859,-2.1343,-1.9914,-1.9454,-1.9324,-1.8923,-1.7948,-1.741,-1.8171,-1.757,-1.6679,-1.2393,-1.2393,-1.2318,-1.2142,-1.1941,-1.1975,-1.1955,-1.1887,-1.1921,-1.1921,-1.1887,-1.1921,-1.1962,-1.1996,-1.203,-1.2067,-1.2182,-1.2182,-1.2318,-1.2562,-1.2571,-1.2691,-1.2839,-1.2839,-1.286,-1.2887,-1.2819,-1.2805,-1.2839,-1.2805,-1.2805,-1.2839,-1.2805,-1.2703,-1.2515,-1.2771,-1.2739,-1.2508,-1.2578,-1.2617,-1.2508,-1.2501,-1.2488,-1.2454,-1.2447,-1.2488,-1.2562,-1.2461,-1.2433,-1.2463,-1.2162,-1.203,-1.2067,-1.2003,0.0,0.0,0.0,0.0,0.0,0.0,0.0,0.0,0.0,-1.3678,-1.4034,0.0,-1.4457,0.0,-1.4727,-1.5272,-1.7628,-1.7278,0.0,0.0,-1.8149,-1.8533,-1.7662,-1.8611,-1.9341,-1.9408,-1.9669,-2.0351,-2.1616,-2.2053,-2.2773,-2.3964,-2.3901,-2.3688,-2.3803,-2.3817,-2.3817,-2.383,-2.3843,-2.3817,-2.383,-2.375,-2.3621,-2.3474,-2.338,-2.3388,-2.3375,-2.3153,-2.2648,-2.1559,-2.0925,-2.0115,-1.8789,-1.7446,-1.6996,-1.7695,-1.7543,-1.692,-1.6285,-1.5738,-1.5108,-1.2644,-1.2705,-1.2744,-1.2649,-1.2486,-1.2356,-1.222,-1.2104,-1.2173,-1.2166,-1.2104,-1.2173,-1.2309,-1.2492,-1.2431,-1.2486,-1.2622,-1.2589,-1.2678,-1.2827,-1.2834,-1.2921,-1.2996,-1.3003,-1.3003,-1.3003,-1.3003,-1.3003,-1.3003,-1.3003,-1.3003,-1.3003,-1.3064,-1.2975,-1.2725,-1.2982,-1.3043,-1.2901,-1.2747,-1.2645,-1.2603,-1.2535,-1.2562,-1.2698,-1.2644,-1.2705,-1.2915,-1.2718,-1.2665,-1.2901,-1.2763,-1.263,-1.2474,-1.2454,-1.2449,0.0,0.0,0.0,0.0,0.0,0.0,0.0,0.0,0.0,0.0,0.0,-1.4277,-1.5042,-1.4508,-1.4781,-1.6375,-1.5976,-1.5893,-1.6488,-1.7343,-1.7813,-1.7583,-1.8378,-1.9006,-1.9101,-1.9266,-2.0017,-2.178,-2.2147,-2.2967,-2.4734,-2.4743,-2.4543,-2.4543,-2.4543,-2.4543,-2.4543,-2.4472,-2.4338,-2.4182,-2.3458,-2.2898,-2.2885,-2.2796,-2.2671,-2.2706,-2.316,-2.302,-2.1552,-2.0897,-1.9959,-1.7899,-1.6637,-1.6012,-1.5949,-1.5843,-1.5556,-1.5332,-1.4736,-1.3963,-1.284,-1.3003,-1.3003,-1.3003,-1.2982,-1.2671,-1.2413,-1.222,-1.2356,-1.2343,-1.222,-1.2356,-1.2589,-1.2989,-1.282,-1.2834,-1.2996,-1.3003,-1.3009,-1.303,-1.303,-1.3037,-1.3057,-1.3057,-1.3057,-1.3057,-1.3057,-1.3057,-1.3057,-1.3057,-1.3057,-1.3064,-1.3139,-1.3186,-1.3098,-1.3152,-1.3261,-1.3363,-1.2943,-1.2786,-1.2747,-1.2657,-1.2718,-1.3003,-1.284,-1.2881,-1.3166,-1.2895,-1.2888,-1.3186,-1.3347,-1.3246,-1.2858,-1.3173,-1.3207,0.0,-1.258,0.0,0.0,0.0,0.0,0.0,0.0,0.0,0.0,-1.429,-1.4508,-1.4533,-1.4533,-1.4597,-1.4797,-1.4814,-1.5404,-1.6804,-1.6976,-1.7511,-1.8808,-1.8998,-1.907,-1.9303,-1.9363,-2.0092,-2.1804,-2.2261,-2.2879,-2.4316,-2.4547,-2.4495,-2.4842,-2.4879,-2.503,-2.5428,-2.5304,-2.4983,-2.4672,-2.3423,-2.2387,-2.2092,-2.1885,-2.1414,-2.1219,-2.2245,-2.2614,-2.1077,-2.0477,-1.9648,-1.7141,-1.6386,-1.5777,-1.4971,-1.4374,-1.4203,-1.4749,-1.4241,-1.3437,-1.2975,-1.3003,-1.3003,-1.3003,-1.2996,-1.2941,-1.288,-1.2833,-1.286,-1.286,-1.2833,-1.286,-1.2921,-1.2996,-1.2929,-1.2969,-1.3003,-1.3003,-1.3064,-1.3132,-1.3173,-1.3241,-1.3315,-1.3315,-1.3315,-1.3315,-1.3322,-1.3315,-1.3322,-1.3322,-1.3315,-1.3315,-1.3342,-1.3403,-1.3492,0.0,0.0,0.0,-1.3173,-1.3091,-1.3091,-1.3064,-1.3071,-1.3166,-1.303,0.0,-1.3037,-1.2982,-1.3037,-1.3193,-1.3445,0.0,0.0,0.0,0.0,0.0,0.0,0.0,0.0,0.0,0.0,0.0,-1.461,-1.44,-1.4123,-1.4649,-1.5108,-1.5293,-1.527,-1.5325,-1.5358,-1.5327,-1.5453,-1.5762,-1.5841,-1.596,-1.6236,-1.6275,-1.6284,-1.6318,-1.6358,-1.6998,-1.8681,-1.8877,-1.9655,-2.1559,-2.171,-2.1789,-2.2088,-2.2882,-2.3919,-2.5147,-2.5197,-2.5297,-2.5358,-2.4771,-2.3593,-2.3135,-2.2561,-2.1827,-2.06,-2.0225,-1.9771,-1.8319,-1.7736,-1.7553,-1.6756,-1.5681,-1.5149,-1.603,-1.5117,-1.4176,-1.3966,-1.3681,-1.3402,-1.3152,-1.322,-1.322,-1.322,0.0,-1.318,-1.318,-1.3166,-1.3064,-1.3043,-1.3105,-1.303,-1.3084,-1.3173,-1.3098,-1.3146,-1.322,-1.322,-1.322,-1.3281,-1.3288,-1.3322,-1.3397,-1.3397,-1.3397,-1.3397,-1.3397,-1.3397,-1.3397,-1.3397,-1.3397,-1.3397,-1.3397,-1.3437,-1.3512,-1.3437,-1.3363,-1.3281,-1.3214,-1.3214,-1.3214,-1.3146,-1.3139,-1.3316,-1.3186,0.0,0.0,0.0,0.0,0.0,0.0,0.0,0.0,-1.456,0.0,-1.4693,-1.4524,-1.4645,-1.5208,-1.4841,-1.4796,-1.5311,-1.5345,-1.5209,-1.482,-1.5151,-1.5375,-1.5464,-1.5512,-1.5553,-1.5634,-1.5642,-1.5675,-1.5723,-1.574,-1.574,-1.574,-1.574,-1.5732,-1.578,-1.574,-1.637,-1.8043,-1.8274,-1.8994,-2.0657,-2.0999,-2.1002,-2.1208,-2.1656,-2.2414,-2.3069,-2.3161,-2.3113,-2.2877,-2.2144,-2.1613,-2.0607,-2.0376,-1.9991,-1.9176,-1.9493,-1.9305,-1.7788,-1.7294,-1.6983,-1.5971,-1.5114,-1.4794,-1.5412,-1.5009,-1.4367,-1.4038,-1.3896,-1.3742,-1.3288,-1.3397,-1.3397,-1.3397,-1.3397,-1.3397,-1.3397,-1.3383,-1.3146,0.0,0.0,-1.3132,-1.3214,-1.339,-1.3268,-1.3281,-1.3397,-1.3397,-1.3397,-1.3397,-1.3397,-1.3397,-1.3397,-1.3397,-1.3397,-1.3403,-1.3424,-1.3444,-1.3444,-1.3464,-1.3478,-1.3478,-1.3478,-1.3478,-1.3478,-1.3478,-1.3478,-1.3471,-1.3329,-1.3254,-1.3295,-1.318,-1.3193,-1.3437,-1.3295,-1.3315,-1.349,-1.3391,-1.3411,-1.3609,-1.4419,-1.4691,-1.4397,-1.5051,-1.5379,-1.5112,-1.476,-1.488,-1.5529,-1.5289,-1.5249,-1.557,-1.574,-1.5748,-1.5577,-1.5593,-1.557,-1.557,-1.561,-1.5666,-1.5804,-1.5861,-1.5878,-1.5991,-1.6007,-1.5999,-1.5999,-1.6007,-1.5983,-1.6007,-1.5991,-1.6525,-1.7842,-1.8046,-1.8626,-1.9836,-1.9947,-2.0292,-2.0373,-2.0756,-2.1114,-2.0684,-2.0971,-2.0935,-2.0469,-1.9767,-1.8442,-1.8431,-1.8235,-1.788,-1.7792,-1.8582,-1.8759,-1.7425,-1.7299,-1.6635,-1.543,-1.4966,-1.4814,-1.4768,-1.4659,-1.4476,-1.4435,-1.4367,-1.4213,-1.3383,-1.3397,-1.3397,-1.3397,-1.3397,-1.3397,-1.3397,-1.3397,-1.3356,-1.3349,-1.337,-1.3349,-1.3363,-1.3397,-1.3376,-1.3383,-1.3397,-1.3397,-1.3397,-1.3397,-1.3397,-1.3397,-1.3397,-1.3397,-1.3397,-1.341,-1.3532,-1.3551,-1.3572,-1.3673,-1.3734,-1.3734,-1.3734,-1.3727,-1.3734,-1.3741,-1.3734,-1.3734,-1.3599,-1.3566,-1.3566,-1.3504,-1.3511,-1.3545,-1.3451,-1.3322,-1.3282,-1.3567,-1.3723,-1.3807,-1.4642,-1.5143,-1.5249,-1.5636,-1.59,-1.5852,-1.5762,-1.5811,-1.5934,-1.5885,-1.5852,-1.5934,-1.595,-1.5894,-1.5764,-1.5886,-1.5934,-1.5934,-1.5926,-1.5942,-1.5966,-1.5966,-1.5975,-1.5999,-1.6007,-1.6007,-1.6007,-1.6007,-1.6007,-1.6007,-1.6007,-1.6048,-1.641,-1.6484,-1.6607,-1.6772,-1.7322,-1.6903,-1.7478,-1.9318,-2.0312,-1.9522,-2.02,-2.0986,-2.06,-2.0873,-1.9755,-1.8694,-1.826,-1.7645,-1.6449,-1.6467,-1.6444,-1.5916,-1.5987,-1.5812,-1.5415,-1.5254,-1.5132,-1.51,-1.4992,-1.4838,-1.4716,-1.4651,-1.457,-1.3397,-1.3397,-1.3397,-1.3397,-1.3397,-1.3397,-1.3397,-1.3397,-1.3397,-1.3397,-1.3397,-1.3397,-1.3397,-1.3397,-1.3397,-1.3397,-1.3397,-1.3397,-1.3397,-1.3397,-1.3397,-1.3397,-1.341,-1.3443,-1.3484,-1.3539,-1.3632,-1.37,-1.3707,-1.3768,-1.3795,-1.3795,-1.3795,-1.3795,-1.3795,-1.3795,-1.3795,-1.3795,-1.3734,-1.37,-1.37,-1.37,-1.3707,-1.37,-1.3675,-1.3733,-1.3965,-1.4125,-1.4334,-1.4592,-1.5211,-1.5617,-1.5695,-1.6081,-1.6332,-1.6341,-1.6332,-1.6332,-1.6299,-1.6332,-1.6332,-1.6341,-1.6332,-1.63,-1.626,-1.6194,-1.6185,-1.6324,-1.6332,-1.6292,-1.6194,-1.6186,-1.6112,-1.6015,-1.6007,-1.6007,-1.6007,-1.6007,-1.6007,-1.6007,-1.6007,-1.6007,-1.6007,-1.6007,-1.6007,-1.6007,-1.6072,-1.6145,-1.6145,-1.7454,-1.8266,-1.7486,-1.786,-1.8268,-1.8432,-1.835,-1.7983,-1.7255,-1.7153,-1.6775,-1.6,-1.5796,-1.5772,-1.5675,-1.5658,-1.5618,-1.5553,-1.5408,-1.5359,-1.5335,-1.5236,-1.509,-1.497,-1.5,-1.4862,-1.3397,-1.3397,-1.3397,-1.3397,-1.3397,-1.3397,-1.3397,-1.3397,-1.3397,-1.3397,-1.3397,-1.3397,-1.3397,-1.3397,-1.3397,-1.3397,-1.3397,-1.3397,-1.3397,-1.3403,-1.3437,-1.3451,-1.3471,-1.3565,-1.3632,-1.3653,-1.3781,-1.3892,-1.3856,-1.3883,-1.3903,-1.3903,-1.3903,-1.3903,-1.3903,-1.3903,-1.3896,-1.3903,-1.3903,-1.3869,-1.3795,-1.3795,-1.3838,-1.3973,-1.3966,-1.423,-1.4707,-1.4835,-1.5049,-1.5433,-1.5852,-1.6057,-1.6057,-1.6406,-1.6584,-1.6584,-1.6584,-1.6584,-1.6584,-1.6584,-1.6584,-1.6584,-1.6584,-1.6592,-1.6625,-1.6511,-1.6462,-1.6602,-1.6568,-1.6511,-1.6397,-1.6365,-1.6308,-1.6186,-1.6162,-1.6145,-1.6128,-1.6128,-1.6128,-1.612,-1.612,-1.6137,-1.612,-1.612,-1.6137,-1.6169,-1.6284,-1.6357,-1.6365,-1.6365,-1.63,-1.6153,-1.6064,-1.6172,-1.6007,-1.613,-1.6172,-1.6007,-1.604,-1.6073,-1.5991,-1.6023,-1.5991,-1.5894,-1.5878,-1.5837,-1.5651,-1.5601,-1.5577,-1.5561,-1.5423,-1.5278,-1.5358,-1.5358,-1.5179,-1.3397,-1.3397,-1.3397,-1.3397,-1.3397,-1.3397,-1.3397,-1.3397,-1.3397,-1.3397,-1.3397,-1.3397,-1.3403,-1.3397,-1.3397,-1.3397,-1.3397,-1.3397,-1.3403,-1.3424,-1.3546,-1.3565,-1.3578,-1.3714,-1.3781,-1.3795,-1.398,-1.4048,-1.4055,-1.4183,-1.4251,-1.4258,-1.4258,-1.4245,-1.4251,-1.4251,-1.4251,-1.4258,-1.4258,-1.4079,-1.3815,-1.3795,-1.4052,-1.4529,-1.4536,-1.475,-1.5242,-1.5596,-1.581,-1.5895,-1.6294,-1.6542,-1.6542,-1.6584,-1.6584,-1.6592,-1.6635,-1.6584,-1.6584,-1.6584,-1.66,-1.6584,-1.66,-1.6665,-1.6768,-1.6768,-1.6687,-1.6641,-1.6592,-1.6592,-1.656,-1.6552,-1.6535,-1.6495,-1.6495,-1.657,-1.6503,-1.6535,-1.6535,-1.6535,-1.6487,-1.6527,-1.6487,-1.6503,-1.6519,-1.6503,-1.6576,-1.6617,-1.6617,-1.6609,-1.6651,-1.6503,-1.6242,-1.6056,-1.6039,-1.6007,-1.6056,-1.6039,-1.6023,-1.6047,-1.6088,-1.6153,-1.6227,-1.6129,-1.6146,-1.6162,-1.6024,-1.5878,-1.578,-1.5804,-1.5699,-1.5553,-1.5675,-1.5723,-1.552,-1.3397,-1.3397,-1.3397,-1.3397,-1.3397,-1.3397,-1.3397,-1.3397,-1.3397,-1.3397,-1.3417,-1.3498,-1.3485,-1.3403,-1.3397,-1.3397,-1.3397,-1.3397,-1.3451,-1.349,-1.36,-1.3626,-1.372,-1.3905,-1.3973,-1.3994,-1.4129,-1.4204,-1.4217,-1.4272,-1.4299,-1.4299,-1.4299,-1.4299,-1.4299,-1.4299,-1.4299,-1.4299,-1.4299,-1.437,-1.4472,-1.424,-1.4327,-1.4763,-1.4807,-1.5199,-1.5895,-1.6104,-1.6321,-1.6581,-1.6806,-1.6893,-1.6893,-1.6893,-1.6893,-1.6893,-1.6893,-1.6893,-1.6893,-1.6893,-1.6893,-1.6893,-1.6893,-1.6933,-1.6955,-1.6963,-1.6966,-1.6917,-1.6893,-1.686,-1.672,-1.6738,-1.6698,-1.6609,-1.6584,-1.6584,-1.6584,-1.6584,-1.6584,-1.6584,-1.6584,-1.6584,-1.66,-1.6682,-1.6696,-1.6779,-1.6901,-1.7031,-1.7055,-1.7055,-1.7107,-1.7015,-1.6712,-1.6453,-1.6389,-1.6365,-1.6357,-1.6357,-1.6365,-1.6365,-1.6365,-1.6405,-1.6438,-1.6365,-1.6422,-1.6438,-1.6381,-1.6324,-1.6251,-1.6194,-1.6097,-1.5983,-1.5951,-1.6016,-1.5943,-1.3397,-1.3403,-1.3444,-1.3437,-1.3403,-1.3444,-1.3464,-1.3458,-1.3417,-1.3424,-1.3471,-1.358,-1.3566,-1.3478,-1.3498,-1.3519,-1.3519,-1.3519,-1.358,-1.3646,-1.3729,-1.3804,-1.3912,-1.4061,-1.418,-1.4193,-1.4245,-1.4299,-1.4299,-1.4299,-1.4299,-1.4299,-1.4299,-1.4299,-1.4299,-1.4387,-1.4476,-1.452,-1.4608,-1.5087,-1.5822,-1.569,-1.5477,-1.5396,-1.5389,-1.5785,-1.6533,-1.6621,-1.6753,-1.7068,-1.7112,-1.7112,-1.7112,-1.7112,-1.7112,-1.7112,-1.7112,-1.7112,-1.7112,-1.7161,-1.7185,-1.7193,-1.7226,-1.7206,-1.7258,-1.7258,-1.7258,-1.7206,-1.7214,-1.7133,-1.6914,-1.6882,-1.686,-1.6747,-1.6722,-1.673,-1.6738,-1.6722,-1.6738,-1.6722,-1.6763,-1.679,-1.6855,-1.6925,-1.6979,-1.7068,-1.7246,-1.7453,-1.7461,-1.7445,-1.7445,-1.7445,-1.7173,-1.693,-1.6722,-1.6576,-1.6592,-1.6584,-1.6552,-1.6544,-1.6592,-1.6609,-1.6643,-1.6519,-1.66,-1.66,-1.6519,-1.6535,-1.6576,-1.656,-1.6487,-1.6397,-1.6299,-1.6355,-1.6438,-1.3397,-1.3431,-1.3518,-1.3539,-1.3417,-1.3559,-1.3578,-1.3565,-1.343,-1.3492,-1.3572,-1.3605,-1.3592,-1.3612,-1.3747,-1.3781,-1.3768,-1.3761,-1.3781,-1.3815,-1.398,-1.4098,-1.4075,-1.4217,-1.4336,-1.4394,-1.4326,-1.4415,-1.4445,-1.4527,-1.4299,-1.4431,-1.4697,-1.452,-1.4748,-1.5227,-1.5087,-1.5462,-1.5823,-1.6637,-1.8164,-1.8567,-1.7966,-1.6836,-1.6445,-1.6821,-1.7128,-1.712,-1.712,-1.712,-1.7136,-1.7084,-1.712,-1.7128,-1.7136,-1.7128,-1.7128,-1.7128,-1.7153,-1.7283,-1.7372,-1.7396,-1.7449,-1.7554,-1.7522,-1.7522,-1.7522,-1.7562,-1.753,-1.74,-1.7133,-1.7136,-1.712,-1.7096,-1.708,-1.7071,-1.708,-1.7055,-1.7088,-1.708,-1.708,-1.7136,-1.7307,-1.7356,-1.7429,-1.7481,-1.757,-1.7603,-1.7656,-1.7603,-1.7603,-1.7603,-1.753,-1.7384,-1.6922,-1.6852,-1.6714,-1.669,-1.6763,-1.6633,-1.6657,-1.6682,-1.6682,-1.6698,-1.6779,-1.6763,-1.6641,-1.66,-1.6633,-1.6665,-1.6771,-1.6687,-1.6639,-1.6736,-1.6752,-1.3639,-1.3646,-1.37,-1.3687,-1.3653,-1.37,-1.372,-1.3714,-1.3709,-1.3673,-1.3754,-1.3923,-1.4061,-1.4068,-1.4268,-1.416,-1.3829,-1.3939,-1.4041,-1.4129,-1.419,-1.4312,-1.4496,-1.4557,-1.4757,-1.4983,-1.4757,-1.5151,-1.6395,-1.7934,-1.8664,-1.8427,-1.8804,-1.9034,-1.9087,-1.9209,-1.9352,-1.9559,-1.971,-2.0286,-2.1126,-2.1338,-2.1205,-2.0959,-2.065,-2.0137,-1.9347,-1.9356,-1.8777,-1.7498,-1.7408,-1.74,-1.74,-1.7408,-1.7445,-1.7408,-1.7408,-1.74,-1.7408,-1.7465,-1.7551,-1.7551,-1.7554,-1.7611,-1.7595,-1.7595,-1.7595,-1.7603,-1.7603,-1.7514,-1.7457,-1.7408,-1.74,-1.7437,-1.7356,-1.7291,-1.7283,-1.7283,-1.7291,-1.7299,-1.7372,-1.7441,-1.7497,-1.7648,-1.7746,-1.7811,-1.7908,-1.7957,-1.7981,-1.7981,-1.7965,-1.7957,-1.7884,-1.7708,-1.7562,-1.7344,-1.725,-1.7153,-1.7104,-1.7039,-1.7023,-1.6966,-1.695,-1.6933,-1.699,-1.6958,-1.6852,-1.6852,-1.6852,-1.6885,-1.693,-1.6922,-1.7015,-1.6939,-1.6947,-1.3795,-1.3802,-1.3849,-1.3842,-1.3802,-1.3892,-1.3912,-1.3912,-1.3919,-1.3939,-1.4034,-1.4258,-1.4462,-1.4644,-1.4906,-1.4892,-1.4601,-1.4597,-1.4606,-1.4695,-1.4843,-1.5352,-1.5925,-1.5325,-1.5864,-1.7118,-1.69,-1.728,-1.8437,-2.0278,-2.0934,-2.0705,-2.1264,-2.16,-2.1733,-2.1866,-2.2104,-2.2289,-2.2467,-2.2956,-2.3787,-2.403,-2.4519,-2.5241,-2.5221,-2.3929,-2.1706,-2.1517,-2.098,-1.9734,-1.9509,-1.9239,-1.8671,-1.8581,-1.8265,-1.773,-1.7595,-1.7595,-1.7603,-1.7643,-1.7684,-1.7737,-1.7786,-1.7765,-1.7819,-1.7811,-1.7811,-1.7811,-1.7765,-1.7773,-1.7811,-1.7765,-1.7724,-1.7619,-1.7534,-1.7494,-1.7551,-1.7559,-1.7559,-1.7583,-1.7656,-1.7676,-1.7746,-1.7843,-1.7924,-1.7989,-1.8157,-1.8168,-1.8176,-1.8176,-1.8176,-1.8168,-1.807,-1.8005,-1.7924,-1.7794,-1.7591,-1.7486,-1.7404,-1.7356,-1.7299,-1.7242,-1.7193,-1.7185,-1.7161,-1.7128,-1.7112,-1.7112,-1.7112,-1.7112,-1.7044,-1.7011,-1.708,-1.7096,-1.7036,-1.3808,-1.3842,-1.4007,-1.4,-1.3869,-1.4021,-1.4119,-1.4176,-1.4176,-1.4308,-1.4489,-1.4558,-1.4948,-1.5267,-1.5621,-1.5826,-1.5954,-1.5932,-1.5705,-1.5531,-1.603,-1.7217,-1.866,-1.6999,-1.7808,-2.0859,-2.0865,-2.0731,-2.0875,-2.1462,-2.1756,-2.1468,-2.1986,-2.2604,-2.2152,-2.3056,-2.3062,-2.3504,-2.3974,-2.4774,-2.611,-2.6633,-2.7469,-2.8963,-2.9294,-2.7633,-2.3886,-2.3642,-2.3397,-2.3208,-2.3153,-2.2509,-2.0913,-2.0644,-1.9815,-1.8451,-1.7891,-1.7755,-1.7771,-1.7873,-1.7916,-1.7932,-1.8062,-1.8119,-1.8103,-1.8119,-1.8119,-1.8111,-1.8119,-1.8144,-1.8127,-1.8119,-1.8022,-1.7729,-1.7651,-1.7746,-1.7875,-1.7924,-1.7924,-1.7894,-1.7927,-1.7894,-1.7886,-1.7959,-1.8087,-1.8192,-1.8208,-1.8217,-1.8217,-1.82,-1.8176,-1.8176,-1.8144,-1.8111,-1.8144,-1.8144,-1.7932,-1.7708,-1.7627,-1.7562,-1.7518,-1.7453,-1.7388,-1.7364,-1.725,-1.721,-1.7185,-1.7177,-1.712,-1.7112,-1.7112,-1.7112,-1.7112,-1.7112,-1.7112,-1.4156,-1.4163,-1.4211,-1.4204,-1.4163,-1.4211,-1.4506,-1.4907,-1.4914,-1.5184,-1.5559,-1.5809,-1.5973,-1.6109,-1.6331,-1.643,-1.6663,-1.7981,-1.7924,-1.6689,-1.7453,-1.8554,-1.942,-1.9749,-2.062,-2.2217,-2.3828,-2.4371,-2.4438,-2.5842,-2.6785,-2.6759,-2.713,-2.7578,-2.7442,-2.7863,-2.807,-2.8286,-2.8423,-2.8845,-2.9372,-2.9436,-2.9729,-3.0069,-3.0181,-2.939,-2.7984,-2.6635,-2.5274,-2.4043,-2.3828,-2.3555,-2.3056,-2.293,-2.2647,-2.1973,-2.0693,-2.0015,-1.984,-1.8832,-1.8179,-1.8149,-1.8198,-1.8176,-1.8176,-1.8176,-1.8176,-1.8176,-1.8176,-1.8176,-1.8176,-1.8176,-1.8214,-1.8239,-1.8087,-1.807,-1.8249,-1.829,-1.8347,-1.8452,-1.8421,-1.8429,-1.8421,-1.8405,-1.8452,-1.8485,-1.8436,-1.8418,-1.8402,-1.832,-1.8231,-1.8176,-1.8176,-1.8184,-1.8176,-1.8176,-1.807,-1.794,-1.7875,-1.7765,-1.7729,-1.764,-1.7538,-1.7449,-1.738,-1.7315,-1.7283,-1.7242,-1.721,-1.7136,-1.7136,-1.7128,-1.712,-1.7112,-1.7112,-1.4299,-1.4299,-1.4476,-1.4564,-1.4571,-1.4619,-1.4874,-1.5248,-1.5188,-1.5507,-1.5942,-1.6187,-1.6485,-1.6786,-1.6916,-1.7515,-1.8439,-2.0048,-2.0169,-1.9472,-2.0143,-2.1218,-2.2372,-2.3849,-2.4067,-2.4099,-2.6073,-2.7102,-2.6965,-2.8548,-2.9409,-2.9475,-2.9893,-3.0123,-3.0412,-3.0458,-3.0571,-3.0749,-3.0722,-3.0795,-3.0795,-3.0795,-3.0702,-3.0541,-3.056,-3.0467,-3.0143,-2.8937,-2.7632,-2.6446,-2.6208,-2.5878,-2.5241,-2.5093,-2.483,-2.3871,-2.2999,-2.2162,-2.1988,-2.0409,-1.9276,-1.923,-1.8634,-1.8223,-1.8176,-1.8176,-1.8176,-1.8176,-1.8176,-1.8176,-1.8184,-1.8296,-1.8402,-1.8573,-1.8379,-1.8451,-1.8638,-1.876,-1.8793,-1.8809,-1.8801,-1.8793,-1.8744,-1.8728,-1.8728,-1.8704,-1.8631,-1.8558,-1.8533,-1.846,-1.8379,-1.8314,-1.8345,-1.8265,-1.8192,-1.8176,-1.8176,-1.8119,-1.8062,-1.7997,-1.7924,-1.7819,-1.7692,-1.7578,-1.7465,-1.7494,-1.7416,-1.7376,-1.7327,-1.7291,-1.721,-1.7185,-1.7177,-1.712,-1.7112,-1.4343,-1.4387,-1.4822,-1.4962,-1.499,-1.5073,-1.5203,-1.5281,-1.5241,-1.5505,-1.5924,-1.6273,-1.6666,-1.7336,-1.7748,-1.8951,-2.0844,-2.1711,-2.2668,-2.361,-2.4295,-2.5173,-2.6559,-2.7805,-2.7501,-2.6506,-2.7954,-2.8894,-2.8937,-2.9397,-2.956,-2.9926,-3.0058,-3.011,-3.0614,-3.0593,-3.0742,-3.0909,-3.0902,-3.0902,-3.0902,-3.0889,-3.0849,-3.0822,-3.0822,-3.0782,-3.0629,-3.0305,-3.0039,-2.9832,-2.9407,-2.8584,-2.7476,-2.716,-2.6332,-2.4876,-2.4282,-2.3825,-2.3504,-2.1481,-2.0381,-2.0196,-1.9006,-1.8176,-1.8176,-1.8176,-1.8176,-1.8176,-1.8176,-1.8184,-1.8271,-1.8377,-1.8565,-1.868,-1.8639,-1.8744,-1.9004,-1.9175,-1.911,-1.9021,-1.8988,-1.8948,-1.8826,-1.8809,-1.8801,-1.8793,-1.8769,-1.8744,-1.872,-1.8671,-1.8623,-1.855,-1.8476,-1.8436,-1.8387,-1.8328,-1.8328,-1.8296,-1.8239,-1.8111,-1.807,-1.7981,-1.7916,-1.7749,-1.7635,-1.7619,-1.7587,-1.7538,-1.7473,-1.7437,-1.7364,-1.7291,-1.7242,-1.7201,-1.7145,-1.452,-1.4822,-1.4948,-1.5063,-1.5118,-1.5219,-1.5595,-1.6125,-1.6121,-1.6563,-1.7343,-1.7592,-1.7756,-1.8129,-1.9509,-2.052,-2.1757,-2.4089,-2.5605,-2.6377,-2.7805,-2.8314,-2.8719,-2.933,-2.9525,-2.9105,-2.9541,-3.0214,-3.0551,-3.0596,-3.0794,-3.1165,-3.1057,-3.1165,-3.1367,-3.1354,-3.1375,-3.145,-3.1483,-3.147,-3.1457,-3.1457,-3.1316,-3.1129,-3.1069,-3.1009,-3.0822,-3.0728,-3.0434,-2.9967,-2.9913,-2.9734,-2.9105,-2.9002,-2.8629,-2.785,-2.5605,-2.4054,-2.3458,-2.1075,-1.9276,-1.896,-1.8634,-1.8223,-1.8176,-1.8176,-1.8176,-1.8176,-1.8223,-1.8271,-1.8394,-1.8475,-1.8638,-1.8866,-1.9004,-1.9086,-1.9192,-1.9273,-1.9281,-1.924,-1.9232,-1.9142,-1.911,-1.9086,-1.9086,-1.9069,-1.8996,-1.8915,-1.8907,-1.8834,-1.8761,-1.8712,-1.8647,-1.8631,-1.8582,-1.8508,-1.8434,-1.8418,-1.8337,-1.8214,-1.8144,-1.8111,-1.8087,-1.8046,-1.79,-1.7797,-1.7741,-1.7684,-1.7656,-1.7599,-1.7559,-1.751,-1.7396,-1.7331,-1.7242,-1.4866,-1.5308,-1.5521,-1.5661,-1.5816,-1.589,-1.6249,-1.6704,-1.6656,-1.7057,-1.788,-1.8812,-1.923,-1.9602,-2.1435,-2.2816,-2.386,-2.5969,-2.7341,-2.8346,-2.9272,-2.9644,-2.9599,-2.9837,-3.0074,-3.04,-3.0488,-3.0795,-3.1122,-3.1343,-3.1503,-3.1623,-3.1724,-3.1724,-3.1664,-3.1724,-3.1724,-3.1711,-3.1724,-3.1724,-3.1724,-3.1724,-3.1597,-3.1436,-3.141,-3.1276,-3.1022,-3.0969,-3.0755,-3.0368,-3.0181,-3.01,-3.0087,-2.9967,-2.9913,-2.9779,-2.7669,-2.6241,-2.4876,-2.231,-2.0381,-1.9462,-1.882,-1.8223,-1.8176,-1.8176,-1.8176,-1.8176,-1.8176,-1.828,-1.8377,-1.8516,-1.8776,-1.9029,-1.9199,-1.9314,-1.9314,-1.9306,-1.9314,-1.9314,-1.9314,-1.9314,-1.9314,-1.9314,-1.9314,-1.9289,-1.9208,-1.9167,-1.9143,-1.8988,-1.8907,-1.8858,-1.8818,-1.8793,-1.8736,-1.8623,-1.855,-1.8525,-1.8475,-1.8345,-1.8255,-1.8192,-1.8168,-1.8135,-1.807,-1.8005,-1.7949,-1.79,-1.7875,-1.7827,-1.7786,-1.7651,-1.7575,-1.7494,-1.7404,-1.5352,-1.5793,-1.6225,-1.651,-1.666,-1.6861,-1.6933,-1.7119,-1.6932,-1.7273,-1.8261,-1.977,-2.0696,-2.1527,-2.3412,-2.5241,-2.6785,-2.7295,-2.8346,-2.9317,-2.9869,-2.9869,-2.9824,-2.9962,-3.0181,-3.0493,-3.0715,-3.0996,-3.1289,-3.1557,-3.1684,-3.1724,-3.1724,-3.1724,-3.1724,-3.1724,-3.1724,-3.1724,-3.1724,-3.1724,-3.1724,-3.1724,-3.1698,-3.1684,-3.1671,-3.1517,-3.133,-3.1263,-3.1142,-3.0902,-3.0627,-3.0467,-3.0426,-3.014,-3.002,-2.9814,-2.9215,-2.8184,-2.6843,-2.4408,-2.2632,-2.0936,-1.9137,-1.8223,-1.8176,-1.8176,-1.8176,-1.8176,-1.8176,-1.8217,-1.8347,-1.8582,-1.8899,-1.9224,-1.9306,-1.9306,-1.9314,-1.9314,-1.9314,-1.9314,-1.9314,-1.9314,-1.9314,-1.9314,-1.9314,-1.9314,-1.9265,-1.9257,-1.924,-1.9151,-1.9077,-1.9029,-1.8988,-1.8956,-1.8874,-1.8785,-1.8728,-1.868,-1.8574,-1.8444,-1.8328,-1.828,-1.8192,-1.8152,-1.8111,-1.8111,-1.8119,-1.8087,-1.8046,-1.8014,-1.7949,-1.7843,-1.7729,-1.7643,-1.7578,-1.5837,-1.6269,-1.6349,-1.658,-1.6845,-1.687,-1.7094,-1.7367,-1.732,-1.8447,-2.0057,-2.0834,-2.1988,-2.3504,-2.5377,-2.6649,-2.7341,-2.8436,-2.9599,-2.9779,-2.9913,-2.9913,-2.998,-3.0154,-3.0467,-3.0688,-3.0982,-3.1276,-3.153,-3.1657,-3.1724,-3.1724,-3.1724,-3.1724,-3.1724,-3.1724,-3.1724,-3.1724,-3.1724,-3.1724,-3.1724,-3.1724,-3.1724,-3.1724,-3.1724,-3.1698,-3.1597,-3.157,-3.1591,-3.143,-3.1009,-3.0702,-3.0675,-3.0595,-3.0448,-3.0015,-2.8845,-2.7789,-2.6618,-2.4167,-2.1675,-2.1325,-1.9657,-1.8176,-1.8223,-1.8231,-1.8231,-1.8223,-1.8184,-1.8322,-1.8566,-1.8923,-1.9167,-1.9273,-1.9314,-1.9314,-1.9314,-1.9314,-1.9314,-1.9314,-1.9314,-1.9314,-1.9314,-1.9314,-1.9314,-1.9314,-1.9314,-1.9314,-1.9314,-1.9314,-1.9216,-1.9142,-1.9134,-1.9094,-1.9053,-1.8964,-1.8883,-1.8826,-1.872,-1.8606,-1.8444,-1.8314,-1.829,-1.8233,-1.8168,-1.8176,-1.8176,-1.8176,-1.8119,-1.8111,-1.8095,-1.7997,-1.7908,-1.783,-1.7765,-1.6313,-1.6709,-1.6709,-1.6867,-1.7113,-1.7209,-1.7391,-1.7853,-1.8786,-1.9834,-2.1342,-2.2862,-2.4454,-2.5514,-2.7386,-2.8346,-2.8539,-2.9317,-2.9869,-2.9913,-2.9927,-2.9993,-3.0181,-3.0408,-3.0662,-3.0835,-3.1076,-3.1383,-3.1644,-3.1724,-3.1724,-3.1724,-3.1724,-3.1724,-3.1724,-3.1724,-3.1724,-3.1724,-3.1724,-3.1724,-3.1724,-3.1724,-3.1724,-3.1724,-3.1724,-3.1724,-3.1711,-3.1711,-3.1711,-3.1604,-3.1236,-3.0982,-3.0915,-3.0742,-3.0627,-3.0339,-2.9606,-2.8298,-2.6995,-2.5467,-2.38,-2.2681,-2.077,-2.0492,-2.0009,-1.9541,-1.8908,-1.9253,-1.9056,-1.8558,-1.8818,-1.8972,-1.9192,-1.9297,-1.9314,-1.9314,-1.9314,-1.9314,-1.9314,-1.9314,-1.9314,-1.9314,-1.9314,-1.9314,-1.9314,-1.9314,-1.9314,-1.9314,-1.9314,-1.9314,-1.9314,-1.9224,-1.9289,-1.9281,-1.9265,-1.9192,-1.9029,-1.8956,-1.8866,-1.8753,-1.8615,-1.8501,-1.8395,-1.8306,-1.8217,-1.8176,-1.8176,-1.8176,-1.8176,-1.816,-1.8127,-1.8103,-1.8079,-1.803,-1.794,-1.6709,-1.7112,-1.7112,-1.7218,-1.7441,-1.7882,-1.8238,-1.8705,-2.0621,-2.185,-2.254,-2.5696,-2.674,-2.7747,-2.8989,-2.9824,-2.9869,-2.9824,-2.9913,-2.9913,-2.9913,-3.0074,-3.0327,-3.0595,-3.0808,-3.0875,-3.1183,-3.1463,-3.1657,-3.1724,-3.1724,-3.1724,-3.1724,-3.1724,-3.1724,-3.1724,-3.1724,-3.1724,-3.1724,-3.1724,-3.1724,-3.1724,-3.1724,-3.1724,-3.1724,-3.1671,-3.1583,-3.157,-3.1583,-3.1631,-3.1316,-3.1209,-3.1089,-3.0782,-3.056,-3.0755,-3.0318,-2.9599,-2.8511,-2.7435,-2.6236,-2.4807,-2.2846,-2.2366,-2.2672,-2.1095,-2.0223,-2.0103,-1.9915,-1.8793,-1.8964,-1.9053,-1.9175,-1.9265,-1.9314,-1.9314,-1.9314,-1.9314,-1.9314,-1.9314,-1.9314,-1.9314,-1.9314,-1.9314,-1.9314,-1.9314,-1.9314,-1.9314,-1.9314,-1.9314,-1.9314,-1.9314,-1.9314,-1.9314,-1.9297,-1.9289,-1.9142,-1.9094,-1.9013,-1.8915,-1.8801,-1.872,-1.8598,-1.8355,-1.8304,-1.8233,-1.82,-1.8176,-1.8176,-1.8176,-1.8168,-1.8144,-1.8152,-1.8176,-1.8079,-1.7024,-1.7112,-1.7112,-1.7218,-1.7664,-1.9303,-2.0114,-2.0682,-2.2566,-2.45,-2.5878,-2.674,-2.8031,-2.9079,-2.9586,-2.9913,-2.9913,-2.9913,-2.9913,-2.9927,-2.9953,-3.0114,-3.0421,-3.0715,-3.0929,-3.1183,-3.1423,-3.161,-3.165,-3.1724,-3.1724,-3.1724,-3.1724,-3.1724,-3.1724,-3.1724,-3.1724,-3.1724,-3.1724,-3.1724,-3.1724,-3.1724,-3.1684,-3.1698,-3.1698,-3.153,-3.1343,-3.1303,-3.1303,-3.1263,-3.1009,-3.1022,-3.1036,-3.0822,-3.0702,-3.0715,-3.0528,-3.0134,-2.9671,-2.8157,-2.7166,-2.6209,-2.4716,-2.3744,-2.3659,-2.2297,-2.1386,-2.076,-2.0098,-1.8964,-1.898,-1.9151,-1.9249,-1.9306,-1.9314,-1.9314,-1.9314,-1.9314,-1.9314,-1.9314,-1.9314,-1.9314,-1.9314,-1.9314,-1.9314,-1.9314,-1.9314,-1.9314,-1.9314,-1.9314,-1.9314,-1.9314,-1.9314,-1.9314,-1.9306,-1.9306,-1.9224,-1.9207,-1.9151,-1.9143,-1.9004,-1.8956,-1.8809,-1.8622,-1.8459,-1.8402,-1.8345,-1.8233,-1.8184,-1.8184,-1.8184,-1.8176,-1.8176,-1.8176,-1.8176,-1.7112,-1.7112,-1.7112,-1.7724,-1.8814,-2.0018,-2.1218,-2.2381,-2.4517,-2.606,-2.7057,-2.8031,-2.8944,-2.9734,-2.9913,-2.9913,-2.9913,-2.9913,-2.9913,-2.9927,-3.0074,-3.0301,-3.0581,-3.0875,-3.1169,-3.141,-3.1657,-3.1711,-3.1724,-3.1724,-3.1724,-3.1724,-3.1724,-3.1724,-3.1724,-3.1724,-3.1724,-3.1724,-3.1724,-3.1724,-3.1724,-3.1711,-3.1657,-3.1503,-3.1543,-3.1436,-3.1102,-3.1136,-3.1142,-3.0982,-3.0728,-3.0721,-3.0662,-3.0568,-3.0488,-3.0662,-3.0515,-3.048,-3.0501,-2.9332,-2.8872,-2.8562,-2.679,-2.6381,-2.619,-2.5056,-2.2936,-2.1713,-2.0249,-1.9126,-1.9183,-1.9257,-1.9297,-1.9314,-1.9314,-1.9314,-1.9314,-1.9314,-1.9314,-1.9314,-1.9314,-1.9314,-1.9314,-1.9314,-1.9314,-1.9314,-1.9314,-1.9314,-1.9314,-1.9314,-1.9314,-1.9314,-1.9314,-1.9314,-1.9314,-1.9314,-1.9314,-1.9314,-1.9297,-1.924,-1.9216,-1.9102,-1.8988,-1.8866,-1.8719,-1.8605,-1.8467,-1.8402,-1.8328,-1.8208,-1.82,-1.82,-1.8184,-1.8176,-1.8176,-1.8235,-1.8191,-1.8191,-1.9055,-2.0463,-2.1427,-2.2587,-2.4197,-2.6525,-2.7612,-2.7805,-2.9092,-2.9824,-2.9913,-2.9913,-2.9913,-2.9913,-2.9913,-2.9913,-2.9967,-3.0253,-3.0547,-3.0795,-3.1089,-3.1343,-3.157,-3.1543,-3.1657,-3.1711,-3.1724,-3.1724,-3.1724,-3.1724,-3.1724,-3.1724,-3.1724,-3.1724,-3.1724,-3.1724,-3.1724,-3.1711,-3.1597,-3.1476,-3.1236,-3.141,-3.1223,-3.0795,-3.0862,-3.0875,-3.0688,-3.0461,-3.0301,-3.0346,-3.0087,-3.0154,-3.0488,-3.0381,-3.0507,-3.0528,-3.0349,-2.9896,-2.9747,-2.8551,-2.8854,-2.8856,-2.7039,-2.4599,-2.2663,-2.1143,-1.9725,-1.9429,-1.9306,-1.9314,-1.9314,-1.9314,-1.9314,-1.9314,-1.9314,-1.9314,-1.9314,-1.9314,-1.9314,-1.9314,-1.9314,-1.9314,-1.9314,-1.9314,-1.9314,-1.9314,-1.9314,-1.9314,-1.9314,-1.9314,-1.9314,-1.9314,-1.9314,-1.9314,-1.9314,-1.9314,-1.9281,-1.9281,-1.9281,-1.9159,-1.9045,-1.8964,-1.8842,-1.8711,-1.854,-1.8475,-1.8355,-1.8273,-1.8263,-1.8192,-1.8184,-1.8176,-2.1932,-2.1932,-2.1889,-2.2105,-2.2567,-2.4511,-2.5622,-2.6222,-2.8431,-2.9541,-2.9317,-2.9734,-2.9913,-2.9913,-2.9913,-2.9913,-2.9913,-2.9913,-2.9913,-2.9953,-3.0261,-3.0587,-3.0808,-3.1042,-3.1396,-3.1583,-3.1423,-3.145,-3.1644,-3.1711,-3.1711,-3.1711,-3.1724,-3.1724,-3.1724,-3.1724,-3.1724,-3.1724,-3.1724,-3.1724,-3.1684,-3.1436,-3.1289,-3.1169,-3.1036,-3.0795,-3.0488,-3.0515,-3.0533,-3.0453,-3.014,-3.0127,-3.0261,-3.0074,-2.9953,-2.9993,-3.002,-3.01,-3.0346,-3.0181,-3.006,-3.0074,-2.953,-2.9861,-2.9717,-2.8725,-2.6093,-2.2663,-2.2124,-2.125,-2.0087,-1.9503,-1.9355,-1.9314,-1.9314,-1.9314,-1.9314,-1.9314,-1.9314,-1.9314,-1.9314,-1.9314,-1.9314,-1.9314,-1.9314,-1.9314,-1.9314,-1.9314,-1.9314,-1.9314,-1.9314,-1.9314,-1.9314,-1.9314,-1.9314,-1.9314,-1.9314,-1.9314,-1.9314,-1.9314,-1.9314,-1.9314,-1.9306,-1.9175,-1.9142,-1.9053,-1.8858,-1.8712,-1.8606,-1.8517,-1.8436,-1.8314,-1.82,-1.8192,-1.8217,-2.4563,-2.2622,-2.2622,-2.3223,-2.4321,-2.5747,-2.6909,-2.8,-2.929,-2.9913,-2.9913,-2.9913,-2.9913,-2.9913,-2.9913,-2.9913,-2.9913,-2.9913,-2.9913,-3.0034,-3.0354,-3.0662,-3.0875,-3.1236,-3.157,-3.1517,-3.1423,-3.1423,-3.1543,-3.1517,-3.1476,-3.1664,-3.1724,-3.1724,-3.1724,-3.1724,-3.1724,-3.1724,-3.1724,-3.1724,-3.1644,-3.1383,-3.1142,-3.0982,-3.0849,-3.0541,-3.0261,-3.0346,-3.0247,-3.0154,-2.9953,-2.9967,-3.006,-2.9993,-2.9913,-2.9913,-2.9927,-2.998,-3.0074,-2.998,-3.0007,-3.0127,-3.0194,-3.0335,-3.0366,-2.9341,-2.8021,-2.6227,-2.4785,-2.3238,-2.1594,-2.1103,-2.0284,-1.9849,-1.9454,-1.9314,-1.9314,-1.9314,-1.9314,-1.9314,-1.9314,-1.9314,-1.9314,-1.9314,-1.9314,-1.9314,-1.9314,-1.9314,-1.9314,-1.9314,-1.9314,-1.9314,-1.9314,-1.9314,-1.9314,-1.9314,-1.9314,-1.9314,-1.9314,-1.9314,-1.9314,-1.9314,-1.9314,-1.9314,-1.9216,-1.9118,-1.9004,-1.8915,-1.8801,-1.8704,-1.8606,-1.8493,-1.8379,-1.8394,-1.8385,-2.6546,-2.4038,-2.3995,-2.4819,-2.6128,-2.6717,-2.771,-2.8937,-2.9615,-2.9913,-2.9913,-2.9913,-2.9913,-2.9913,-2.9913,-2.9913,-2.9913,-2.9913,-2.9913,-3.0114,-3.0448,-3.0742,-3.0929,-3.1289,-3.1517,-3.1557,-3.1089,-3.1129,-3.1249,-3.1276,-3.1303,-3.165,-3.1724,-3.1724,-3.1724,-3.1724,-3.1724,-3.1724,-3.1724,-3.1724,-3.1657,-3.1289,-3.1022,-3.0822,-3.0621,-3.0368,-3.0034,-3.01,-3.0087,-2.9993,-2.9927,-2.9927,-2.994,-2.994,-2.9913,-2.9913,-2.9913,-2.9913,-2.9953,-2.994,-3.0047,-3.0207,-3.052,-3.0662,-3.0916,-2.9902,-2.886,-2.8176,-2.7155,-2.5319,-2.3677,-2.276,-2.1643,-2.0571,-1.975,-1.9503,-1.9314,-1.9281,-1.9322,-1.9314,-1.9314,-1.9314,-1.9314,-1.9314,-1.9314,-1.9314,-1.9314,-1.9314,-1.9314,-1.9314,-1.9314,-1.9314,-1.9314,-1.9314,-1.9314,-1.9314,-1.9314,-1.9314,-1.9314,-1.9314,-1.9314,-1.9314,-1.9314,-1.9314,-1.9314,-1.9224,-1.9134,-1.9069,-1.8996,-1.8883,-1.8769,-1.868,-1.8598,-1.8597,-1.8508,-2.8052,-2.7786,-2.7757,-2.7714,-2.7923,-2.8562,-2.8857,-2.9041,-2.9659,-2.9913,-2.9913,-2.9913,-2.9913,-2.9913,-2.9913,-2.9913,-2.9913,-2.9913,-2.9913,-3.01,-3.0461,-3.0702,-3.0862,-3.1049,-3.1249,-3.1169,-3.0822,-3.0715,-3.0822,-3.0969,-3.1196,-3.1631,-3.1617,-3.1684,-3.1724,-3.1724,-3.1684,-3.1684,-3.1698,-3.1671,-3.1463,-3.1156,-3.0835,-3.0675,-3.0301,-2.9953,-2.9927,-2.998,-2.998,-2.9913,-2.9913,-2.9913,-2.9913,-2.9913,-2.9913,-2.9913,-2.9913,-2.9913,-2.9913,-2.9967,-2.9967,-3.0114,-3.0474,-3.0955,-3.1229,-3.1469,-3.0579,-2.9195,-2.8608,-2.7443,-2.5513,-2.3833,-2.3297,-2.1667,-2.0666,-1.9949,-1.9643,-1.9313,-1.9305,-1.9322,-1.9314,-1.9314,-1.9314,-1.9314,-1.9314,-1.9314,-1.9314,-1.9314,-1.9314,-1.9314,-1.9314,-1.9314,-1.9314,-1.9314,-1.9314,-1.9314,-1.9314,-1.9314,-1.9314,-1.9314,-1.9314,-1.9314,-1.9314,-1.9314,-1.9314,-1.9314,-1.9306,-1.9183,-1.9102,-1.9021,-1.8931,-1.8866,-1.8761,-1.868,-1.863,-2.8192,-2.8192,-2.8192,-2.8192,-2.8232,-2.8791,-2.9001,-2.9095,-2.9615,-2.9913,-2.9913,-2.9913,-2.9913,-2.9913,-2.9913,-2.9913,-2.9913,-2.9913,-2.9913,-3.0034,-3.0301,-3.0501,-3.0635,-3.0795,-3.0955,-3.0875,-3.06,-3.056,-3.0782,-3.0755,-3.0862,-3.1116,-3.1289,-3.1517,-3.1644,-3.1671,-3.157,-3.149,-3.153,-3.1577,-3.1116,-3.0969,-3.0715,-3.0533,-3.0181,-2.9927,-2.9913,-2.9913,-2.9913,-2.9913,-2.9913,-2.9913,-2.9913,-2.9913,-2.9913,-2.9913,-2.9913,-2.9913,-2.9967,-3.01,-3.0327,-3.0755,-3.1102,-3.1356,-3.145,-3.1657,-3.1413,-3.0747,-3.0379,-2.9328,-2.7659,-2.6759,-2.5945,-2.3523,-2.1772,-2.0805,-2.0149,-1.9825,-1.9386,-1.9386,-1.9363,-1.9314,-1.9314,-1.9314,-1.9314,-1.9314,-1.9314,-1.9314,-1.9314,-1.9314,-1.9314,-1.9314,-1.9314,-1.9314,-1.9314,-1.9314,-1.9314,-1.9314,-1.9314,-1.9314,-1.9314,-1.9314,-1.9314,-1.9314,-1.9314,-1.9314,-1.9314,-1.9314,-1.9207,-1.9134,-1.9102,-1.9118,-1.8956,-1.8826,-1.8728,-2.8192,-2.8192,-2.8192,-2.8192,-2.8259,-2.8791,-2.9001,-2.9095,-2.9615,-2.9913,-2.9913,-2.9913,-2.9913,-2.9913,-2.9913,-2.9913,-2.9913,-2.9913,-2.9913,-3.0034,-3.0207,-3.0386,-3.048,-3.0587,-3.0662,-3.0641,-3.0408,-3.0341,-3.0474,-3.0608,-3.0707,-3.0742,-3.0862,-3.1102,-3.1343,-3.149,-3.1423,-3.1343,-3.1343,-3.1303,-3.0862,-3.0688,-3.0595,-3.04,-3.0074,-2.9927,-2.9913,-2.9913,-2.9913,-2.9913,-2.9913,-2.9913,-2.9913,-2.9913,-2.9913,-2.9913,-2.9913,-2.9913,-2.9993,-3.0207,-3.0621,-3.1049,-3.1289,-3.1503,-3.1684,-3.1724,-3.1548,-3.1728,-3.162,-3.119,-2.9585,-2.9031,-2.8089,-2.579,-2.3231,-2.1958,-2.102,-2.0493,-1.9891,-1.9508,-1.9427,-1.9354,-1.9329,-1.9329,-1.9338,-1.933,-1.9314,-1.9314,-1.9314,-1.9314,-1.9314,-1.9314,-1.9314,-1.9314,-1.9314,-1.9314,-1.9314,-1.9314,-1.9314,-1.9314,-1.9314,-1.9314,-1.9314,-1.9314,-1.9314,-1.9314,-1.9314,-1.9314,-1.9314,-1.9297,-1.9265,-1.9224,-1.9192,-1.9013,-1.8923,-2.8192,-2.8192,-2.8192,-2.8192,-2.8286,-2.8791,-2.9001,-2.9121,-2.9659,-2.9913,-2.9913,-2.9913,-2.9913,-2.9913,-2.9913,-2.9913,-2.9913,-2.9913,-2.9913,-2.998,-3.014,-3.0346,-3.0373,-3.04,-3.0368,-3.0301,-3.0154,-3.0034,-3.0034,-3.0327,-3.044,-3.0413,-3.0448,-3.0627,-3.0822,-3.1102,-3.1176,-3.1162,-3.1196,-3.1022,-3.0715,-3.0488,-3.0453,-3.0279,-3.006,-2.9913,-2.9913,-2.9913,-2.9913,-2.9913,-2.9913,-2.9913,-2.9913,-2.9913,-2.9913,-2.9913,-2.9913,-2.9913,-2.9953,-3.0221,-3.0662,-3.1142,-3.1356,-3.1463,-3.1671,-3.1751,-3.1797,-3.1971,-3.2064,-3.2211,-3.1533,-3.0818,-2.9628,-2.7874,-2.524,-2.3219,-2.2273,-2.0739,-2.0031,-1.9646,-1.9565,-1.95,-1.9451,-1.9402,-1.9395,-1.9354,-1.9322,-1.9314,-1.9314,-1.9314,-1.9314,-1.9314,-1.9314,-1.9314,-1.9314,-1.9314,-1.9314,-1.9314,-1.9314,-1.9314,-1.9314,-1.9314,-1.9314,-1.9314,-1.9314,-1.9314,-1.9314,-1.9314,-1.9314,-1.9314,-1.9314,-1.9289,-1.9281,-1.9249,-1.9086,-2.8192,-2.8192,-2.8192,-2.8299,-2.8484,-2.8815,-2.9095,-2.9379,-2.9726,-2.9913,-2.9913,-2.9913,-2.9913,-2.9913,-2.9913,-2.9913,-2.9913,-2.9913,-2.9913,-2.9927,-3.0047,-3.0047,-3.0074,-3.01,-3.0087,-3.0047,-2.994,-2.9913,-2.9953,-3.0181,-3.0181,-3.0127,-3.0127,-3.0234,-3.0501,-3.0755,-3.0862,-3.0728,-3.0768,-3.0728,-3.0301,-3.0287,-3.0306,-3.01,-2.9967,-2.9913,-2.9913,-2.9913,-2.9913,-2.9913,-2.9913,-2.9913,-2.9913,-2.9913,-2.9913,-2.9913,-2.9913,-3.002,-3.0207,-3.0547,-3.0808,-3.1142,-3.1396,-3.153,-3.1711,-3.1864,-3.1998,-3.2144,-3.2318,-3.25,-3.2164,-3.2241,-3.1258,-2.931,-2.7001,-2.4901,-2.3368,-2.125,-1.993,-1.98,-1.9695,-1.9678,-1.9646,-1.9589,-1.9566,-1.9501,-1.9427,-1.9371,-1.9346,-1.9322,-1.9314,-1.9314,-1.9314,-1.9314,-1.9314,-1.9314,-1.9314,-1.9314,-1.9314,-1.9314,-1.9314,-1.9314,-1.9314,-1.9314,-1.9314,-1.9314,-1.9314,-1.9314,-1.9314,-1.9314,-1.9314,-1.9314,-1.9297,-1.9297,-1.9265,-2.8192,-2.8192,-2.8192,-2.839,-2.8751,-2.8921,-2.9259,-2.9619,-2.9833,-2.9913,-2.9913,-2.9913,-2.9913,-2.9913,-2.9913,-2.9913,-2.9913,-2.9913,-2.9913,-2.9913,-2.9913,-2.994,-2.994,-2.9913,-2.9953,-2.9913,-2.9913,-2.9913,-2.9927,-3.01,-3.0087,-2.998,-2.9913,-3.0034,-3.0261,-3.048,-3.0581,-3.0533,-3.0587,-3.0434,-3.014,-3.006,-3.01,-2.998,-2.9913,-2.9913,-2.9913,-2.9913,-2.9913,-2.9913,-2.9913,-2.9913,-2.9913,-2.9913,-2.9913,-2.9913,-2.994,-3.0074,-3.0373,-3.0654,-3.0889,-3.1196,-3.1503,-3.1704,-3.1797,-3.1984,-3.2225,-3.2412,-3.2634,-3.2768,-3.2888,-3.3066,-3.2335,-3.0376,-2.8968,-2.6905,-2.4971,-2.2886,-2.0882,-2.0696,-1.9941,-1.9924,-1.9825,-1.9784,-1.9719,-1.9654,-1.9597,-1.9525,-1.9403,-1.9354,-1.9338,-1.933,-1.9322,-1.9314,-1.9314,-1.9314,-1.9314,-1.9314,-1.9314,-1.9314,-1.9314,-1.9314,-1.9314,-1.9314,-1.9314,-1.9314,-1.9314,-1.9314,-1.9314,-1.9314,-1.9314,-1.9314,-1.9314,-1.9314,-1.9314,-2.8192,-2.8192,-2.8192,-2.8511,-2.8935,-2.9055,-2.9375,-2.9887,-2.9913,-2.9913,-2.9913,-2.9913,-2.9913,-2.9913,-2.9913,-2.9913,-2.9913,-2.9913,-2.9913,-2.9913,-2.9913,-2.9913,-2.9913,-2.9913,-2.9913,-2.9913,-2.9913,-2.9913,-2.9927,-2.998,-2.9953,-2.9913,-2.9913,-2.9953,-3.0074,-3.0194,-3.0314,-3.0287,-3.0319,-3.0181,-2.9993,-2.994,-2.9967,-2.9913,-2.9913,-2.9913,-2.9913,-2.9913,-2.9913,-2.9913,-2.9913,-2.9913,-2.9913,-2.9913,-2.9913,-2.9913,-2.9913,-3.0087,-3.0386,-3.0667,-3.0969,-3.1289,-3.157,-3.181,-3.2024,-3.2185,-3.2465,-3.2719,-3.2969,-3.312,-3.3307,-3.332,-3.3247,-3.1931,-3.0874,-2.9042,-2.7148,-2.504,-2.2898,-2.1638,-2.0522,-2.0155,-1.9998,-1.9898,-1.9922,-1.9898,-1.9833,-1.9735,-1.9639,-1.937,-1.9354,-1.9371,-1.9354,-1.9314,-1.9314,-1.9314,-1.9314,-1.9314,-1.9314,-1.9314,-1.9314,-1.9314,-1.9314,-1.9314,-1.9314,-1.9314,-1.9314,-1.9314,-1.9314,-1.9314,-1.9314,-1.9314,-1.9314,-1.9314,-1.9314,-2.8192,-2.8205,-2.8419,-2.8698,-2.9028,-2.9442,-2.978,-2.99,-2.9913,-2.9913,-2.9913,-2.9913,-2.9913,-2.9913,-2.9913,-2.9913,-2.9913,-2.9913,-2.9913,-2.9913,-2.9913,-2.9913,-2.9913,-2.9913,-2.9913,-2.9913,-2.9913,-2.9913,-2.9913,-2.9913,-2.9913,-2.9913,-2.9913,-2.9913,-2.994,-3.0007,-3.0047,-3.0074,-3.0087,-3.002,-2.9953,-2.9913,-2.9913,-2.9913,-2.9913,-2.9913,-2.9913,-2.9913,-2.9913,-2.9913,-2.9913,-2.9913,-2.9913,-2.9913,-2.9913,-2.9913,-2.994,-3.0047,-3.0386,-3.0635,-3.1022,-3.149,-3.1824,-3.1957,-3.2185,-3.2438,-3.2746,-3.2933,-3.3146,-3.332,-3.3374,-3.34,-3.3414,-3.2749,-3.168,-3.0305,-2.8506,-2.713,-2.4988,-2.3123,-2.2,-2.0863,-2.06,-2.0109,-2.0133,-2.0117,-2.0068,-1.9971,-1.9825,-1.9597,-1.9467,-1.9443,-1.9444,-1.9378,-1.9346,-1.933,-1.9322,-1.9314,-1.9314,-1.9314,-1.9314,-1.9314,-1.9314,-1.9314,-1.9314,-1.9314,-1.9314,-1.9314,-1.9314,-1.9314,-1.9314,-1.9314,-1.9314,-1.9314,-1.9314,-2.8192,-2.8232,-2.8526,-2.8845,-2.9259,-2.9713,-2.9913,-2.9913,-2.9913,-2.9913,-2.9913,-2.9913,-2.9913,-2.9913,-2.9913,-2.9913,-2.9913,-2.9913,-2.9913,-2.9913,-2.9913,-2.9913,-2.9913,-2.9913,-2.9913,-2.9913,-2.9913,-2.9913,-2.9913,-2.9913,-2.9913,-2.9913,-2.9913,-2.9913,-2.9927,-2.994,-2.9927,-2.9927,-2.9927,-2.9913,-2.9913,-2.9913,-2.9913,-2.9913,-2.9913,-2.9913,-2.9913,-2.9913,-2.9913,-2.9913,-2.9913,-2.9913,-2.9913,-2.9913,-3.002,-3.0047,-3.0127,-3.0368,-3.0702,-3.1022,-3.1383,-3.1831,-3.2185,-3.2345,-3.2452,-3.2701,-3.2839,-3.3013,-3.3227,-3.3414,-3.3414,-3.3414,-3.3414,-3.3314,-3.2284,-3.1227,-3.0052,-2.8975,-2.713,-2.5091,-2.3587,-2.2261,-2.1431,-2.0781,-2.0312,-2.0255,-2.0223,-2.0182,-2.002,-1.9808,-1.9678,-1.9622,-1.9557,-1.95,-1.9419,-1.9395,-1.9379,-1.9363,-1.9314,-1.9314,-1.9314,-1.9314,-1.9314,-1.9314,-1.9314,-1.9314,-1.9314,-1.9314,-1.9314,-1.9314,-1.9314,-1.9314,-1.9314,-1.9314,-1.9314,-2.8192,-2.8219,-2.8497,-2.8991,-2.9513,-2.9806,-2.9913,-2.9913,-2.9913,-2.9913,-2.9913,-2.9913,-2.9913,-2.9913,-2.9913,-2.9913,-2.9913,-2.9913,-2.9913,-2.9913,-2.9913,-2.9913,-2.9913,-2.9913,-2.9913,-2.9913,-2.9913,-2.9913,-2.9913,-2.9913,-2.9913,-2.9913,-2.9913,-2.9913,-2.9913,-2.9913,-2.9913,-2.9913,-2.9913,-2.9913,-2.9913,-2.9913,-2.9913,-2.9913,-2.9913,-2.9913,-2.9913,-2.9913,-2.9913,-2.9913,-2.9913,-2.9913,-2.9913,-2.9913,-3.0074,-3.0221,-3.0333,-3.0608,-3.0982,-3.1343,-3.173,-3.2158,-3.2599,-3.2661,-3.2688,-3.2879,-3.3066,-3.3053,-3.3227,-3.3374,-3.3414,-3.3414,-3.3414,-3.3414,-3.2799,-3.2083,-3.1378,-3.0204,-2.8721,-2.6875,-2.5389,-2.4019,-2.2633,-2.1968,-2.0989,-2.0677,-2.0304,-2.0288,-2.0206,-2.0003,-1.9898,-1.9808,-1.9711,-1.9638,-1.9589,-1.9516,-1.9485,-1.9436,-1.9329,-1.9314,-1.9314,-1.9314,-1.9314,-1.9314,-1.9314,-1.9314,-1.9314,-1.9314,-1.9314,-1.9314,-1.9314,-1.9314,-1.9264,-1.9207,-1.9256,-2.8192,-2.8245,-2.8711,-2.9228,-2.978,-2.9887,-2.9913,-2.9913,-2.9913,-2.9913,-2.9913,-2.9913,-2.9913,-2.9913,-2.9913,-2.9913,-2.9913,-2.9913,-2.9913,-2.9913,-2.9913,-2.9913,-2.9913,-2.9913,-2.9913,-2.9913,-2.9913,-2.9927,-2.9953,-2.994,-2.9913,-2.9927,-2.9927,-2.9913,-2.9913,-2.9913,-2.9913,-2.9913,-2.9913,-2.9913,-2.9913,-2.9913,-2.9913,-2.9913,-2.9913,-2.9913,-2.9913,-2.9913,-2.9913,-2.9913,-2.9913,-2.9913,-2.9913,-2.9913,-3.0074,-3.0333,-3.0453,-3.0755,-3.1209,-3.1623,-3.2019,-3.234,-3.2634,-3.2634,-3.2768,-3.308,-3.3227,-3.3146,-3.3173,-3.3307,-3.3414,-3.3414,-3.3387,-3.3387,-3.3337,-3.2923,-3.2472,-3.1353,-3.0129,-2.8823,-2.7334,-2.581,-2.438,-2.2944,-2.1968,-2.1197,-2.0529,-2.0312,-2.0312,-2.019,-2.0101,-1.9995,-1.9841,-1.9768,-1.9735,-1.9695,-1.9622,-1.9524,-1.9451,-1.9378,-1.9338,-1.9314,-1.9314,-1.9314,-1.9314,-1.9314,-1.9314,-1.9314,-1.9314,-1.9314,-1.9256,-1.9256,-1.9058,-1.896,-1.9108,-2.8259,-2.846,-2.8991,-2.9455,-2.986,-2.9913,-2.9913,-2.9913,-2.9913,-2.9913,-2.9913,-2.9913,-2.9913,-2.9913,-2.9913,-2.9913,-2.9913,-2.9913,-2.9913,-2.9913,-2.9927,-2.9913,-2.9913,-2.994,-2.9913,-2.9913,-2.9927,-2.9953,-3.0047,-2.9967,-2.994,-3.0047,-3.002,-2.9913,-2.9913,-2.9913,-2.9913,-2.9913,-2.9913,-2.9913,-2.9913,-2.9913,-2.9913,-2.9913,-2.9913,-2.9913,-2.9913,-2.9913,-2.9913,-2.9913,-2.9913,-2.9913,-2.9913,-2.9913,-3.0154,-3.0434,-3.0694,-3.0908,-3.1423,-3.1877,-3.226,-3.2594,-3.2768,-3.2822,-3.2795,-3.3026,-3.2879,-3.2875,-3.3013,-3.316,-3.336,-3.3414,-3.328,-3.3227,-3.3187,-3.2961,-3.2762,-3.2251,-3.1741,-3.1466,-2.9939,-2.8416,-2.663,-2.4225,-2.3202,-2.227,-2.1552,-2.0424,-2.032,-2.0268,-2.0255,-2.0182,-2.0028,-1.9938,-1.9965,-1.9882,-1.9833,-1.9719,-1.9597,-1.9435,-1.9371,-1.933,-1.9314,-1.9314,-1.9314,-1.9314,-1.9314,-1.9314,-1.9314,-1.9314,-1.9256,-1.9207,-1.896,-1.8655,-1.8605,-2.8393,-2.8724,-2.9245,-2.9646,-2.99,-2.9913,-2.9913,-2.9913,-2.9913,-2.9913,-2.9913,-2.9913,-2.9913,-2.9913,-2.9913,-2.9913,-2.9913,-2.9913,-2.9913,-2.994,-2.9993,-3.0034,-3.006,-3.006,-3.0074,-3.002,-2.9967,-3.0127,-3.0333,-3.01,-3.002,-3.0234,-3.0127,-2.9913,-2.9913,-2.9913,-2.9913,-2.9913,-2.9913,-2.9913,-2.9913,-2.9913,-2.9913,-2.9913,-2.9913,-2.9913,-2.9913,-2.9913,-2.9913,-2.9913,-2.9913,-2.9913,-2.9913,-2.9927,-3.0207,-3.0488,-3.0702,-3.1156,-3.177,-3.2273,-3.2621,-3.2902,-3.2982,-3.2969,-3.2866,-3.2719,-3.2621,-3.2768,-3.2969,-3.3093,-3.328,-3.3374,-3.3227,-3.3026,-3.2986,-3.2919,-3.287,-3.2861,-3.2997,-3.3134,-3.207,-3.0546,-2.8518,-2.6066,-2.4689,-2.3709,-2.2426,-2.1241,-2.0424,-2.032,-2.0288,-2.0271,-2.0206,-2.0141,-2.0101,-2.006,-2.0011,-1.9898,-1.976,-1.954,-1.9411,-1.9363,-1.9322,-1.9314,-1.9314,-1.9264,-1.9264,-1.9314,-1.9314,-1.9256,-1.9058,-1.891,-1.8655,-1.8358,-1.8012,-2.8457,-2.8948,-2.9339,-2.9659,-2.9887,-2.9913,-2.9913,-2.9913,-2.9913,-2.9913,-2.9913,-2.9913,-2.9913,-2.9913,-2.9913,-2.9913,-2.9913,-2.9913,-2.9913,-2.9927,-3.0127,-3.0266,-3.0274,-3.0301,-3.0408,-3.0261,-3.0074,-3.0114,-3.04,-3.014,-3.0074,-3.04,-3.0087,-2.994,-2.9913,-2.9913,-2.9913,-2.9913,-2.9913,-2.9913,-2.9913,-2.9913,-2.9913,-2.9913,-2.9913,-2.9913,-2.9913,-2.9913,-2.9913,-2.9913,-2.9913,-2.9913,-2.9913,-2.994,-3.0167,-3.0515,-3.0728,-3.1249,-3.1872,-3.2407,-3.2768,-3.2973,-3.2959,-3.2848,-3.2714,-3.2438,-3.2492,-3.2875,-3.3049,-3.3106,-3.3267,-3.3334,-3.324,-3.2919,-3.2808,-3.2714,-3.2612,-3.2799,-3.295,-3.3123,-3.2894,-3.1567,-3.0254,-2.8263,-2.6936,-2.5604,-2.3606,-2.2374,-2.0989,-2.0633,-2.0372,-2.0268,-2.0268,-2.0268,-2.0271,-2.0231,-2.0182,-2.0068,-1.9922,-1.9703,-1.9558,-1.9387,-1.9346,-1.9165,-1.9215,-1.9256,-1.9256,-1.9207,-1.9207,-1.9157,-1.8803,-1.8556,-1.8259,-1.7962,-1.7516]},{"header":{"parameterUnit":"m.s-1","parameterCategory":1,"la1":31.0,"la2":29.5877,"lo1":-88.7671,"lo2":-86.6584,"dx":0.0162,"dy":0.0185,"nx":115,"ny":88,"refTime":"2022-11-28T18:00:00:Z","depth":0,"parameterNumber":3,"parameterNumberName":"V-component_of_WINDS"},"data":[0.0,0.0,0.0,0.0,0.0,0.0,0.0,0.0,0.0,0.0,0.0,0.0,0.0,0.0,0.0,0.0,0.0,0.0,0.0,0.0,0.0,0.0,0.0,0.0,0.0,0.0,0.0,0.0,0.0,0.0,0.0,0.0,0.0,0.0,0.0,0.0,0.0,0.0,0.0,0.0,0.0,0.0,0.0,0.0,0.0,0.0,0.0,0.0,0.0,0.0,0.0,0.0,0.0,0.0,0.0,0.0,0.0,0.0,0.0,0.0,0.0,0.0,0.0,0.0,0.0,0.0,0.0,0.0,0.0,0.0,0.0,0.0,0.0,0.0,0.0,0.0,0.0,0.0,0.0,0.0,0.0,0.0,0.0,0.0,0.0,0.0,0.0,0.0,0.0,0.0,0.0,0.0,0.0,0.0,0.0,0.0,0.0,0.0,0.0,0.0,0.0,0.0,0.0,0.0,0.0,0.0,0.0,0.0,0.0,0.0,0.0,0.0,0.0,0.0,0.0,0.0,0.0,0.0,0.0,0.0,0.0,0.0,0.0,0.0,0.0,0.0,0.0,0.0,0.0,0.0,0.0,0.0,0.0,0.0,0.0,0.0,0.0,0.0,0.0,0.0,0.0,0.0,0.0,0.0,0.0,0.0,0.0,0.0,0.0,0.0,0.0,0.0,0.0,0.0,0.0,0.0,0.0,0.0,0.0,0.0,0.0,0.0,0.0,0.0,0.0,0.0,0.0,0.0,0.0,0.0,0.0,0.0,0.0,0.0,0.0,0.0,0.0,0.0,0.0,0.0,0.0,0.0,0.0,0.0,0.0,0.0,0.0,0.0,0.0,0.0,0.0,0.0,0.0,0.0,0.0,0.0,0.0,0.0,0.0,0.0,0.0,0.0,0.0,0.0,0.0,0.0,0.0,0.0,0.0,0.0,0.0,0.0,0.0,0.0,0.0,0.0,0.0,0.0,0.0,0.0,0.0,0.0,0.0,0.0,0.0,0.0,0.0,0.0,0.0,0.0,0.0,0.0,0.0,0.0,0.0,0.0,0.0,0.0,0.0,0.0,0.0,0.0,0.0,0.0,0.0,0.0,0.0,0.0,0.0,0.0,0.0,0.0,0.0,0.0,0.0,0.0,0.0,0.0,0.0,0.0,0.0,0.0,0.0,0.0,0.0,0.0,0.0,0.0,0.0,0.0,0.0,0.0,0.0,0.0,0.0,0.0,0.0,0.0,0.0,0.0,0.0,0.0,0.0,0.0,0.0,0.0,0.0,0.0,0.0,0.0,0.0,0.0,0.0,0.0,0.0,0.0,0.0,0.0,0.0,0.0,0.0,0.0,0.0,0.0,0.0,0.0,0.0,0.0,0.0,0.0,0.0,0.0,0.0,0.0,0.0,0.0,0.0,0.0,0.0,0.0,0.0,0.0,0.0,0.0,0.0,0.0,0.0,0.0,0.0,0.0,0.0,0.0,0.0,0.0,0.0,0.0,0.0,0.0,0.0,0.0,0.0,0.0,0.0,0.0,0.0,0.0,0.0,0.0,0.0,0.0,0.0,0.0,0.0,0.0,0.0,0.0,0.0,0.0,0.0,0.0,0.0,0.0,0.0,0.0,0.0,0.0,0.0,0.0,0.0,0.0,0.0,0.0,0.0,0.0,0.0,0.0,0.0,0.0,0.0,0.0,0.0,0.0,0.0,0.0,0.0,0.0,0.0,0.0,0.0,0.0,0.0,0.0,0.0,0.0,0.0,0.0,0.0,0.0,0.0,0.0,0.0,0.0,0.0,0.0,0.0,0.0,0.0,0.0,0.0,0.0,0.0,0.0,0.0,0.0,0.0,0.0,0.0,0.0,0.0,0.0,0.0,0.0,0.0,0.0,0.0,0.0,0.0,0.0,0.0,0.0,0.0,0.0,0.0,0.0,0.0,0.0,0.0,0.0,0.0,0.0,0.0,0.0,0.0,0.0,0.0,0.0,0.0,0.0,0.0,0.0,0.0,0.0,0.0,0.0,0.0,0.0,0.0,0.0,0.0,0.0,0.0,0.0,0.0,0.0,0.0,0.0,0.0,0.0,0.0,0.0,0.0,0.0,0.0,0.0,0.0,0.0,0.0,0.0,0.0,0.0,0.0,0.0,0.0,0.0,0.0,0.0,0.0,0.0,0.0,0.0,0.0,0.0,0.0,0.0,0.0,0.0,0.0,0.0,0.0,0.0,0.0,0.0,0.0,0.0,0.0,0.0,0.0,0.0,0.0,0.0,0.0,0.0,0.0,0.0,0.0,0.0,0.0,0.0,0.0,0.0,0.0,0.0,0.0,0.0,0.0,0.0,0.0,0.0,0.0,0.0,0.0,0.0,0.0,0.0,0.0,0.0,0.0,0.0,0.0,0.0,0.0,0.0,0.0,0.0,0.0,0.0,0.0,0.0,0.0,0.0,0.0,0.0,0.0,0.0,0.0,0.0,0.0,0.0,0.0,0.0,0.0,0.0,0.0,0.0,0.0,0.0,0.0,0.0,0.0,0.0,0.0,0.0,0.0,0.0,0.0,0.0,0.0,0.0,0.0,0.0,0.0,0.0,0.0,0.0,0.0,0.0,0.0,0.0,0.0,0.0,0.0,0.0,0.0,0.0,0.0,0.0,0.0,0.0,0.0,0.0,0.0,0.0,0.0,0.0,0.0,0.0,0.0,0.0,0.0,0.0,0.0,0.0,0.0,0.0,0.0,0.0,0.0,0.0,0.0,0.0,0.0,0.0,0.0,0.0,0.0,0.0,0.0,0.0,0.0,0.0,0.0,0.0,0.0,0.0,0.0,0.0,0.0,0.0,0.0,0.0,0.0,0.0,0.0,0.0,0.0,0.0,0.0,0.0,0.0,0.0,0.0,0.0,0.0,0.0,0.0,0.0,0.0,0.0,0.0,0.0,0.0,0.0,0.0,0.0,0.0,0.0,0.0,0.0,0.0,0.0,0.0,0.0,0.0,0.0,0.0,0.0,0.0,0.0,0.0,0.0,0.0,0.0,0.0,0.0,0.0,0.0,0.0,0.0,0.0,0.0,0.0,0.0,0.0,0.0,0.0,0.0,0.0,0.0,0.0,0.0,0.0,0.0,0.0,0.0,0.0,0.0,0.0,0.0,0.0,0.0,0.0,0.0,0.0,0.0,0.0,0.0,0.0,0.0,0.0,0.0,0.0,0.0,0.0,0.0,0.0,0.0,0.0,0.0,0.0,0.0,0.0,0.0,0.0,0.0,0.0,0.0,0.0,0.0,0.0,0.0,0.0,0.0,0.0,0.0,0.0,0.0,0.0,0.0,0.0,0.0,0.0,0.0,0.0,0.0,0.0,0.0,0.0,0.0,0.0,0.0,0.0,0.0,0.0,0.0,0.0,0.0,0.0,0.0,0.0,0.0,0.0,0.0,0.0,0.0,0.0,0.0,0.0,0.0,0.0,0.0,0.0,0.0,0.0,0.0,0.0,0.0,0.0,0.0,0.0,0.0,0.0,0.0,0.0,0.0,0.0,0.0,0.0,0.0,0.0,0.0,0.0,0.0,0.0,0.0,0.0,0.0,0.0,0.0,0.0,0.0,0.0,0.0,0.0,0.0,0.0,0.0,0.0,0.0,0.0,0.0,0.0,0.0,0.0,0.0,0.0,0.0,0.0,0.0,0.0,0.0,0.0,0.0,0.0,0.0,0.0,0.0,0.0,0.0,0.0,0.0,0.0,0.0,0.0,0.0,0.0,0.0,0.0,0.0,0.0,0.0,0.0,0.0,0.0,0.0,0.0,0.0,0.0,0.0,0.0,0.0,0.0,0.0,0.0,0.0,0.0,0.0,0.0,0.0,0.0,0.0,0.0,0.0,0.0,0.0,0.0,0.0,0.0,0.0,0.0,0.0,0.0,0.0,0.0,0.0,0.0,0.0,0.0,0.0,0.0,0.0,0.0,0.0,0.0,0.0,0.0,0.0,0.0,0.0,0.0,0.0,0.0,0.0,0.0,0.0,0.0,0.0,0.0,0.0,0.0,0.0,0.0,0.0,0.0,0.0,0.0,0.0,0.0,0.0,0.0,0.0,0.0,0.0,0.0,0.0,0.0,0.0,0.0,0.0,0.0,0.0,0.0,0.0,0.0,0.0,0.0,0.0,0.0,0.0,0.0,0.0,0.0,0.0,0.0,0.0,0.0,0.0,0.0,0.0,0.0,0.0,0.0,0.0,0.0,0.0,0.0,0.0,0.0,0.0,0.0,0.0,0.0,0.0,3.1928,0.0,0.0,0.0,3.1562,0.0,0.0,0.0,0.0,0.0,0.0,0.0,0.0,0.0,0.0,0.0,0.0,0.0,0.0,0.0,0.0,0.0,0.0,0.0,0.0,0.0,0.0,0.0,0.0,0.0,0.0,0.0,0.0,0.0,0.0,0.0,0.0,0.0,0.0,0.0,0.0,0.0,0.0,0.0,0.0,0.0,0.0,0.0,0.0,0.0,0.0,0.0,0.0,0.0,0.0,0.0,0.0,0.0,0.0,0.0,0.0,0.0,0.0,0.0,0.0,0.0,0.0,0.0,0.0,0.0,0.0,0.0,0.0,0.0,0.0,0.0,0.0,0.0,0.0,0.0,0.0,0.0,0.0,0.0,0.0,0.0,0.0,0.0,0.0,0.0,0.0,0.0,0.0,0.0,0.0,0.0,0.0,0.0,0.0,0.0,0.0,0.0,0.0,0.0,0.0,0.0,0.0,0.0,0.0,0.0,0.0,0.0,0.0,0.0,0.0,3.1975,3.1303,3.2347,3.2554,3.1843,0.0,0.0,0.0,0.0,0.0,0.0,0.0,0.0,0.0,0.0,0.0,0.0,0.0,0.0,0.0,0.0,0.0,0.0,0.0,0.0,0.0,0.0,0.0,0.0,0.0,0.0,0.0,0.0,0.0,0.0,0.0,0.0,0.0,0.0,0.0,0.0,0.0,0.0,0.0,0.0,0.0,0.0,0.0,0.0,0.0,0.0,0.0,0.0,0.0,0.0,0.0,0.0,0.0,0.0,0.0,0.0,0.0,0.0,0.0,0.0,0.0,0.0,0.0,0.0,0.0,0.0,0.0,0.0,0.0,0.0,0.0,0.0,0.0,0.0,0.0,0.0,0.0,0.0,0.0,0.0,0.0,0.0,0.0,0.0,0.0,0.0,0.0,0.0,0.0,0.0,0.0,0.0,0.0,0.0,0.0,0.0,0.0,0.0,0.0,0.0,0.0,0.0,0.0,0.0,0.0,0.0,0.0,0.0,0.0,0.0,0.0,0.0,3.2795,3.3272,3.2917,0.0,0.0,0.0,0.0,0.0,0.0,0.0,0.0,0.0,0.0,0.0,0.0,0.0,0.0,0.0,0.0,0.0,0.0,0.0,0.0,0.0,0.0,0.0,0.0,0.0,0.0,0.0,0.0,0.0,0.0,0.0,0.0,0.0,0.0,0.0,0.0,0.0,0.0,0.0,0.0,0.0,0.0,0.0,0.0,0.0,0.0,0.0,0.0,0.0,0.0,0.0,0.0,0.0,0.0,0.0,0.0,0.0,0.0,0.0,0.0,0.0,0.0,0.0,0.0,0.0,0.0,0.0,0.0,0.0,0.0,0.0,0.0,0.0,0.0,0.0,0.0,0.0,0.0,0.0,0.0,0.0,0.0,0.0,0.0,0.0,0.0,0.0,0.0,0.0,0.0,0.0,0.0,0.0,0.0,0.0,0.0,0.0,0.0,0.0,0.0,0.0,0.0,0.0,0.0,0.0,0.0,0.0,0.0,0.0,0.0,3.2498,3.2495,3.3189,0.0,3.4554,0.0,0.0,0.0,0.0,0.0,0.0,0.0,0.0,0.0,0.0,0.0,0.0,0.0,0.0,0.0,0.0,0.0,0.0,0.0,0.0,0.0,0.0,0.0,0.0,0.0,0.0,0.0,0.0,0.0,0.0,0.0,0.0,0.0,0.0,0.0,0.0,0.0,0.0,0.0,0.0,0.0,0.0,0.0,0.0,0.0,0.0,0.0,0.0,0.0,0.0,0.0,0.0,0.0,0.0,0.0,0.0,0.0,0.0,0.0,0.0,0.0,0.0,0.0,0.0,0.0,0.0,0.0,0.0,0.0,0.0,0.0,0.0,0.0,0.0,0.0,0.0,0.0,0.0,0.0,0.0,0.0,0.0,0.0,0.0,0.0,0.0,0.0,0.0,0.0,0.0,0.0,0.0,0.0,0.0,0.0,0.0,0.0,0.0,0.0,0.0,0.0,0.0,0.0,0.0,0.0,0.0,0.0,0.0,0.0,0.0,3.2812,3.3367,3.3618,3.385,0.0,0.0,0.0,0.0,0.0,0.0,0.0,0.0,0.0,0.0,0.0,0.0,0.0,0.0,0.0,0.0,0.0,0.0,0.0,0.0,0.0,0.0,0.0,0.0,0.0,0.0,0.0,0.0,0.0,0.0,0.0,0.0,0.0,0.0,0.0,0.0,0.0,0.0,0.0,0.0,0.0,0.0,0.0,0.0,0.0,0.0,0.0,0.0,0.0,0.0,0.0,0.0,0.0,0.0,0.0,0.0,0.0,0.0,0.0,0.0,0.0,0.0,0.0,0.0,0.0,0.0,0.0,0.0,0.0,0.0,0.0,0.0,0.0,0.0,0.0,0.0,0.0,0.0,0.0,0.0,0.0,0.0,0.0,0.0,0.0,0.0,0.0,0.0,0.0,0.0,0.0,0.0,0.0,0.0,0.0,0.0,0.0,0.0,0.0,0.0,0.0,0.0,0.0,0.0,0.0,0.0,0.0,0.0,0.0,0.0,3.322,3.3665,3.4466,3.4504,3.4463,3.4418,0.0,0.0,0.0,0.0,0.0,0.0,0.0,0.0,0.0,0.0,0.0,0.0,0.0,0.0,0.0,0.0,0.0,0.0,0.0,0.0,0.0,0.0,0.0,0.0,0.0,0.0,0.0,0.0,0.0,0.0,0.0,0.0,0.0,0.0,0.0,0.0,0.0,0.0,0.0,0.0,0.0,0.0,0.0,0.0,0.0,0.0,0.0,0.0,0.0,0.0,0.0,0.0,0.0,0.0,0.0,0.0,0.0,0.0,0.0,0.0,0.0,0.0,0.0,0.0,0.0,0.0,0.0,0.0,0.0,0.0,0.0,0.0,0.0,0.0,0.0,0.0,0.0,0.0,0.0,0.0,0.0,0.0,0.0,0.0,0.0,0.0,0.0,0.0,0.0,0.0,0.0,0.0,0.0,0.0,0.0,0.0,0.0,0.0,0.0,0.0,0.0,0.0,0.0,0.0,0.0,0.0,0.0,0.0,3.3824,3.4535,3.5256,3.6043,3.6162,3.617,0.0,0.0,0.0,0.0,0.0,0.0,0.0,0.0,0.0,0.0,0.0,0.0,0.0,0.0,0.0,0.0,0.0,0.0,0.0,0.0,0.0,0.0,0.0,0.0,0.0,0.0,0.0,0.0,0.0,0.0,0.0,0.0,0.0,0.0,0.0,0.0,0.0,0.0,0.0,0.0,0.0,0.0,0.0,0.0,0.0,0.0,0.0,0.0,0.0,0.0,0.0,0.0,0.0,0.0,0.0,0.0,0.0,0.0,0.0,0.0,0.0,0.0,0.0,0.0,0.0,0.0,0.0,0.0,0.0,0.0,0.0,0.0,0.0,0.0,0.0,0.0,0.0,0.0,0.0,0.0,0.0,0.0,0.0,0.0,0.0,0.0,0.0,0.0,0.0,0.0,0.0,0.0,0.0,0.0,0.0,0.0,0.0,0.0,0.0,0.0,0.0,0.0,0.0,0.0,0.0,0.0,0.0,0.0,0.0,3.4037,3.5232,3.6091,3.6635,3.6409,3.6212,0.0,0.0,0.0,0.0,0.0,0.0,0.0,0.0,0.0,0.0,0.0,0.0,0.0,0.0,0.0,0.0,0.0,0.0,0.0,0.0,0.0,0.0,0.0,0.0,0.0,0.0,0.0,0.0,0.0,0.0,0.0,0.0,0.0,0.0,0.0,0.0,0.0,0.0,0.0,0.0,0.0,0.0,0.0,0.0,0.0,0.0,0.0,0.0,0.0,0.0,0.0,0.0,0.0,0.0,0.0,0.0,0.0,0.0,0.0,0.0,0.0,0.0,0.0,0.0,0.0,0.0,0.0,0.0,0.0,0.0,0.0,0.0,0.0,0.0,0.0,0.0,0.0,0.0,0.0,0.0,0.0,0.0,0.0,0.0,0.0,0.0,0.0,0.0,0.0,0.0,0.0,0.0,0.0,0.0,0.0,0.0,0.0,0.0,0.0,0.0,0.0,0.0,0.0,0.0,0.0,0.0,0.0,0.0,0.0,3.5362,3.6501,3.7226,3.7447,3.712,3.6645,0.0,0.0,0.0,0.0,0.0,0.0,0.0,0.0,0.0,0.0,0.0,0.0,0.0,0.0,0.0,0.0,0.0,0.0,0.0,0.0,0.0,0.0,0.0,0.0,0.0,0.0,0.0,0.0,0.0,0.0,0.0,0.0,0.0,0.0,0.0,0.0,0.0,0.0,0.0,0.0,0.0,0.0,0.0,0.0,0.0,0.0,0.0,0.0,0.0,0.0,0.0,0.0,0.0,0.0,0.0,0.0,0.0,0.0,0.0,0.0,0.0,0.0,0.0,0.0,0.0,0.0,0.0,0.0,0.0,0.0,0.0,0.0,0.0,0.0,0.0,0.0,0.0,0.0,0.0,0.0,0.0,0.0,0.0,0.0,0.0,0.0,0.0,0.0,0.0,0.0,0.0,0.0,0.0,0.0,0.0,0.0,0.0,0.0,0.0,0.0,0.0,0.0,0.0,0.0,0.0,0.0,0.0,0.0,3.6206,3.7988,3.8441,3.8657,3.8685,3.8253,3.7707,0.0,0.0,0.0,0.0,0.0,0.0,0.0,0.0,0.0,0.0,0.0,0.0,0.0,0.0,0.0,0.0,0.0,0.0,0.0,0.0,0.0,0.0,0.0,0.0,0.0,0.0,0.0,0.0,0.0,0.0,0.0,0.0,0.0,0.0,0.0,0.0,0.0,0.0,0.0,0.0,0.0,0.0,0.0,0.0,0.0,0.0,0.0,0.0,0.0,0.0,0.0,0.0,0.0,0.0,0.0,0.0,0.0,0.0,0.0,0.0,0.0,0.0,0.0,0.0,0.0,0.0,0.0,0.0,0.0,0.0,0.0,0.0,0.0,0.0,0.0,0.0,0.0,0.0,0.0,0.0,0.0,0.0,0.0,0.0,0.0,0.0,0.0,0.0,0.0,0.0,0.0,0.0,0.0,0.0,0.0,0.0,0.0,0.0,0.0,0.0,0.0,0.0,0.0,0.0,0.0,0.0,0.0,0.0,0.0,3.9342,3.9458,3.9397,3.9121,3.8438,3.7841,0.0,0.0,0.0,0.0,0.0,0.0,0.0,0.0,0.0,0.0,0.0,0.0,0.0,0.0,0.0,0.0,0.0,0.0,0.0,0.0,0.0,0.0,0.0,0.0,0.0,0.0,0.0,0.0,0.0,0.0,0.0,0.0,0.0,0.0,0.0,0.0,0.0,0.0,0.0,0.0,0.0,0.0,0.0,0.0,0.0,0.0,0.0,0.0,0.0,0.0,0.0,0.0,0.0,0.0,0.0,0.0,0.0,0.0,0.0,0.0,0.0,0.0,0.0,0.0,0.0,0.0,0.0,0.0,0.0,0.0,0.0,0.0,0.0,0.0,0.0,0.0,0.0,0.0,0.0,0.0,0.0,0.0,0.0,0.0,0.0,0.0,0.0,0.0,0.0,0.0,0.0,0.0,0.0,0.0,0.0,0.0,0.0,0.0,0.0,0.0,0.0,0.0,0.0,0.0,0.0,0.0,0.0,0.0,0.0,4.2064,4.126,4.0682,4.0428,3.921,3.8433,3.8142,0.0,0.0,0.0,0.0,0.0,0.0,0.0,0.0,0.0,0.0,0.0,0.0,0.0,0.0,0.0,0.0,0.0,0.0,0.0,0.0,0.0,0.0,0.0,0.0,0.0,0.0,0.0,0.0,0.0,0.0,0.0,0.0,0.0,0.0,0.0,0.0,0.0,0.0,0.0,0.0,0.0,0.0,0.0,0.0,0.0,0.0,0.0,0.0,0.0,0.0,0.0,0.0,0.0,0.0,0.0,0.0,0.0,0.0,0.0,0.0,0.0,0.0,0.0,0.0,0.0,0.0,0.0,0.0,0.0,0.0,0.0,0.0,0.0,0.0,0.0,0.0,0.0,0.0,0.0,0.0,0.0,0.0,0.0,0.0,0.0,0.0,0.0,0.0,0.0,0.0,0.0,0.0,0.0,0.0,0.0,0.0,0.0,0.0,0.0,0.0,0.0,0.0,0.0,0.0,0.0,0.0,0.0,0.0,4.5856,4.3672,4.2461,4.2306,4.052,3.9431,0.0,0.0,0.0,0.0,0.0,0.0,0.0,0.0,0.0,0.0,0.0,0.0,0.0,0.0,0.0,0.0,0.0,0.0,0.0,0.0,0.0,0.0,0.0,0.0,0.0,0.0,0.0,0.0,0.0,0.0,0.0,0.0,0.0,0.0,0.0,0.0,0.0,0.0,0.0,0.0,0.0,0.0,0.0,0.0,0.0,0.0,0.0,0.0,0.0,0.0,0.0,0.0,0.0,0.0,0.0,0.0,0.0,0.0,0.0,0.0,0.0,0.0,0.0,0.0,0.0,0.0,0.0,0.0,0.0,0.0,0.0,0.0,0.0,0.0,0.0,0.0,0.0,0.0,0.0,0.0,0.0,0.0,0.0,0.0,0.0,0.0,0.0,0.0,0.0,0.0,0.0,0.0,0.0,0.0,0.0,0.0,0.0,0.0,0.0,0.0,0.0,0.0,0.0,0.0,0.0,0.0,0.0,0.0,0.0,4.5397,4.5123,4.4387,4.324,4.2377,4.1125,0.0,0.0,0.0,0.0,0.0,0.0,0.0,0.0,0.0,0.0,0.0,0.0,0.0,0.0,0.0,0.0,0.0,0.0,0.0,0.0,0.0,0.0,0.0,0.0,0.0,0.0,0.0,0.0,0.0,0.0,0.0,0.0,0.0,0.0,0.0,0.0,0.0,0.0,0.0,0.0,0.0,0.0,0.0,0.0,0.0,0.0,0.0,0.0,0.0,0.0,0.0,0.0,0.0,0.0,0.0,0.0,0.0,0.0,0.0,0.0,0.0,0.0,0.0,0.0,0.0,0.0,0.0,0.0,0.0,0.0,0.0,0.0,0.0,0.0,0.0,0.0,0.0,0.0,0.0,0.0,0.0,0.0,0.0,0.0,0.0,0.0,0.0,0.0,0.0,0.0,0.0,0.0,0.0,0.0,0.0,0.0,0.0,0.0,0.0,0.0,0.0,0.0,0.0,0.0,0.0,0.0,0.0,0.0,4.6394,4.7107,4.7677,4.7205,4.5553,4.398,4.2339,0.0,0.0,0.0,0.0,0.0,0.0,0.0,0.0,0.0,0.0,0.0,0.0,0.0,0.0,0.0,0.0,0.0,0.0,0.0,0.0,0.0,0.0,0.0,0.0,0.0,0.0,0.0,0.0,0.0,0.0,0.0,0.0,0.0,0.0,0.0,0.0,0.0,0.0,0.0,0.0,0.0,0.0,0.0,0.0,0.0,0.0,0.0,0.0,0.0,0.0,0.0,0.0,0.0,0.0,0.0,0.0,0.0,0.0,0.0,0.0,0.0,0.0,0.0,0.0,0.0,0.0,0.0,0.0,0.0,0.0,0.0,0.0,0.0,0.0,0.0,0.0,0.0,0.0,0.0,0.0,0.0,0.0,0.0,0.0,0.0,0.0,0.0,0.0,0.0,0.0,0.0,0.0,0.0,0.0,0.0,0.0,0.0,0.0,0.0,0.0,0.0,0.0,0.0,0.0,0.0,0.0,0.0,0.0,4.8122,4.9684,5.0435,5.0068,4.8573,4.5608,4.3515,0.0,0.0,0.0,0.0,0.0,0.0,0.0,0.0,0.0,0.0,0.0,0.0,0.0,0.0,0.0,0.0,0.0,0.0,0.0,0.0,0.0,0.0,0.0,0.0,0.0,0.0,0.0,0.0,0.0,0.0,0.0,0.0,0.0,0.0,0.0,0.0,0.0,0.0,0.0,0.0,0.0,0.0,0.0,0.0,0.0,0.0,0.0,0.0,0.0,0.0,0.0,0.0,0.0,0.0,0.0,0.0,0.0,0.0,0.0,0.0,0.0,0.0,0.0,0.0,0.0,0.0,0.0,0.0,0.0,0.0,0.0,0.0,0.0,0.0,0.0,0.0,0.0,0.0,0.0,0.0,0.0,0.0,0.0,0.0,0.0,0.0,0.0,0.0,0.0,0.0,0.0,0.0,0.0,0.0,0.0,0.0,0.0,0.0,0.0,0.0,0.0,0.0,0.0,0.0,0.0,0.0,0.0,0.0,4.9564,5.0508,5.0729,5.0659,5.0343,4.8466,4.6112,0.0,0.0,0.0,0.0,0.0,0.0,0.0,0.0,0.0,0.0,0.0,0.0,0.0,0.0,0.0,0.0,0.0,0.0,0.0,0.0,0.0,0.0,0.0,0.0,0.0,0.0,0.0,0.0,0.0,0.0,0.0,0.0,0.0,0.0,0.0,0.0,0.0,0.0,0.0,0.0,0.0,0.0,0.0,0.0,0.0,0.0,0.0,0.0,3.5633,0.0,0.0,0.0,0.0,0.0,0.0,0.0,0.0,0.0,0.0,0.0,0.0,0.0,0.0,0.0,0.0,0.0,0.0,0.0,0.0,0.0,0.0,0.0,0.0,0.0,0.0,0.0,0.0,0.0,0.0,0.0,0.0,0.0,0.0,0.0,0.0,0.0,0.0,0.0,0.0,0.0,0.0,0.0,0.0,0.0,0.0,0.0,0.0,0.0,0.0,0.0,0.0,0.0,0.0,0.0,0.0,0.0,0.0,0.0,5.1072,5.1504,5.1872,5.1902,5.1519,5.0414,4.8218,0.0,0.0,0.0,0.0,0.0,0.0,0.0,0.0,0.0,0.0,0.0,0.0,0.0,0.0,0.0,0.0,0.0,0.0,0.0,0.0,0.0,0.0,0.0,0.0,0.0,0.0,0.0,0.0,0.0,0.0,0.0,0.0,0.0,0.0,0.0,0.0,0.0,0.0,0.0,0.0,0.0,0.0,0.0,0.0,0.0,0.0,0.0,0.0,0.0,0.0,0.0,0.0,0.0,0.0,0.0,0.0,0.0,0.0,0.0,0.0,0.0,0.0,0.0,0.0,0.0,0.0,0.0,0.0,0.0,0.0,0.0,0.0,0.0,0.0,0.0,0.0,0.0,0.0,0.0,0.0,0.0,0.0,0.0,0.0,0.0,0.0,0.0,0.0,0.0,0.0,0.0,0.0,0.0,0.0,0.0,0.0,0.0,0.0,0.0,0.0,0.0,0.0,0.0,0.0,0.0,0.0,0.0,5.1311,5.2484,5.253,5.338,5.3427,5.254,5.1915,5.0,4.6737,0.0,0.0,0.0,0.0,0.0,0.0,0.0,0.0,0.0,0.0,0.0,0.0,0.0,0.0,0.0,0.0,0.0,0.0,0.0,0.0,0.0,0.0,0.0,0.0,0.0,0.0,0.0,0.0,0.0,0.0,0.0,0.0,0.0,0.0,0.0,0.0,0.0,0.0,3.4852,3.6461,0.0,0.0,0.0,0.0,0.0,0.0,0.0,0.0,3.8262,0.0,0.0,0.0,0.0,0.0,0.0,0.0,0.0,0.0,0.0,0.0,0.0,0.0,0.0,0.0,0.0,0.0,0.0,0.0,0.0,0.0,0.0,0.0,0.0,0.0,0.0,0.0,0.0,0.0,0.0,0.0,0.0,0.0,0.0,0.0,0.0,0.0,0.0,0.0,0.0,0.0,0.0,0.0,0.0,0.0,0.0,0.0,0.0,0.0,0.0,0.0,0.0,0.0,0.0,0.0,0.0,5.0683,5.241,5.3296,5.3343,5.4747,5.4862,5.3526,5.3361,5.1769,4.8541,0.0,0.0,0.0,0.0,0.0,0.0,0.0,0.0,0.0,0.0,0.0,0.0,0.0,0.0,0.0,0.0,0.0,0.0,0.0,0.0,0.0,0.0,0.0,0.0,0.0,0.0,0.0,0.0,0.0,0.0,0.0,0.0,0.0,0.0,0.0,0.0,0.0,0.0,0.0,3.961,4.0298,0.0,0.0,0.0,0.0,0.0,0.0,0.0,0.0,3.9717,0.0,0.0,0.0,0.0,0.0,0.0,0.0,0.0,0.0,0.0,0.0,0.0,0.0,0.0,0.0,0.0,0.0,0.0,0.0,0.0,0.0,0.0,0.0,0.0,0.0,0.0,0.0,0.0,0.0,0.0,0.0,0.0,0.0,0.0,0.0,0.0,0.0,0.0,0.0,0.0,0.0,0.0,0.0,0.0,0.0,0.0,0.0,0.0,0.0,0.0,0.0,0.0,0.0,0.0,0.0,5.1871,5.3464,5.4279,5.4316,5.5465,5.5374,5.3819,5.3745,5.2233,0.0,0.0,0.0,0.0,0.0,0.0,0.0,0.0,0.0,0.0,0.0,0.0,0.0,0.0,0.0,0.0,0.0,0.0,0.0,0.0,0.0,0.0,0.0,0.0,0.0,0.0,0.0,0.0,0.0,0.0,0.0,0.0,0.0,0.0,0.0,0.0,0.0,0.0,0.0,0.0,4.0694,4.1655,4.1409,0.0,0.0,0.0,0.0,0.0,0.0,4.0942,4.0537,0.0,0.0,0.0,0.0,0.0,0.0,0.0,0.0,0.0,0.0,0.0,0.0,0.0,0.0,0.0,0.0,0.0,0.0,0.0,0.0,0.0,0.0,0.0,0.0,0.0,0.0,0.0,0.0,0.0,0.0,0.0,0.0,0.0,0.0,0.0,0.0,0.0,0.0,0.0,0.0,0.0,0.0,0.0,0.0,0.0,0.0,0.0,0.0,0.0,0.0,0.0,0.0,0.0,0.0,0.0,5.2605,5.4342,5.527,5.527,5.6097,5.5837,5.4342,5.4119,5.2568,0.0,0.0,0.0,0.0,0.0,0.0,0.0,0.0,0.0,0.0,0.0,0.0,0.0,0.0,0.0,0.0,0.0,0.0,0.0,0.0,0.0,0.0,0.0,0.0,0.0,0.0,0.0,0.0,0.0,0.0,0.0,0.0,0.0,0.0,0.0,0.0,0.0,0.0,0.0,0.0,0.0,4.3067,4.3166,4.4431,0.0,0.0,0.0,0.0,4.2767,4.2205,0.0,0.0,0.0,0.0,0.0,0.0,0.0,0.0,0.0,0.0,0.0,0.0,0.0,0.0,0.0,0.0,0.0,0.0,0.0,0.0,0.0,0.0,0.0,0.0,0.0,0.0,0.0,0.0,0.0,0.0,0.0,0.0,0.0,0.0,0.0,0.0,0.0,0.0,0.0,0.0,0.0,0.0,0.0,0.0,0.0,0.0,0.0,0.0,0.0,0.0,0.0,0.0,0.0,0.0,0.0,0.0,5.2605,5.4936,5.6172,5.6209,5.6952,5.6915,5.6023,5.528,5.371,0.0,0.0,0.0,0.0,0.0,0.0,0.0,0.0,0.0,0.0,0.0,0.0,0.0,0.0,0.0,0.0,0.0,0.0,0.0,0.0,0.0,0.0,0.0,0.0,0.0,0.0,0.0,0.0,0.0,0.0,0.0,0.0,0.0,0.0,0.0,0.0,0.0,0.0,0.0,0.0,0.0,4.5605,4.5975,4.7331,4.8038,0.0,0.0,4.8052,4.7915,4.7007,0.0,0.0,0.0,0.0,0.0,0.0,0.0,0.0,0.0,0.0,0.0,0.0,0.0,0.0,0.0,0.0,0.0,0.0,0.0,0.0,0.0,0.0,0.0,0.0,0.0,0.0,0.0,0.0,0.0,0.0,0.0,0.0,0.0,0.0,0.0,0.0,0.0,0.0,0.0,0.0,0.0,0.0,0.0,0.0,0.0,0.0,0.0,0.0,0.0,0.0,0.0,0.0,0.0,0.0,0.0,5.2345,5.398,5.5939,5.6989,5.6989,5.7313,5.7138,5.632,5.5949,5.4574,0.0,0.0,0.0,0.0,0.0,0.0,0.0,0.0,0.0,0.0,0.0,0.0,0.0,0.0,0.0,0.0,0.0,0.0,0.0,0.0,0.0,0.0,0.0,0.0,0.0,0.0,0.0,0.0,0.0,0.0,0.0,0.0,0.0,0.0,0.0,0.0,0.0,0.0,0.0,0.0,0.0,0.0,4.7395,4.8639,0.0,0.0,0.0,4.917,4.831,0.0,0.0,0.0,0.0,0.0,0.0,0.0,0.0,0.0,0.0,0.0,0.0,0.0,0.0,0.0,0.0,0.0,0.0,0.0,0.0,0.0,0.0,0.0,0.0,0.0,0.0,0.0,0.0,0.0,0.0,0.0,0.0,0.0,0.0,0.0,0.0,0.0,0.0,0.0,0.0,0.0,0.0,0.0,0.0,0.0,0.0,0.0,0.0,0.0,0.0,0.0,0.0,0.0,0.0,0.0,0.0,0.0,5.5307,5.6756,5.7685,5.8056,5.7695,5.7387,5.7212,5.6617,0.0,0.0,0.0,0.0,0.0,0.0,0.0,0.0,0.0,0.0,0.0,0.0,0.0,0.0,0.0,0.0,0.0,0.0,0.0,0.0,0.0,0.0,0.0,0.0,0.0,0.0,0.0,3.6332,0.0,0.0,0.0,0.0,0.0,0.0,0.0,0.0,0.0,0.0,0.0,0.0,0.0,0.0,4.8065,4.9358,5.0415,5.0962,0.0,0.0,5.0853,4.9336,4.9565,4.9487,0.0,0.0,0.0,0.0,0.0,0.0,0.0,0.0,0.0,0.0,0.0,0.0,0.0,0.0,0.0,0.0,0.0,0.0,0.0,0.0,0.0,0.0,0.0,0.0,0.0,0.0,0.0,0.0,0.0,0.0,0.0,0.0,0.0,0.0,0.0,0.0,0.0,0.0,0.0,0.0,0.0,0.0,0.0,0.0,0.0,0.0,0.0,0.0,0.0,0.0,0.0,0.0,0.0,0.0,5.4537,5.6162,5.7053,5.8205,5.9616,5.8279,5.8205,5.9579,5.7462,5.658,0.0,0.0,0.0,0.0,0.0,0.0,0.0,0.0,0.0,0.0,0.0,0.0,0.0,0.0,0.0,0.0,0.0,0.0,0.0,0.0,0.0,0.0,0.0,0.0,0.0,0.0,0.0,0.0,0.0,0.0,0.0,0.0,0.0,0.0,0.0,0.0,0.0,0.0,0.0,0.0,0.0,5.1065,5.2653,5.356,5.4356,0.0,5.5185,5.466,5.3062,5.2842,5.2129,4.9821,0.0,0.0,0.0,0.0,0.0,0.0,0.0,0.0,0.0,0.0,0.0,0.0,0.0,0.0,0.0,0.0,0.0,0.0,0.0,0.0,0.0,0.0,0.0,0.0,0.0,0.0,0.0,0.0,0.0,0.0,0.0,0.0,0.0,0.0,0.0,0.0,0.0,0.0,0.0,0.0,0.0,0.0,0.0,0.0,0.0,0.0,0.0,0.0,0.0,0.0,0.0,0.0,0.0,5.5912,5.7026,5.7833,5.8762,5.9802,5.8316,5.8539,6.0656,5.8326,5.7425,0.0,0.0,0.0,0.0,0.0,0.0,0.0,0.0,0.0,0.0,0.0,0.0,0.0,0.0,0.0,0.0,0.0,0.0,0.0,0.0,0.0,0.0,0.0,0.0,0.0,0.0,0.0,0.0,4.3351,4.3484,4.3102,0.0,0.0,0.0,0.0,0.0,0.0,0.0,0.0,0.0,0.0,5.2123,5.3691,5.462,0.0,0.0,5.5622,5.5401,5.4766,5.4656,5.4216,5.2795,5.2123,0.0,0.0,0.0,0.0,0.0,0.0,0.0,0.0,0.0,0.0,0.0,0.0,0.0,0.0,0.0,0.0,0.0,0.0,0.0,0.0,0.0,0.0,0.0,0.0,0.0,0.0,0.0,0.0,0.0,0.0,0.0,0.0,0.0,0.0,0.0,0.0,0.0,0.0,0.0,0.0,0.0,0.0,0.0,0.0,0.0,0.0,0.0,0.0,0.0,0.0,0.0,0.0,5.7435,5.8205,5.8772,5.9579,6.0619,5.9329,5.9441,6.1076,5.9515,5.8772,0.0,0.0,0.0,0.0,0.0,0.0,0.0,0.0,0.0,0.0,0.0,0.0,0.0,0.0,0.0,0.0,0.0,0.0,0.0,0.0,0.0,0.0,0.0,0.0,0.0,0.0,0.0,0.0,4.578,4.5864,4.4718,0.0,0.0,0.0,0.0,0.0,0.0,0.0,0.0,0.0,0.0,5.3849,5.4987,5.5794,5.6319,5.6319,5.6319,5.6246,5.5989,5.5941,5.5695,5.4876,0.0,0.0,0.0,0.0,0.0,0.0,0.0,0.0,0.0,0.0,0.0,0.0,0.0,0.0,0.0,0.0,0.0,0.0,0.0,0.0,0.0,0.0,0.0,0.0,0.0,0.0,0.0,5.0153,0.0,0.0,5.0375,0.0,0.0,0.0,0.0,0.0,0.0,0.0,0.0,0.0,0.0,0.0,0.0,0.0,0.0,0.0,0.0,0.0,0.0,0.0,0.0,0.0,0.0,5.9043,5.9812,5.9871,6.0688,6.2249,6.1558,6.1171,6.1272,6.115,6.0741,5.9876,0.0,0.0,0.0,0.0,0.0,0.0,0.0,0.0,0.0,0.0,0.0,0.0,0.0,0.0,0.0,0.0,0.0,0.0,0.0,0.0,0.0,0.0,0.0,0.0,0.0,0.0,4.2772,4.525,4.7076,0.0,0.0,0.0,0.0,0.0,0.0,0.0,0.0,0.0,5.4106,5.5684,5.6712,5.6737,5.7446,5.785,5.7886,5.7886,5.7666,5.6884,5.6774,5.6492,0.0,0.0,0.0,0.0,0.0,0.0,0.0,0.0,0.0,0.0,0.0,0.0,0.0,0.0,0.0,0.0,0.0,0.0,0.0,0.0,0.0,0.0,0.0,0.0,0.0,0.0,0.0,5.3894,5.4945,0.0,0.0,0.0,0.0,0.0,0.0,0.0,0.0,0.0,0.0,0.0,5.8622,5.9672,0.0,0.0,0.0,0.0,0.0,0.0,0.0,0.0,0.0,0.0,0.0,0.0,6.1084,6.1115,6.1375,6.2306,6.3917,6.321,6.32,6.3961,6.295,6.1898,6.0778,0.0,0.0,0.0,0.0,0.0,0.0,0.0,0.0,0.0,0.0,0.0,0.0,0.0,0.0,0.0,0.0,0.0,0.0,0.0,0.0,0.0,0.0,0.0,0.0,0.0,4.7979,0.0,0.0,0.0,0.0,0.0,0.0,0.0,0.0,0.0,0.0,5.2601,5.4179,5.5794,5.6492,5.6994,5.7519,5.7813,5.7997,0.0,0.0,0.0,0.0,0.0,0.0,0.0,0.0,0.0,0.0,0.0,0.0,0.0,0.0,5.2491,5.0362,4.9948,4.9738,4.8903,0.0,0.0,0.0,0.0,0.0,0.0,0.0,0.0,0.0,0.0,0.0,0.0,0.0,0.0,5.671,5.7757,5.8091,0.0,0.0,0.0,0.0,0.0,0.0,0.0,0.0,6.1047,6.1684,6.1536,6.2825,6.3598,6.3828,6.2678,6.0612,0.0,0.0,0.0,0.0,0.0,0.0,0.0,0.0,6.3029,6.2824,6.302,6.3984,6.553,6.5169,6.512,6.5576,6.404,6.2852,6.2013,6.0665,5.9916,0.0,0.0,0.0,0.0,0.0,0.0,0.0,0.0,0.0,0.0,0.0,0.0,0.0,0.0,0.0,0.0,0.0,0.0,0.0,0.0,0.0,0.0,0.0,5.1899,0.0,0.0,0.0,0.0,0.0,0.0,0.0,0.0,0.0,5.3455,5.4399,5.5831,5.7435,5.7618,5.7912,5.8731,0.0,0.0,0.0,0.0,0.0,0.0,0.0,5.9013,5.851,5.818,5.7923,5.7691,5.6969,5.6528,5.6785,0.0,0.0,5.2894,5.2454,5.2234,5.1436,5.1216,5.0949,5.0168,5.0215,5.0819,0.0,0.0,0.0,0.0,5.8622,0.0,0.0,0.0,5.863,5.8675,0.0,5.9654,0.0,0.0,0.0,0.0,6.0457,6.1208,0.0,0.0,6.4231,6.4666,6.466,6.4737,6.5166,6.5859,6.4275,6.368,6.3891,6.087,0.0,0.0,0.0,0.0,0.0,0.0,6.492,6.4903,6.4929,6.5726,6.7291,6.7367,6.6978,6.6143,6.457,6.371,6.355,6.2783,6.1595,6.0002,5.9842,0.0,0.0,0.0,0.0,0.0,0.0,0.0,0.0,0.0,0.0,0.0,0.0,0.0,0.0,0.0,0.0,0.0,0.0,0.0,0.0,5.3273,0.0,0.0,0.0,0.0,0.0,0.0,0.0,0.0,0.0,5.7483,5.5989,5.6455,5.7471,5.9013,0.0,0.0,0.0,0.0,6.0382,6.0346,6.037,6.037,6.037,5.9747,5.9306,5.9221,0.0,0.0,5.9086,5.8584,5.8327,5.9086,5.7912,5.6638,5.5875,5.5533,5.5218,5.4473,5.4252,5.4116,5.3429,5.2673,5.2657,6.2945,0.0,0.0,0.0,0.0,6.13,6.1415,6.1869,6.13,6.1722,6.2872,6.3134,0.0,0.0,0.0,0.0,0.0,0.0,6.4251,6.5166,6.6013,6.6404,6.6397,6.7006,6.743,6.7628,6.6551,6.6096,6.6178,6.468,6.4011,6.4115,0.0,0.0,0.0,0.0,6.7247,6.697,6.724,6.7887,6.8998,6.8998,6.8748,6.8221,6.694,6.5918,6.532,6.4515,6.3613,6.2551,6.1329,0.0,0.0,0.0,0.0,0.0,0.0,0.0,0.0,0.0,0.0,0.0,0.0,0.0,0.0,0.0,0.0,0.0,0.0,0.0,5.3581,5.5363,5.663,0.0,0.0,0.0,0.0,0.0,0.0,0.0,0.0,0.0,5.9098,5.9208,5.9526,0.0,0.0,6.015,6.037,6.0407,6.0407,6.0407,6.0407,0.0,6.0407,6.0676,6.0713,6.015,5.9869,5.9795,6.0003,5.9869,5.9783,6.0015,5.9233,5.8529,5.8485,5.6908,5.5644,5.528,5.5254,5.53,5.5299,5.5158,5.5262,6.6276,6.5276,6.4628,6.4128,6.3814,6.3672,6.3474,6.3275,6.3166,6.3474,6.4083,6.4429,6.5089,6.5904,6.5667,0.0,0.0,0.0,6.6051,6.6936,6.7744,6.8129,6.8167,6.8667,6.9084,6.9321,6.8205,6.7782,6.8129,6.7282,6.6853,6.6734,0.0,6.7293,6.8681,6.9186,6.9278,6.9044,6.9271,6.9667,7.0167,7.0167,6.9893,6.9343,6.8609,6.7817,6.6986,6.6482,6.5841,6.5009,6.3703,6.2566,0.0,0.0,0.0,0.0,0.0,0.0,0.0,0.0,0.0,0.0,0.0,5.193,5.1289,0.0,0.0,0.0,5.6862,5.7884,5.7401,5.8984,0.0,0.0,0.0,0.0,0.0,0.0,0.0,5.8767,6.026,6.1484,6.1814,6.2144,6.2095,6.1435,6.163,6.1998,6.2291,0.0,6.2316,6.2316,6.2365,6.2352,6.2316,6.2475,6.223,6.1043,6.0603,6.0419,6.0407,6.0407,6.0407,6.0346,6.0003,5.9789,6.0236,5.8894,5.7526,5.691,5.6937,5.7066,5.7158,5.7278,5.752,6.8584,6.8468,6.6936,6.5743,6.4968,6.5788,6.5205,6.3775,6.4545,6.4429,6.3775,6.4545,6.5359,6.6128,6.6865,0.0,6.7282,6.7327,6.7821,6.8737,6.9552,6.9937,7.0014,7.0014,7.0398,7.1091,6.9545,6.9199,6.9937,6.9199,6.9199,6.9937,6.9199,6.9507,7.0821,7.1052,7.1052,7.0898,7.0975,7.0975,7.0898,7.0898,7.0552,6.9814,6.9821,6.943,6.8737,6.8615,6.8244,6.7558,6.6596,6.5782,6.4968,0.0,0.0,0.0,0.0,0.0,0.0,0.0,0.0,0.0,0.0,0.0,0.0,0.0,0.0,5.8918,6.1177,0.0,6.1939,6.332,0.0,0.0,0.0,6.2372,6.1908,6.1236,6.1065,6.1813,0.0,0.0,6.4166,6.4962,6.4899,6.338,6.3759,6.4457,6.5191,6.5178,6.5325,6.5105,6.5251,6.5251,6.4958,6.453,6.3649,6.2291,6.1263,6.0994,6.0958,6.086,6.075,6.0907,6.0675,6.0692,6.1176,6.1119,6.071,5.9115,5.9051,5.9131,5.886,5.8961,5.9138,7.0283,7.0283,6.986,6.8859,6.7507,6.7699,6.7583,6.7199,6.7391,6.7391,6.7199,6.7391,6.7622,6.7814,6.8007,6.8436,6.909,6.909,6.986,7.1245,7.1521,7.1975,7.2584,7.2584,7.2699,7.2853,7.2469,7.2392,7.2584,7.2392,7.2392,7.2584,7.2392,7.1815,7.0975,7.2199,7.2245,7.0937,7.1559,7.1552,7.0937,7.0898,7.0821,7.0629,7.0591,7.0821,7.1245,7.0667,7.0514,7.0905,6.8975,6.8007,6.8436,6.6583,0.0,0.0,0.0,0.0,0.0,0.0,0.0,0.0,0.0,5.9543,5.8737,0.0,6.3892,0.0,6.3791,6.4385,6.3699,6.4766,0.0,0.0,6.4487,6.4499,6.4095,6.4111,6.4262,6.4486,6.5224,6.5669,6.5551,6.6271,6.6729,6.6518,6.5668,6.5081,6.5288,6.5325,6.5325,6.5362,6.5398,6.5325,6.5362,6.5141,6.4897,6.4494,6.4237,6.415,6.4114,6.3613,6.3297,6.3511,6.2653,6.2138,6.2429,6.225,6.1807,6.1082,6.0557,6.0247,6.0381,6.0042,5.976,7.1706,7.2052,7.2045,7.1507,7.0584,6.9853,6.9084,6.843,6.8814,6.8776,6.843,6.8814,6.9584,7.0622,7.0276,7.0584,7.1353,7.1398,7.1898,7.2745,7.2783,7.3046,7.3469,7.3507,7.3507,7.3507,7.3507,7.3507,7.3507,7.3507,7.3507,7.3507,7.3853,7.3353,7.2168,7.3392,7.3738,7.3168,7.2521,7.1944,7.1475,7.1091,7.1245,7.2014,7.1706,7.2052,7.3245,7.2129,7.2059,7.3168,7.1248,7.028,7.0744,6.9518,6.8844,0.0,0.0,0.0,0.0,0.0,0.0,0.0,0.0,0.0,0.0,0.0,6.6812,6.5642,6.6122,6.6502,6.6449,6.7028,6.7329,6.7065,6.7212,6.7211,6.6786,6.6977,6.7249,6.7587,6.8027,6.8258,6.8168,6.8542,6.8766,6.8773,6.7981,6.743,6.743,6.743,6.743,6.743,6.7123,6.6756,6.6439,6.6243,6.6149,6.6112,6.5853,6.5607,6.5595,6.5063,6.4781,6.512,6.4553,6.4154,6.4678,6.4329,6.3923,6.3818,6.2959,6.2105,6.1637,6.1381,6.1241,7.2822,7.3507,7.3507,7.3507,7.3392,7.186,7.0398,6.9084,6.9853,6.9776,6.9084,6.9853,7.1398,7.343,7.2706,7.2783,7.3469,7.3507,7.3546,7.3661,7.3661,7.3699,7.3815,7.3815,7.3815,7.3815,7.3815,7.3815,7.3815,7.3815,7.3815,7.3853,7.4514,7.4546,7.4046,7.4591,7.5207,7.5784,7.3637,7.2514,7.2521,7.1783,7.2129,7.3507,7.2822,7.3053,7.443,7.3129,7.3091,7.4546,7.3128,7.2352,7.2462,7.173,7.0611,0.0,6.9138,0.0,0.0,0.0,0.0,0.0,0.0,0.0,0.0,6.7408,6.844,6.8555,6.8555,6.886,6.9616,6.9693,6.9845,7.0164,7.0203,7.0071,6.9735,6.9683,6.9947,7.0652,7.0717,7.0798,7.0903,7.1006,7.0809,7.0494,7.0414,7.0391,7.0518,7.0256,6.9954,7.0101,6.9522,6.8641,6.8131,6.7786,6.7642,6.7615,6.7107,6.6521,6.6665,6.6124,6.5792,6.6218,6.6202,6.6331,6.7184,6.6648,6.6353,6.65,6.5512,6.423,6.2943,6.262,6.2877,7.3353,7.3507,7.3507,7.3507,7.3469,7.3161,7.2815,7.2545,7.2699,7.2699,7.2545,7.2699,7.3046,7.3469,7.3322,7.3315,7.3507,7.3507,7.3853,7.4476,7.4469,7.4853,7.5515,7.5515,7.5515,7.5515,7.5553,7.5515,7.5553,7.5553,7.5515,7.5515,7.5668,7.6015,7.6515,0.0,0.0,0.0,7.4469,7.4245,7.4245,7.4091,7.413,7.443,7.3661,0.0,7.3699,7.3392,7.3699,7.4584,7.3666,0.0,0.0,0.0,0.0,0.0,0.0,0.0,0.0,0.0,0.0,0.0,7.1411,7.0976,6.884,7.0047,7.1268,7.1947,7.2032,7.21,7.2253,7.2299,7.2312,7.2406,7.2388,7.2362,7.2301,7.2292,7.233,7.2483,7.2474,7.2366,7.2071,7.202,7.2095,7.2202,7.2278,7.254,7.3103,7.1752,7.0589,7.0161,7.006,6.9858,6.9669,6.959,6.9627,6.9904,6.9434,6.9095,6.9267,6.8278,6.7557,6.7924,6.7514,6.7117,6.7361,6.7419,6.746,6.7256,6.7147,6.6514,6.4322,6.3344,6.2884,7.4353,7.4738,7.4738,7.4738,0.0,7.4745,7.4745,7.4668,7.3853,7.3738,7.4084,7.3661,7.3969,7.4707,7.4284,7.4315,7.4738,7.4738,7.4976,7.5322,7.5361,7.5553,7.5976,7.5976,7.5976,7.5976,7.5976,7.5976,7.5976,7.5976,7.5976,7.5976,7.5976,7.6207,7.663,7.6207,7.5784,7.5322,7.4938,7.47,7.47,7.4315,7.4514,7.5277,7.4546,0.0,0.0,0.0,0.0,0.0,0.0,0.0,0.0,7.5125,0.0,7.3865,7.3859,7.3835,7.3721,7.3357,7.2928,7.2422,7.3174,7.2923,7.1248,7.1857,7.2529,7.2949,7.2979,7.317,7.3552,7.359,7.3743,7.4172,7.4248,7.4248,7.4248,7.4248,7.421,7.424,7.4248,7.4032,7.3562,7.3464,7.3443,7.3398,7.3383,7.3544,7.381,7.311,7.2186,7.1528,7.1416,7.1267,7.0933,7.1043,7.1247,7.1423,7.1204,7.1029,7.1254,7.0438,6.9761,6.972,6.9361,6.9076,6.8835,6.8709,6.8499,6.8282,6.8052,6.7591,6.6224,6.5375,6.4649,7.5361,7.5976,7.5976,7.5976,7.5976,7.5976,7.5976,7.5899,7.4553,0.0,0.0,7.4238,7.47,7.5938,7.5245,7.5322,7.5976,7.5976,7.5976,7.5976,7.5976,7.5976,7.5976,7.5976,7.5976,7.6015,7.613,7.6245,7.6245,7.6361,7.6438,7.6438,7.6438,7.6438,7.6438,7.6438,7.6438,7.6399,7.5592,7.5168,7.5161,7.4507,7.4822,7.6207,7.5399,7.5515,7.6753,7.5462,7.5339,7.6692,7.5948,7.5577,7.5833,7.5666,7.4962,7.3661,7.3573,7.3549,7.3454,7.3505,7.3513,7.3446,7.4049,7.4087,7.3284,7.3361,7.3446,7.3446,7.3437,7.3705,7.4354,7.4422,7.4698,7.5433,7.5509,7.5471,7.5471,7.5509,7.5395,7.5509,7.5433,7.5318,7.4856,7.4807,7.4705,7.4353,7.4282,7.427,7.4248,7.406,7.3634,7.3188,7.2984,7.271,7.2274,7.2348,7.2616,7.274,7.2629,7.2556,7.2537,7.2177,7.1728,7.138,7.1371,7.1167,7.0879,7.022,6.9693,6.9663,6.8967,6.8287,6.8096,6.7591,6.6865,7.5899,7.5976,7.5976,7.5976,7.5976,7.5976,7.5976,7.5976,7.5745,7.5707,7.5822,7.5707,7.5784,7.5976,7.5861,7.5899,7.5976,7.5976,7.5976,7.5976,7.5976,7.5976,7.5976,7.5976,7.5976,7.6053,7.6746,7.7099,7.7215,7.7792,7.8138,7.8138,7.8138,7.8099,7.8138,7.8176,7.8138,7.8138,7.7369,7.6938,7.6938,7.683,7.6868,7.7061,7.6284,7.5553,7.5084,7.4795,7.4727,7.495,7.4672,7.485,7.5586,7.5587,7.5412,7.5183,7.5162,7.5191,7.5165,7.5136,7.5183,7.5165,7.5242,7.4974,7.4163,7.4736,7.5165,7.5165,7.5127,7.5204,7.5318,7.5318,7.5356,7.5471,7.5509,7.5509,7.5509,7.5509,7.5509,7.5509,7.5509,7.5501,7.5383,7.5327,7.53,7.5263,7.5218,7.5274,7.5142,7.4529,7.4183,7.4314,7.4092,7.3793,7.3658,7.3703,7.3889,7.4285,7.375,7.3497,7.3814,7.333,7.2855,7.2732,7.2676,7.2635,7.252,7.1956,7.1382,7.1229,7.0533,6.9807,6.9234,6.8929,6.8547,7.5976,7.5976,7.5976,7.5976,7.5976,7.5976,7.5976,7.5976,7.5976,7.5976,7.5976,7.5976,7.5976,7.5976,7.5976,7.5976,7.5976,7.5976,7.5976,7.5976,7.5976,7.5976,7.6053,7.6484,7.6714,7.6784,7.7561,7.7946,7.7984,7.833,7.8484,7.8484,7.8484,7.8484,7.8484,7.8484,7.8484,7.8484,7.8138,7.7946,7.7946,7.7946,7.7984,7.7946,7.7553,7.7146,7.6747,7.6678,7.664,7.6631,7.647,7.6548,7.6931,7.6891,7.6838,7.6876,7.6838,7.6838,7.6885,7.6838,7.6838,7.6876,7.6838,7.6685,7.6294,7.6188,7.635,7.68,7.6838,7.6647,7.6188,7.615,7.6006,7.5548,7.5509,7.5509,7.5509,7.5509,7.5509,7.5509,7.5509,7.5509,7.5509,7.5509,7.5509,7.5509,7.5815,7.6159,7.6159,7.5789,7.5357,7.5181,7.4932,7.4833,7.4793,7.4814,7.4903,7.5114,7.4857,7.4702,7.4872,7.4516,7.4201,7.3743,7.3667,7.3476,7.317,7.2682,7.2452,7.2338,7.168,7.0992,7.0618,7.0572,6.9922,7.5976,7.5976,7.5976,7.5976,7.5976,7.5976,7.5976,7.5976,7.5976,7.5976,7.5976,7.5976,7.5976,7.5976,7.5976,7.5976,7.5976,7.5976,7.5976,7.6015,7.6207,7.6284,7.6399,7.7176,7.7561,7.7676,7.8407,7.8784,7.883,7.8984,7.91,7.91,7.91,7.91,7.91,7.91,7.9061,7.91,7.91,7.8907,7.8484,7.8484,7.8477,7.8492,7.8454,7.8446,7.8398,7.8374,7.8333,7.8258,7.8135,7.8053,7.8053,7.802,7.8022,7.8022,7.8022,7.8022,7.8022,7.8022,7.8022,7.8022,7.8022,7.8061,7.8213,7.7678,7.7449,7.7899,7.7946,7.7678,7.7144,7.6991,7.6723,7.615,7.6036,7.6159,7.6083,7.6083,7.6083,7.6044,7.6044,7.6121,7.6044,7.6044,7.6121,7.6274,7.6609,7.6953,7.6991,7.6991,7.6685,7.6197,7.5777,7.5474,7.5509,7.5483,7.5474,7.5509,7.5462,7.5415,7.5433,7.5586,7.5433,7.4775,7.4698,7.4507,7.3828,7.3399,7.3284,7.3208,7.2559,7.207,7.2253,7.2253,7.1412,7.5976,7.5976,7.5976,7.5976,7.5976,7.5976,7.5976,7.5976,7.5976,7.5976,7.5976,7.5976,7.6015,7.5976,7.5976,7.5976,7.5976,7.5976,7.6015,7.613,7.6823,7.7176,7.7253,7.8023,7.8407,7.8484,7.9285,7.9669,7.9708,8.0439,8.0823,8.0862,8.0862,8.0785,8.0823,8.0823,8.0823,8.0862,8.0862,8.01,7.86,7.8484,7.8439,7.8391,7.843,7.839,7.8415,7.8186,7.8143,7.8126,7.8123,7.8031,7.8031,7.8022,7.8022,7.8061,7.8052,7.8022,7.8022,7.8022,7.8099,7.8022,7.8099,7.8404,7.9101,7.9101,7.8719,7.829,7.8061,7.8061,7.7908,7.787,7.7793,7.7602,7.7602,7.7746,7.764,7.7793,7.7793,7.7793,7.7564,7.7755,7.7564,7.764,7.7717,7.764,7.7984,7.8175,7.8175,7.8137,7.8128,7.764,7.6618,7.5739,7.5662,7.5509,7.5739,7.5662,7.5586,7.57,7.5891,7.6197,7.6341,7.5883,7.5959,7.6036,7.5386,7.4698,7.424,7.4354,7.3858,7.317,7.3743,7.3972,7.3017,7.5976,7.5976,7.5976,7.5976,7.5976,7.5976,7.5976,7.5976,7.5976,7.5976,7.6092,7.6553,7.6476,7.6015,7.5976,7.5976,7.5976,7.5976,7.6284,7.6753,7.713,7.7522,7.8061,7.8861,7.9246,7.9361,8.0131,8.0554,8.0631,8.0939,8.1093,8.1093,8.1093,8.1093,8.1093,8.1093,8.1093,8.1093,8.1093,8.0723,8.003,7.9992,7.9977,7.9897,7.9889,7.9816,7.968,7.9598,7.9554,7.95,7.9493,7.9474,7.9474,7.9474,7.9474,7.9474,7.9474,7.9474,7.9474,7.9474,7.9474,7.9474,7.9474,7.9665,7.998,8.0018,7.9818,7.9589,7.9474,7.9321,7.8872,7.8748,7.8557,7.8137,7.8022,7.8022,7.8022,7.8022,7.8022,7.8022,7.8022,7.8022,7.8099,7.8481,7.8757,7.8939,7.9513,8.0124,8.0238,8.0238,8.0267,8.0047,7.8834,7.7611,7.7105,7.6991,7.6953,7.6953,7.6991,7.6991,7.6991,7.7182,7.7335,7.6991,7.7258,7.7335,7.7067,7.68,7.6456,7.6188,7.573,7.5195,7.5042,7.5348,7.5004,7.5976,7.6015,7.6245,7.6207,7.6015,7.6245,7.6361,7.6322,7.6092,7.613,7.6399,7.7015,7.6938,7.6438,7.6553,7.6669,7.6669,7.6669,7.7015,7.7638,7.7861,7.8284,7.89,7.9746,8.0162,8.0239,8.0785,8.1093,8.1093,8.1093,8.1093,8.1093,8.1093,8.1093,8.1093,8.1077,8.1061,8.1053,8.1037,8.091,8.069,8.0954,8.1035,8.0852,8.0813,8.0737,8.0587,8.0569,8.0542,8.0515,8.0506,8.0506,8.0506,8.0506,8.0506,8.0506,8.0506,8.0506,8.0506,8.0735,8.085,8.0888,8.1041,8.1165,8.1194,8.1194,8.1194,8.1165,8.1203,8.0821,7.9789,7.9636,7.9321,7.8787,7.8672,7.871,7.8748,7.8672,7.8748,7.8672,7.8863,7.8777,7.9083,7.9627,8.0095,8.0515,8.1356,8.2111,8.2149,8.2073,8.2073,8.2073,8.1012,7.9866,7.8672,7.7984,7.8061,7.8022,7.787,7.7831,7.8061,7.8137,7.809,7.7717,7.8099,7.8099,7.7717,7.7793,7.7984,7.7908,7.7564,7.7144,7.6885,7.7153,7.7335,7.5976,7.6169,7.6907,7.6784,7.6092,7.6899,7.7253,7.7176,7.6407,7.6515,7.7215,7.7407,7.733,7.7445,7.8215,7.8407,7.833,7.8292,7.8407,7.86,7.9285,7.97,7.9823,8.0631,8.1046,8.1115,8.1246,8.1231,8.1146,8.1092,8.1093,8.1069,8.1021,8.1053,8.1052,8.0923,8.091,8.0958,8.0928,8.0645,8.0275,8.0824,8.104,8.0724,8.0605,8.0647,8.0582,8.0544,8.0544,8.0544,8.0621,8.0592,8.0544,8.0582,8.0621,8.0582,8.0582,8.0582,8.0697,8.1308,8.1729,8.1843,8.2311,8.2808,8.2655,8.2655,8.2655,8.2846,8.2693,8.2082,8.0821,8.0621,8.0544,8.043,8.0353,8.0315,8.0353,8.0238,8.0391,8.0353,8.0353,8.0621,8.1423,8.1652,8.1996,8.2464,8.2884,8.3037,8.3066,8.3037,8.3037,8.3037,8.2693,8.2006,7.9827,7.9283,7.8634,7.8519,7.8863,7.8252,7.8366,7.8481,7.8481,7.8557,7.8939,7.8863,7.829,7.8099,7.8252,7.8404,7.8901,7.8719,7.849,7.8949,7.9025,7.7599,7.7638,7.7946,7.7869,7.7676,7.7946,7.8061,7.8023,7.7746,7.7792,7.8253,7.9215,7.9746,7.9785,8.1177,8.0562,7.8677,7.9054,7.9631,8.0131,8.0477,8.117,8.2208,8.2554,8.2638,8.2597,8.2638,8.2249,8.1492,8.1527,8.1043,8.0215,8.0449,8.0635,8.0663,8.0594,8.0801,8.1273,8.1317,8.1175,8.0961,8.1228,8.1263,8.1044,8.1124,8.1333,8.1565,8.1603,8.1738,8.2101,8.212,8.2082,8.2082,8.212,8.2073,8.212,8.212,8.2082,8.212,8.2388,8.2569,8.2569,8.2808,8.3076,8.2999,8.2999,8.2999,8.3037,8.3037,8.2617,8.235,8.212,8.2082,8.2034,8.1652,8.1347,8.1308,8.1308,8.1347,8.1385,8.1729,8.2273,8.2541,8.3028,8.3486,8.3792,8.425,8.448,8.4594,8.4594,8.4518,8.448,8.4136,8.3534,8.2846,8.1815,8.1156,8.0697,8.0468,8.0162,8.0086,7.9818,7.9742,7.9665,7.9933,7.978,7.9283,7.9283,7.9283,7.9436,7.9866,7.9827,8.0047,7.9904,7.9942,7.8484,7.8523,7.8792,7.8754,7.8523,7.8784,7.89,7.89,7.8938,7.9054,7.9592,8.0862,8.15,8.1745,8.3206,8.2614,8.0245,8.0722,8.1276,8.1776,8.1829,8.2331,8.3137,8.3448,8.3308,8.2979,8.3064,8.2626,8.1895,8.1902,8.1495,8.0787,8.1126,8.1321,8.1285,8.125,8.1428,8.158,8.1531,8.1395,8.1278,8.1451,8.1468,8.1288,8.154,8.1766,8.1899,8.1908,8.2047,8.2396,8.245,8.2513,8.2724,8.2744,8.2814,8.297,8.2999,8.2999,8.3037,8.3228,8.3419,8.3448,8.3677,8.3802,8.383,8.3792,8.3792,8.3792,8.3802,8.384,8.3792,8.3802,8.3611,8.3114,8.2493,8.2302,8.2569,8.2607,8.2607,8.2722,8.3066,8.3381,8.3486,8.3945,8.4327,8.4632,8.5196,8.5473,8.5511,8.5511,8.5511,8.5473,8.5015,8.4709,8.4327,8.3715,8.276,8.2264,8.1881,8.1652,8.1385,8.1117,8.0888,8.085,8.0735,8.0582,8.0506,8.0506,8.0506,8.0506,8.0401,8.0248,8.0353,8.043,8.0362,7.8561,7.8754,7.9438,7.94,7.8907,7.9515,7.9815,7.9885,7.9885,8.0377,8.1138,8.2038,8.2405,8.2625,8.4029,8.411,8.329,8.3175,8.3218,8.3291,8.3196,8.2999,8.2886,8.3322,8.3113,8.232,8.2157,8.2191,8.2195,8.2246,8.2451,8.3011,8.2956,8.2911,8.3033,8.2787,8.2461,8.197,8.1752,8.135,8.0808,8.1665,8.18,8.1366,8.187,8.1992,8.1453,8.1442,8.1594,8.1608,8.1583,8.1682,8.2347,8.2415,8.2537,8.3013,8.3056,8.3085,8.3161,8.3859,8.4289,8.4365,8.4976,8.5244,8.5167,8.5244,8.5244,8.5206,8.5244,8.5358,8.5282,8.5244,8.4785,8.341,8.3267,8.3486,8.4098,8.4327,8.4327,8.4413,8.4566,8.4413,8.4375,8.4719,8.5091,8.5588,8.5664,8.5702,8.5702,8.5626,8.5511,8.5511,8.5358,8.5206,8.5358,8.5358,8.4365,8.3534,8.3152,8.2846,8.2416,8.2111,8.1805,8.169,8.1156,8.0964,8.085,8.0812,8.0544,8.0506,8.0506,8.0506,8.0506,8.0506,8.0506,8.0285,8.0323,8.0592,8.0554,8.0323,8.0592,8.0976,8.142,8.1458,8.1925,8.2689,8.3517,8.3883,8.4096,8.5008,8.5267,8.4983,8.4594,8.4327,8.4142,8.3907,8.391,8.4115,8.4079,8.3869,8.3461,8.3096,8.2939,8.3,8.3065,8.3053,8.2815,8.3188,8.3328,8.3373,8.3274,8.3288,8.3627,8.3581,8.3477,8.3376,8.356,8.3374,8.2753,8.292,8.2707,8.1997,8.228,8.2668,8.2994,8.3096,8.3174,8.3314,8.3389,8.3426,8.3646,8.3972,8.4176,8.4258,8.4729,8.5071,8.5158,8.5387,8.5511,8.5511,8.5511,8.5511,8.5511,8.5511,8.5511,8.5511,8.5511,8.5463,8.5578,8.5091,8.5015,8.5855,8.6046,8.6314,8.681,8.6897,8.6935,8.6897,8.682,8.681,8.6963,8.6734,8.6418,8.6342,8.596,8.554,8.5511,8.5511,8.555,8.5511,8.5511,8.5015,8.4403,8.4098,8.3802,8.341,8.299,8.2732,8.2311,8.1767,8.1461,8.1308,8.1117,8.0964,8.0621,8.0621,8.0582,8.0544,8.0506,8.0506,8.1093,8.1093,8.1061,8.1045,8.1084,8.1353,8.1744,8.2271,8.2957,8.3414,8.3969,8.4757,8.5058,8.5118,8.5531,8.5609,8.5375,8.4931,8.4622,8.4344,8.4106,8.4123,8.4228,8.3862,8.3759,8.3872,8.3648,8.3566,8.3611,8.395,8.4067,8.3961,8.4269,8.4477,8.4415,8.4399,8.4566,8.4626,8.4552,8.4609,8.4609,8.4609,8.4352,8.3911,8.3821,8.3564,8.31,8.3156,8.3187,8.3244,8.3278,8.334,8.3535,8.3539,8.3658,8.3937,8.418,8.4364,8.445,8.4805,8.519,8.52,8.5373,8.5501,8.5511,8.5511,8.5511,8.5511,8.5511,8.5511,8.555,8.5845,8.6342,8.7144,8.6467,8.6571,8.745,8.8023,8.8176,8.8492,8.8453,8.8415,8.8186,8.811,8.811,8.7995,8.7651,8.7307,8.7192,8.6849,8.6467,8.6161,8.6074,8.5932,8.5588,8.5511,8.5511,8.5244,8.4976,8.4671,8.4327,8.383,8.3458,8.2923,8.2388,8.2302,8.2158,8.1967,8.1738,8.1347,8.0964,8.085,8.0812,8.0544,8.0506,8.1085,8.1077,8.0959,8.0973,8.1127,8.1826,8.2279,8.2701,8.4019,8.4686,8.4886,8.5456,8.5739,8.5686,8.5561,8.5263,8.478,8.4521,8.423,8.3889,8.3693,8.3474,8.3126,8.28,8.2942,8.343,8.3697,8.3915,8.4189,8.4774,8.5544,8.5996,8.6074,8.6222,8.6003,8.6093,8.5625,8.5066,8.4903,8.4903,8.4903,8.4866,8.4756,8.4682,8.4682,8.4572,8.4295,8.3831,8.3096,8.2382,8.2327,8.2575,8.2868,8.2972,8.3198,8.3645,8.3819,8.395,8.4041,8.458,8.4892,8.4937,8.5291,8.5511,8.5511,8.5511,8.5511,8.5511,8.5511,8.555,8.5731,8.6227,8.7106,8.788,8.7689,8.7946,8.9169,8.9971,8.9905,8.9485,8.9332,8.9141,8.8568,8.8492,8.8453,8.8415,8.8301,8.8186,8.8071,8.7842,8.7613,8.7269,8.6925,8.6734,8.6505,8.5998,8.5998,8.5845,8.5578,8.5206,8.5015,8.4594,8.4289,8.3725,8.319,8.3114,8.2961,8.2732,8.2426,8.2034,8.169,8.1347,8.1117,8.0926,8.0659,8.1053,8.0959,8.0896,8.1272,8.1818,8.2117,8.2881,8.3934,8.4412,8.4963,8.5246,8.5514,8.5599,8.5521,8.5137,8.4859,8.451,8.3834,8.3424,8.3183,8.28,8.2668,8.2528,8.2396,8.2658,8.3345,8.3565,8.4154,8.5237,8.5511,8.6063,8.6801,8.6798,8.6801,8.677,8.6733,8.6642,8.6407,8.6354,8.6317,8.628,8.628,8.604,8.5527,8.5507,8.5196,8.4682,8.4425,8.3618,8.2333,8.2186,8.2251,8.2476,8.2471,8.256,8.2784,8.3424,8.3885,8.4053,8.4723,8.519,8.5301,8.5373,8.5501,8.5511,8.5511,8.5511,8.5511,8.5501,8.5731,8.6304,8.6686,8.745,8.8759,8.9169,8.9551,9.0048,9.043,9.0468,9.0277,9.0239,9.0058,8.9905,8.9791,8.9791,8.9714,8.937,8.8988,8.895,8.8606,8.8262,8.8033,8.7727,8.7651,8.7422,8.6839,8.6495,8.6418,8.6036,8.5463,8.5358,8.5206,8.5091,8.49,8.4212,8.3954,8.3687,8.3419,8.3066,8.2798,8.2607,8.2378,8.1843,8.1538,8.1117,8.0951,8.0868,8.0788,8.1278,8.2084,8.2467,8.3353,8.4458,8.4945,8.5264,8.5494,8.5294,8.52,8.5116,8.4592,8.423,8.39,8.3312,8.2913,8.2616,8.2375,8.2284,8.23,8.2256,8.2627,8.3381,8.3765,8.4609,8.5654,8.6114,8.6554,8.6885,8.7014,8.7014,8.6995,8.7014,8.7014,8.6978,8.7014,8.7014,8.7014,8.7014,8.6811,8.6371,8.6297,8.593,8.5233,8.5086,8.4499,8.3434,8.292,8.27,8.2663,8.2333,8.2186,8.2235,8.2845,8.3227,8.3645,8.4365,8.4892,8.5148,8.5332,8.5501,8.5511,8.5511,8.5511,8.5511,8.5511,8.5769,8.6227,8.6877,8.8099,8.9523,9.0326,9.0621,9.0621,9.0583,9.0621,9.0621,9.0621,9.0621,9.0621,9.0621,9.0621,9.0506,9.0124,8.9933,8.9818,8.9332,8.895,8.8721,8.853,8.8415,8.8148,8.7613,8.7269,8.7154,8.6686,8.6074,8.5654,8.5588,8.5473,8.532,8.5015,8.4709,8.4441,8.4212,8.4098,8.3868,8.3677,8.3267,8.2684,8.2302,8.1881,8.086,8.0775,8.065,8.115,8.2116,8.2872,8.3695,8.4614,8.5368,8.5618,8.5453,8.4997,8.4776,8.4569,8.4066,8.3535,8.3053,8.2928,8.2616,8.2359,8.2203,8.2203,8.2219,8.246,8.292,8.3638,8.4389,8.5159,8.5967,8.6701,8.6904,8.7014,8.7014,8.7014,8.7014,8.7014,8.7014,8.7014,8.7014,8.7014,8.7014,8.7014,8.6941,8.6904,8.6867,8.6591,8.6077,8.5894,8.5563,8.4903,8.4005,8.3564,8.3454,8.281,8.248,8.2472,8.2644,8.2878,8.3076,8.3742,8.428,8.4757,8.5221,8.5501,8.5511,8.5511,8.5511,8.5511,8.5511,8.5702,8.6314,8.7422,8.8912,9.0201,9.0583,9.0583,9.0621,9.0621,9.0621,9.0621,9.0621,9.0621,9.0621,9.0621,9.0621,9.0621,9.0392,9.0353,9.0277,9.0096,8.9752,8.9523,8.9332,8.9179,8.8797,8.8377,8.811,8.788,8.7384,8.6772,8.5998,8.5769,8.5588,8.5397,8.5206,8.5206,8.5244,8.5091,8.49,8.4747,8.4441,8.3945,8.341,8.3228,8.2923,8.0767,8.0641,8.0585,8.1494,8.2796,8.315,8.4021,8.536,8.5609,8.5413,8.4969,8.4742,8.445,8.4041,8.3494,8.3097,8.2913,8.2585,8.23,8.2235,8.2186,8.2186,8.237,8.2847,8.3564,8.4315,8.5123,8.593,8.6628,8.6831,8.7014,8.7014,8.7014,8.7014,8.7014,8.7014,8.7014,8.7014,8.7014,8.7014,8.7014,8.7014,8.7014,8.7014,8.7014,8.6941,8.6811,8.6738,8.6647,8.6207,8.5196,8.4352,8.4278,8.4058,8.3654,8.3313,8.3477,8.3505,8.3312,8.3934,8.4571,8.4741,8.5143,8.5511,8.5501,8.554,8.554,8.5501,8.555,8.6199,8.7345,8.9027,8.9933,9.043,9.0621,9.0621,9.0621,9.0621,9.0621,9.0621,9.0621,9.0621,9.0621,9.0621,9.0621,9.0621,9.0621,9.0621,9.0621,9.0621,9.0402,9.0058,9.002,8.9829,8.9638,8.9218,8.8835,8.8568,8.8071,8.7536,8.6772,8.6161,8.6046,8.5779,8.5473,8.5511,8.5511,8.5511,8.5244,8.5206,8.5129,8.4671,8.425,8.4107,8.3802,8.0632,8.0551,8.0551,8.1316,8.2501,8.296,8.384,8.4901,8.5179,8.5062,8.4615,8.4218,8.3728,8.3452,8.2898,8.2616,8.2591,8.2359,8.2203,8.2186,8.2223,8.2406,8.292,8.3544,8.4242,8.4719,8.538,8.6224,8.6794,8.7014,8.7014,8.7014,8.7014,8.7014,8.7014,8.7014,8.7014,8.7014,8.7014,8.7014,8.7014,8.7014,8.7014,8.7014,8.7014,8.7014,8.6978,8.6978,8.6978,8.6684,8.582,8.5123,8.4939,8.4462,8.4005,8.4068,8.3749,8.4117,8.4175,8.4283,8.4566,8.4833,8.5079,8.4946,8.5181,8.549,8.5953,8.5956,8.64,8.7307,8.853,8.9256,9.0048,9.0544,9.0621,9.0621,9.0621,9.0621,9.0621,9.0621,9.0621,9.0621,9.0621,9.0621,9.0621,9.0621,9.0621,9.0621,9.0621,9.0621,9.0621,9.044,9.0506,9.0468,9.0392,9.0048,8.9523,8.9179,8.8759,8.8224,8.7575,8.704,8.6543,8.6123,8.5702,8.5511,8.5511,8.5511,8.5511,8.5435,8.5282,8.5167,8.5053,8.4824,8.4403,8.0551,8.0506,8.0506,8.1003,8.1834,8.2578,8.334,8.4157,8.4472,8.4486,8.4304,8.3396,8.3068,8.2778,8.2434,8.2219,8.2203,8.2219,8.2186,8.2186,8.2186,8.2627,8.3324,8.4058,8.4646,8.4829,8.5673,8.6444,8.6831,8.7014,8.7014,8.7014,8.7014,8.7014,8.7014,8.7014,8.7014,8.7014,8.7014,8.7014,8.7014,8.7014,8.7014,8.7014,8.7014,8.6867,8.6775,8.6738,8.6775,8.6757,8.604,8.5747,8.5416,8.4572,8.3821,8.4499,8.3868,8.3876,8.4293,8.428,8.417,8.4765,8.4707,8.4391,8.443,8.5402,8.6094,8.6644,8.7128,8.8415,8.9218,8.9638,8.9971,9.0392,9.0621,9.0621,9.0621,9.0621,9.0621,9.0621,9.0621,9.0621,9.0621,9.0621,9.0621,9.0621,9.0621,9.0621,9.0621,9.0621,9.0621,9.0621,9.0621,9.0621,9.0544,9.0506,9.0058,8.9829,8.9447,8.8988,8.8453,8.8071,8.7498,8.6352,8.5883,8.5779,8.5626,8.5511,8.5511,8.5511,8.5473,8.5358,8.5397,8.5511,8.5053,8.0525,8.0506,8.0506,8.1003,8.1786,8.2177,8.2787,8.3532,8.3852,8.3715,8.334,8.3068,8.2724,8.2402,8.2263,8.2186,8.2186,8.2186,8.2186,8.2223,8.2296,8.2737,8.3581,8.4389,8.4976,8.5673,8.6334,8.6848,8.6958,8.7014,8.7014,8.7014,8.7014,8.7014,8.7014,8.7014,8.7014,8.7014,8.7014,8.7014,8.7014,8.7014,8.6904,8.6941,8.6941,8.6628,8.6114,8.6004,8.6004,8.5894,8.5196,8.5233,8.527,8.4682,8.4352,8.4389,8.3875,8.3643,8.3933,8.3547,8.3299,8.3441,8.3774,8.4014,8.424,8.5257,8.6175,8.689,8.7927,8.9218,8.9294,8.9857,9.0315,9.0583,9.0621,9.0621,9.0621,9.0621,9.0621,9.0621,9.0621,9.0621,9.0621,9.0621,9.0621,9.0621,9.0621,9.0621,9.0621,9.0621,9.0621,9.0621,9.0621,9.0621,9.0583,9.0583,9.044,9.0364,9.0096,8.9818,8.9409,8.9179,8.8492,8.7373,8.6609,8.6342,8.6074,8.5779,8.555,8.555,8.555,8.5511,8.5511,8.5511,8.5511,8.0506,8.0506,8.0506,8.0573,8.0888,8.1805,8.2228,8.2446,8.3099,8.3284,8.2965,8.2724,8.245,8.2251,8.2186,8.2186,8.2186,8.2186,8.2186,8.2223,8.2627,8.3251,8.4022,8.4829,8.5637,8.6297,8.6831,8.6978,8.7014,8.7014,8.7014,8.7014,8.7014,8.7014,8.7014,8.7014,8.7014,8.7014,8.7014,8.7014,8.7014,8.6978,8.6831,8.6554,8.6664,8.6371,8.5453,8.569,8.5563,8.5123,8.4425,8.4262,8.4242,8.3985,8.3765,8.4242,8.3838,8.3601,8.3801,8.3555,8.3261,8.3244,8.338,8.351,8.4021,8.5099,8.6543,8.7905,8.8814,8.9982,9.0009,9.0353,9.0544,9.0621,9.0621,9.0621,9.0621,9.0621,9.0621,9.0621,9.0621,9.0621,9.0621,9.0621,9.0621,9.0621,9.0621,9.0621,9.0621,9.0621,9.0621,9.0621,9.0621,9.0621,9.0621,9.0621,9.0621,9.0621,9.0544,9.0277,9.0162,8.9867,8.9332,8.852,8.7832,8.7297,8.6648,8.6342,8.5998,8.5664,8.5626,8.5626,8.555,8.5511,8.5511,8.0179,8.0189,8.0189,7.9948,7.9841,8.1205,8.162,8.1524,8.2398,8.2823,8.28,8.2439,8.2219,8.2186,8.2186,8.2186,8.2186,8.2186,8.2186,8.2333,8.2977,8.3785,8.4609,8.5416,8.6114,8.6738,8.6664,8.6831,8.6978,8.7014,8.7014,8.7014,8.7014,8.7014,8.7014,8.7014,8.7014,8.7014,8.7014,8.7014,8.6978,8.6811,8.6481,8.582,8.6297,8.5783,8.4609,8.4792,8.4829,8.4315,8.3691,8.3251,8.3234,8.2663,8.2847,8.3765,8.3471,8.3675,8.3875,8.3524,8.2982,8.2994,8.2917,8.3061,8.3804,8.5269,8.7222,8.9237,9.0011,9.0372,9.0436,9.0583,9.0621,9.0621,9.0621,9.0621,9.0621,9.0621,9.0621,9.0621,9.0621,9.0621,9.0621,9.0621,9.0621,9.0621,9.0621,9.0621,9.0621,9.0621,9.0621,9.0621,9.0621,9.0621,9.0621,9.0621,9.0621,9.0621,9.0621,9.0468,9.0468,9.0468,8.9895,8.936,8.9218,8.8644,8.7794,8.6991,8.6686,8.6352,8.597,8.5692,8.5588,8.555,8.5511,7.9085,7.9085,7.9097,7.9037,7.9191,8.0328,8.08,8.0854,8.1843,8.2279,8.2359,8.2251,8.2186,8.2186,8.2186,8.2186,8.2186,8.2186,8.2186,8.2296,8.3141,8.3895,8.4646,8.5433,8.6261,8.6775,8.6334,8.6407,8.6794,8.6978,8.6978,8.6978,8.7014,8.7014,8.7014,8.7014,8.7014,8.7014,8.7014,8.7014,8.6904,8.6371,8.5967,8.5637,8.527,8.4609,8.3765,8.3838,8.3748,8.3528,8.281,8.2774,8.3141,8.2627,8.2296,8.2406,8.248,8.27,8.3234,8.292,8.259,8.2627,8.2532,8.2745,8.3917,8.554,8.7562,8.9439,8.9775,9.0026,9.0373,9.054,9.0572,9.0621,9.0621,9.0621,9.0621,9.0621,9.0621,9.0621,9.0621,9.0621,9.0621,9.0621,9.0621,9.0621,9.0621,9.0621,9.0621,9.0621,9.0621,9.0621,9.0621,9.0621,9.0621,9.0621,9.0621,9.0621,9.0621,9.0621,9.0621,9.0621,9.0583,9.0211,9.0058,8.9638,8.8721,8.8033,8.7536,8.7116,8.6734,8.6161,8.5626,8.5588,8.5702,7.8349,7.8891,7.8891,7.8716,7.8629,7.9981,8.0422,8.0462,8.1581,8.2186,8.2186,8.2186,8.2186,8.2186,8.2186,8.2186,8.2186,8.2186,8.2186,8.2517,8.3398,8.4242,8.4829,8.582,8.6738,8.6591,8.6334,8.6334,8.6664,8.6591,8.6481,8.6995,8.7014,8.7014,8.7014,8.7014,8.7014,8.7014,8.7014,8.7014,8.6794,8.6224,8.5563,8.5123,8.4756,8.3911,8.3141,8.3234,8.3104,8.2847,8.2296,8.2333,8.259,8.2406,8.2186,8.2186,8.2223,8.237,8.2627,8.237,8.2443,8.2774,8.2957,8.3487,8.4722,8.628,8.7538,8.8541,8.8996,8.9453,8.9944,9.006,9.0328,9.0465,9.0551,9.0621,9.0621,9.0621,9.0621,9.0621,9.0621,9.0621,9.0621,9.0621,9.0621,9.0621,9.0621,9.0621,9.0621,9.0621,9.0621,9.0621,9.0621,9.0621,9.0621,9.0621,9.0621,9.0621,9.0621,9.0621,9.0621,9.0621,9.0621,9.0621,9.0402,8.9944,8.9409,8.8988,8.8453,8.7995,8.7536,8.7001,8.6467,8.6304,8.6265,7.7782,7.8471,7.8484,7.8268,7.8088,7.9704,8.0191,8.0047,8.1505,8.2186,8.2186,8.2186,8.2186,8.2186,8.2186,8.2186,8.2186,8.2186,8.2186,8.2737,8.3654,8.4462,8.4976,8.5967,8.6591,8.6701,8.5416,8.5527,8.5857,8.593,8.6004,8.6958,8.7014,8.7014,8.7014,8.7014,8.7014,8.7014,8.7014,8.7014,8.6831,8.5967,8.5233,8.4682,8.4132,8.3434,8.2517,8.27,8.2663,8.2406,8.2223,8.2223,8.226,8.226,8.2186,8.2186,8.2186,8.2186,8.2296,8.226,8.2553,8.2994,8.3711,8.4242,8.5521,8.6996,8.7841,8.8022,8.8302,8.8845,8.9337,8.9616,8.9932,9.0224,9.0487,9.054,9.0621,9.0708,9.0659,9.0621,9.0621,9.0621,9.0621,9.0621,9.0621,9.0621,9.0621,9.0621,9.0621,9.0621,9.0621,9.0621,9.0621,9.0621,9.0621,9.0621,9.0621,9.0621,9.0621,9.0621,9.0621,9.0621,9.0621,9.0621,9.0621,9.044,9.002,8.9714,8.937,8.8835,8.8301,8.788,8.7498,8.7259,8.6839,7.7335,7.7389,7.7441,7.7457,7.7506,7.9144,7.9827,7.9926,8.1489,8.2186,8.2186,8.2186,8.2186,8.2186,8.2186,8.2186,8.2186,8.2186,8.2186,8.27,8.3691,8.4352,8.4792,8.5306,8.5857,8.5637,8.4682,8.4389,8.4682,8.5086,8.571,8.6757,8.6721,8.6904,8.7014,8.7014,8.6904,8.6904,8.6941,8.6867,8.6444,8.56,8.4719,8.4278,8.3251,8.2296,8.2223,8.237,8.237,8.2186,8.2186,8.2186,8.2186,8.2186,8.2186,8.2186,8.2186,8.2186,8.2186,8.2333,8.2333,8.2737,8.3728,8.5049,8.5947,8.6608,8.7258,8.7731,8.7883,8.8212,8.879,8.9336,8.9679,9.0248,9.0642,9.0923,9.095,9.0861,9.0822,9.0659,9.0621,9.0621,9.0621,9.0621,9.0621,9.0621,9.0621,9.0621,9.0621,9.0621,9.0621,9.0621,9.0621,9.0621,9.0621,9.0621,9.0621,9.0621,9.0621,9.0621,9.0621,9.0621,9.0621,9.0621,9.0621,9.0621,9.0583,9.0249,8.9867,8.9485,8.9065,8.8759,8.8262,8.788,8.7412,7.7326,7.7326,7.7326,7.7326,7.7436,7.9103,7.9816,8.0073,8.1505,8.2186,8.2186,8.2186,8.2186,8.2186,8.2186,8.2186,8.2186,8.2186,8.2186,8.2517,8.3251,8.3801,8.4168,8.4609,8.5049,8.4829,8.3931,8.3821,8.4572,8.4499,8.4792,8.549,8.5967,8.6591,8.6794,8.6867,8.6738,8.6518,8.6628,8.6611,8.549,8.5086,8.4389,8.3748,8.292,8.2223,8.2186,8.2186,8.2186,8.2186,8.2186,8.2186,8.2186,8.2186,8.2186,8.2186,8.2186,8.2186,8.2333,8.27,8.3324,8.4499,8.5453,8.6151,8.6407,8.6831,8.7044,8.7281,8.7452,8.781,8.8227,8.8912,8.956,9.0347,9.0905,9.1252,9.1359,9.131,9.1204,9.1204,9.085,9.0621,9.0621,9.0621,9.0621,9.0621,9.0621,9.0621,9.0621,9.0621,9.0621,9.0621,9.0621,9.0621,9.0621,9.0621,9.0621,9.0621,9.0621,9.0621,9.0621,9.0621,9.0621,9.0621,9.0621,9.0621,9.0621,9.0621,9.0364,9.002,8.9867,8.9704,8.9179,8.8568,8.811,7.7326,7.7326,7.7326,7.7326,7.7509,7.9103,7.9816,8.0073,8.1505,8.2186,8.2186,8.2186,8.2186,8.2186,8.2186,8.2186,8.2186,8.2186,8.2186,8.2517,8.2994,8.3344,8.3601,8.3895,8.4242,8.4042,8.3544,8.3361,8.3728,8.4095,8.4225,8.4462,8.4792,8.5453,8.6114,8.6518,8.6334,8.6114,8.6114,8.6004,8.4792,8.4315,8.4058,8.3381,8.2627,8.2223,8.2186,8.2186,8.2186,8.2186,8.2186,8.2186,8.2186,8.2186,8.2186,8.2186,8.2186,8.2186,8.2406,8.2994,8.4132,8.5306,8.5967,8.6554,8.6904,8.7014,8.712,8.747,8.7468,8.7622,8.8259,8.9183,8.977,9.0498,9.1471,9.1905,9.1964,9.1963,9.1855,9.1778,9.1395,9.1052,9.0937,9.0937,9.0735,9.0697,9.0621,9.0621,9.0621,9.0621,9.0621,9.0621,9.0621,9.0621,9.0621,9.0621,9.0621,9.0621,9.0621,9.0621,9.0621,9.0621,9.0621,9.0621,9.0621,9.0621,9.0621,9.0621,9.0621,9.0544,9.0392,9.0201,9.0048,8.9447,8.9027,7.7326,7.7326,7.7326,7.7326,7.7582,7.9103,7.9816,8.0147,8.1489,8.2186,8.2186,8.2186,8.2186,8.2186,8.2186,8.2186,8.2186,8.2186,8.2186,8.237,8.281,8.3234,8.3308,8.3381,8.3434,8.3251,8.2847,8.2517,8.2517,8.3324,8.3491,8.3418,8.3654,8.4005,8.4682,8.5453,8.58,8.5764,8.571,8.5233,8.4389,8.3765,8.3528,8.3051,8.259,8.2186,8.2186,8.2186,8.2186,8.2186,8.2186,8.2186,8.2186,8.2186,8.2186,8.2186,8.2186,8.2186,8.2296,8.303,8.4242,8.5563,8.6151,8.6444,8.6867,8.7088,8.7362,8.7839,8.8096,8.85,8.92,8.9821,9.0179,9.0818,9.1788,9.2481,9.2553,9.2829,9.2744,9.2427,9.2045,9.1739,9.151,9.1281,9.1003,9.0812,9.0659,9.0621,9.0621,9.0621,9.0621,9.0621,9.0621,9.0621,9.0621,9.0621,9.0621,9.0621,9.0621,9.0621,9.0621,9.0621,9.0621,9.0621,9.0621,9.0621,9.0621,9.0621,9.0621,9.0621,9.0621,9.0506,9.0468,9.0315,8.9791,7.7326,7.7326,7.7326,7.7619,7.8259,7.9302,8.0073,8.0718,8.1672,8.2186,8.2186,8.2186,8.2186,8.2186,8.2186,8.2186,8.2186,8.2186,8.2186,8.2223,8.2553,8.2553,8.2627,8.27,8.2663,8.2553,8.226,8.2186,8.2296,8.292,8.292,8.2774,8.2774,8.3067,8.3801,8.4499,8.4792,8.4425,8.4535,8.4425,8.3251,8.3214,8.3124,8.27,8.2333,8.2186,8.2186,8.2186,8.2186,8.2186,8.2186,8.2186,8.2186,8.2186,8.2186,8.2186,8.2186,8.248,8.2994,8.3785,8.4646,8.5563,8.6261,8.6628,8.6978,8.7545,8.7912,8.8316,8.8793,8.9143,8.9431,9.0109,9.062,9.1391,9.2263,9.2932,9.329,9.3674,9.3764,9.3153,9.2656,9.258,9.2427,9.216,9.1805,9.1499,9.1395,9.0888,9.0774,9.0659,9.0621,9.0621,9.0621,9.0621,9.0621,9.0621,9.0621,9.0621,9.0621,9.0621,9.0621,9.0621,9.0621,9.0621,9.0621,9.0621,9.0621,9.0621,9.0621,9.0621,9.0621,9.0621,9.0544,9.0544,9.0392,7.7326,7.7326,7.7326,7.8002,7.8993,7.9596,8.0388,8.1379,8.1966,8.2186,8.2186,8.2186,8.2186,8.2186,8.2186,8.2186,8.2186,8.2186,8.2186,8.2186,8.2186,8.226,8.226,8.2186,8.2296,8.2186,8.2186,8.2186,8.2223,8.27,8.2663,8.237,8.2186,8.2517,8.3141,8.3601,8.4022,8.3748,8.3895,8.3618,8.281,8.259,8.27,8.237,8.2186,8.2186,8.2186,8.2186,8.2186,8.2186,8.2186,8.2186,8.2186,8.2186,8.2186,8.2186,8.226,8.2627,8.3308,8.4078,8.4866,8.571,8.6554,8.7105,8.7362,8.7876,8.8536,8.905,8.951,8.9877,9.0207,9.0849,9.1153,9.1948,9.2401,9.3064,9.3601,9.3972,9.4437,9.3838,9.3563,9.3486,9.3268,9.3077,9.2771,9.2465,9.2198,9.1614,9.1041,9.0812,9.0735,9.0697,9.0659,9.0621,9.0621,9.0621,9.0621,9.0621,9.0621,9.0621,9.0621,9.0621,9.0621,9.0621,9.0621,9.0621,9.0621,9.0621,9.0621,9.0621,9.0621,9.0621,9.0621,9.0621,9.0621,7.7326,7.7326,7.7326,7.8332,7.9633,7.9963,8.0844,8.2113,8.2186,8.2186,8.2186,8.2186,8.2186,8.2186,8.2186,8.2186,8.2186,8.2186,8.2186,8.2186,8.2186,8.2186,8.2186,8.2186,8.2186,8.2186,8.2186,8.2186,8.2223,8.237,8.2296,8.2186,8.2186,8.2296,8.2627,8.2957,8.3287,8.3214,8.3161,8.292,8.2406,8.226,8.2333,8.2186,8.2186,8.2186,8.2186,8.2186,8.2186,8.2186,8.2186,8.2186,8.2186,8.2186,8.2186,8.2186,8.2186,8.2663,8.3344,8.4115,8.5086,8.5967,8.6738,8.7399,8.7986,8.8426,8.9197,8.9895,9.0427,9.0996,9.151,9.1546,9.1656,9.2081,9.2441,9.2992,9.3522,9.4068,9.4693,9.4668,9.4516,9.4316,9.383,9.3612,9.3726,9.3612,9.3306,9.2847,9.2149,9.1128,9.1052,9.0888,9.0812,9.0621,9.0621,9.0621,9.0621,9.0621,9.0621,9.0621,9.0621,9.0621,9.0621,9.0621,9.0621,9.0621,9.0621,9.0621,9.0621,9.0621,9.0621,9.0621,9.0621,9.0621,9.0621,7.7326,7.7362,7.7949,7.8846,7.989,8.1028,8.1819,8.215,8.2186,8.2186,8.2186,8.2186,8.2186,8.2186,8.2186,8.2186,8.2186,8.2186,8.2186,8.2186,8.2186,8.2186,8.2186,8.2186,8.2186,8.2186,8.2186,8.2186,8.2186,8.2186,8.2186,8.2186,8.2186,8.2186,8.226,8.2443,8.2553,8.2627,8.2663,8.248,8.2296,8.2186,8.2186,8.2186,8.2186,8.2186,8.2186,8.2186,8.2186,8.2186,8.2186,8.2186,8.2186,8.2186,8.2186,8.2186,8.226,8.2553,8.3344,8.4168,8.5233,8.6518,8.7435,8.7802,8.8426,8.9124,8.9968,9.0482,9.1069,9.1546,9.1693,9.1767,9.1803,9.2001,9.2333,9.2753,9.3239,9.3649,9.4284,9.4718,9.4584,9.4842,9.4379,9.4605,9.472,9.4643,9.4414,9.3955,9.3268,9.2198,9.1586,9.1472,9.1232,9.1166,9.0774,9.0697,9.0659,9.0621,9.0621,9.0621,9.0621,9.0621,9.0621,9.0621,9.0621,9.0621,9.0621,9.0621,9.0621,9.0621,9.0621,9.0621,9.0621,9.0621,9.0621,7.7326,7.7436,7.8243,7.925,8.0388,8.1636,8.2186,8.2186,8.2186,8.2186,8.2186,8.2186,8.2186,8.2186,8.2186,8.2186,8.2186,8.2186,8.2186,8.2186,8.2186,8.2186,8.2186,8.2186,8.2186,8.2186,8.2186,8.2186,8.2186,8.2186,8.2186,8.2186,8.2186,8.2186,8.2223,8.226,8.2223,8.2223,8.2223,8.2186,8.2186,8.2186,8.2186,8.2186,8.2186,8.2186,8.2186,8.2186,8.2186,8.2186,8.2186,8.2186,8.2186,8.2186,8.248,8.2553,8.2774,8.3434,8.4352,8.5233,8.6224,8.7308,8.8426,8.8867,8.916,8.9693,9.0225,9.0702,9.1289,9.1803,9.1803,9.1803,9.1803,9.184,9.2124,9.2488,9.2835,9.3136,9.3649,9.4256,9.4604,9.5005,9.5195,9.5459,9.556,9.5293,9.514,9.4949,9.4185,9.3191,9.258,9.2312,9.2007,9.1739,9.1357,9.1003,9.0926,9.085,9.0621,9.0621,9.0621,9.0621,9.0621,9.0621,9.0621,9.0621,9.0621,9.0621,9.0621,9.0621,9.0621,9.0621,9.0621,9.0621,9.0621,7.7326,7.7399,7.8295,7.9653,8.1085,8.1893,8.2186,8.2186,8.2186,8.2186,8.2186,8.2186,8.2186,8.2186,8.2186,8.2186,8.2186,8.2186,8.2186,8.2186,8.2186,8.2186,8.2186,8.2186,8.2186,8.2186,8.2186,8.2186,8.2186,8.2186,8.2186,8.2186,8.2186,8.2186,8.2186,8.2186,8.2186,8.2186,8.2186,8.2186,8.2186,8.2186,8.2186,8.2186,8.2186,8.2186,8.2186,8.2186,8.2186,8.2186,8.2186,8.2186,8.2186,8.2186,8.2627,8.303,8.3197,8.4095,8.5123,8.6114,8.7178,8.8353,8.9564,8.9583,8.9657,9.0335,9.0849,9.0812,9.1289,9.1693,9.1803,9.1803,9.1803,9.1803,9.1983,9.2194,9.2436,9.2786,9.3214,9.3723,9.4136,9.4576,9.4957,9.5153,9.5414,9.5482,9.5522,9.5446,9.5064,9.4108,9.3612,9.3191,9.2733,9.2389,9.216,9.1816,9.1423,9.1194,9.0937,9.0621,9.0621,9.0621,9.0621,9.0621,9.0621,9.0621,9.0621,9.0621,9.0621,9.0621,9.0621,9.0621,9.0631,9.0604,9.0593,7.7326,7.7472,7.8883,8.044,8.1819,8.2113,8.2186,8.2186,8.2186,8.2186,8.2186,8.2186,8.2186,8.2186,8.2186,8.2186,8.2186,8.2186,8.2186,8.2186,8.2186,8.2186,8.2186,8.2186,8.2186,8.2186,8.2186,8.2223,8.2296,8.226,8.2186,8.2223,8.2223,8.2186,8.2186,8.2186,8.2186,8.2186,8.2186,8.2186,8.2186,8.2186,8.2186,8.2186,8.2186,8.2186,8.2186,8.2186,8.2186,8.2186,8.2186,8.2186,8.2186,8.2186,8.2627,8.3197,8.3528,8.4499,8.5747,8.6885,8.7822,8.8702,8.951,8.951,8.9877,9.0886,9.1289,9.1069,9.1143,9.151,9.1803,9.1803,9.173,9.173,9.1748,9.1856,9.2016,9.2362,9.2728,9.3183,9.359,9.4062,9.4483,9.4882,9.5153,9.5368,9.5554,9.556,9.556,9.4987,9.4567,9.407,9.3344,9.3,9.2847,9.2656,9.2312,9.1854,9.151,9.1166,9.0735,9.0621,9.0621,9.0621,9.0621,9.0621,9.0621,9.0621,9.0621,9.0621,9.0593,9.0593,9.0635,9.0656,9.0624,7.7509,7.806,7.9653,8.1064,8.2039,8.2186,8.2186,8.2186,8.2186,8.2186,8.2186,8.2186,8.2186,8.2186,8.2186,8.2186,8.2186,8.2186,8.2186,8.2186,8.2223,8.2186,8.2186,8.226,8.2186,8.2186,8.2223,8.2296,8.2553,8.2333,8.226,8.2553,8.248,8.2186,8.2186,8.2186,8.2186,8.2186,8.2186,8.2186,8.2186,8.2186,8.2186,8.2186,8.2186,8.2186,8.2186,8.2186,8.2186,8.2186,8.2186,8.2186,8.2186,8.2186,8.2847,8.3618,8.4188,8.4776,8.6334,8.7582,8.8482,8.94,8.9877,9.0024,8.995,9.0739,9.0335,9.017,9.0702,9.1106,9.1657,9.1803,9.1436,9.1289,9.1179,9.1178,9.125,9.139,9.1858,9.2365,9.283,9.3308,9.3833,9.4523,9.4819,9.5043,9.5248,9.5576,9.5598,9.5609,9.5293,9.4949,9.4223,9.3803,9.3677,9.3535,9.3306,9.2771,9.2198,9.1434,9.0888,9.0697,9.0621,9.0621,9.0621,9.0621,9.0621,9.0621,9.0621,9.0621,9.0593,9.0604,9.0656,9.0679,9.0689,7.7876,7.8919,8.0351,8.1452,8.215,8.2186,8.2186,8.2186,8.2186,8.2186,8.2186,8.2186,8.2186,8.2186,8.2186,8.2186,8.2186,8.2186,8.2186,8.226,8.2406,8.2517,8.259,8.259,8.2627,8.248,8.2333,8.2774,8.3197,8.27,8.248,8.3067,8.2774,8.2186,8.2186,8.2186,8.2186,8.2186,8.2186,8.2186,8.2186,8.2186,8.2186,8.2186,8.2186,8.2186,8.2186,8.2186,8.2186,8.2186,8.2186,8.2186,8.2186,8.2223,8.2994,8.3765,8.4352,8.56,8.7288,8.8519,8.9473,9.0244,9.0464,9.0427,9.0298,8.9895,8.9473,8.9877,9.0427,9.0922,9.1436,9.1693,9.1289,9.0739,9.0629,9.0445,9.0463,9.0591,9.1123,9.1656,9.2157,9.2633,9.3277,9.3991,9.4403,9.4654,9.5006,9.5318,9.5576,9.5598,9.5446,9.5369,9.5064,9.4758,9.4567,9.4376,9.4146,9.3612,9.2962,9.193,9.1079,9.085,9.0659,9.0621,9.0621,9.0631,9.0631,9.0621,9.0621,9.0593,9.0635,9.0666,9.0679,9.0739,9.0809,7.8185,7.9669,8.0608,8.1489,8.2113,8.2186,8.2186,8.2186,8.2186,8.2186,8.2186,8.2186,8.2186,8.2186,8.2186,8.2186,8.2186,8.2186,8.2186,8.2223,8.2774,8.3014,8.3177,8.3251,8.3544,8.3141,8.2627,8.2737,8.3381,8.281,8.2627,8.3381,8.2663,8.226,8.2186,8.2186,8.2186,8.2186,8.2186,8.2186,8.2186,8.2186,8.2186,8.2186,8.2186,8.2186,8.2186,8.2186,8.2186,8.2186,8.2186,8.2186,8.2186,8.226,8.2884,8.3838,8.4425,8.5857,8.7418,8.8886,8.9877,9.0592,9.0555,9.0097,8.973,8.9124,8.9271,9.017,9.0647,9.0959,9.14,9.1583,9.1326,9.0445,8.9987,8.973,8.9601,9.0115,9.0683,9.1161,9.1617,9.2166,9.2769,9.3354,9.3746,9.4118,9.4679,9.5018,9.5414,9.5531,9.5587,9.5609,9.5609,9.5609,9.5369,9.5178,9.4949,9.4414,9.3726,9.2695,9.1767,9.0965,9.0774,9.0652,9.0642,9.0593,9.0593,9.0604,9.0604,9.0614,9.0648,9.0699,9.0759,9.0819,9.0906]}]]